<?xml version="1.0" encoding="UTF-8" standalone="no" ?>
<gpx xmlns="http://www.topografix.com/GPX/1/1" xmlns:xsi="http://www.w3.org/2001/XMLSchema-instance" xsi:schemaLocation="http://www.topografix.com/GPX/1/1 http://www.topografix.com/GPX/1/1/gpx.xsd" version="1.1" creator="VisuGPX - https://www.visugpx.com">
  <metadata>
    <name>Aveyron</name>
    <desc><![CDATA[9 jours de vélo dans l'Aveyron (et un peu du Lot)]]></desc>
  </metadata>
  <trk>
    <name><![CDATA[j7]]></name>
    <desc><![CDATA[comment ...]]></desc>
    <extensions>
      <line xmlns="http://www.topografix.com/GPX/gpx_style/0/2">
        <color>ff0000</color>
        <width>4</width>
      </line>
    </extensions>
    <trkseg>
      <trkpt lat="44.34643" lon="2.04603">
        <ele>368</ele>
        <time>2021-09-02T07:30:08Z</time>
      </trkpt>
      <trkpt lat="44.34646" lon="2.04612">
        <ele>386</ele>
        <time>2021-09-02T07:30:15Z</time>
      </trkpt>
      <trkpt lat="44.34628" lon="2.04579">
        <ele>421</ele>
        <time>2021-09-02T07:30:17Z</time>
      </trkpt>
      <trkpt lat="44.34648" lon="2.04569">
        <ele>457</ele>
        <time>2021-09-02T07:30:22Z</time>
      </trkpt>
      <trkpt lat="44.34648" lon="2.04579">
        <ele>453</ele>
        <time>2021-09-02T07:30:28Z</time>
      </trkpt>
      <trkpt lat="44.34657" lon="2.04599">
        <ele>403</ele>
        <time>2021-09-02T07:30:38Z</time>
      </trkpt>
      <trkpt lat="44.34659" lon="2.04614">
        <ele>372</ele>
        <time>2021-09-02T07:30:42Z</time>
      </trkpt>
      <trkpt lat="44.34668" lon="2.04627">
        <ele>356</ele>
        <time>2021-09-02T07:31:03Z</time>
      </trkpt>
      <trkpt lat="44.34668" lon="2.04621">
        <ele>353</ele>
        <time>2021-09-02T07:31:15Z</time>
      </trkpt>
      <trkpt lat="44.34672" lon="2.04655">
        <ele>355</ele>
        <time>2021-09-02T07:31:23Z</time>
      </trkpt>
      <trkpt lat="44.34668" lon="2.04663">
        <ele>301</ele>
        <time>2021-09-02T07:31:26Z</time>
      </trkpt>
      <trkpt lat="44.34662" lon="2.04664">
        <ele>286</ele>
        <time>2021-09-02T07:31:28Z</time>
      </trkpt>
      <trkpt lat="44.34655" lon="2.04665">
        <ele>280</ele>
        <time>2021-09-02T07:31:30Z</time>
      </trkpt>
      <trkpt lat="44.34646" lon="2.04664">
        <ele>274</ele>
        <time>2021-09-02T07:31:32Z</time>
      </trkpt>
      <trkpt lat="44.34548" lon="2.04663">
        <ele>268</ele>
        <time>2021-09-02T07:31:56Z</time>
      </trkpt>
      <trkpt lat="44.34512" lon="2.04672">
        <ele>264</ele>
        <time>2021-09-02T07:32:06Z</time>
      </trkpt>
      <trkpt lat="44.3444" lon="2.04708">
        <ele>257</ele>
        <time>2021-09-02T07:32:23Z</time>
      </trkpt>
      <trkpt lat="44.34432" lon="2.04714">
        <ele>256</ele>
        <time>2021-09-02T07:32:25Z</time>
      </trkpt>
      <trkpt lat="44.34409" lon="2.04765">
        <ele>253</ele>
        <time>2021-09-02T07:32:35Z</time>
      </trkpt>
      <trkpt lat="44.34403" lon="2.04771">
        <ele>252</ele>
        <time>2021-09-02T07:32:37Z</time>
      </trkpt>
      <trkpt lat="44.34394" lon="2.04787">
        <ele>251</ele>
        <time>2021-09-02T07:32:41Z</time>
      </trkpt>
      <trkpt lat="44.34381" lon="2.04826">
        <ele>246</ele>
        <time>2021-09-02T07:32:51Z</time>
      </trkpt>
      <trkpt lat="44.34353" lon="2.04943">
        <ele>236</ele>
        <time>2021-09-02T07:33:19Z</time>
      </trkpt>
      <trkpt lat="44.3434" lon="2.0499">
        <ele>234</ele>
        <time>2021-09-02T07:33:29Z</time>
      </trkpt>
      <trkpt lat="44.34327" lon="2.05036">
        <ele>235</ele>
        <time>2021-09-02T07:33:39Z</time>
      </trkpt>
      <trkpt lat="44.34314" lon="2.05085">
        <ele>237</ele>
        <time>2021-09-02T07:33:49Z</time>
      </trkpt>
      <trkpt lat="44.34311" lon="2.05101">
        <ele>238</ele>
        <time>2021-09-02T07:33:52Z</time>
      </trkpt>
      <trkpt lat="44.3431" lon="2.05123">
        <ele>238</ele>
        <time>2021-09-02T07:33:56Z</time>
      </trkpt>
      <trkpt lat="44.34313" lon="2.05145">
        <ele>237</ele>
        <time>2021-09-02T07:34:00Z</time>
      </trkpt>
      <trkpt lat="44.34336" lon="2.05219">
        <ele>240</ele>
        <time>2021-09-02T07:34:14Z</time>
      </trkpt>
      <trkpt lat="44.34364" lon="2.05258">
        <ele>242</ele>
        <time>2021-09-02T07:34:24Z</time>
      </trkpt>
      <trkpt lat="44.34433" lon="2.05378">
        <ele>246</ele>
        <time>2021-09-02T07:34:54Z</time>
      </trkpt>
      <trkpt lat="44.3445" lon="2.054">
        <ele>246</ele>
        <time>2021-09-02T07:35:01Z</time>
      </trkpt>
      <trkpt lat="44.34467" lon="2.05413">
        <ele>246</ele>
        <time>2021-09-02T07:35:07Z</time>
      </trkpt>
      <trkpt lat="44.34504" lon="2.0541">
        <ele>246</ele>
        <time>2021-09-02T07:35:19Z</time>
      </trkpt>
      <trkpt lat="44.34514" lon="2.05395">
        <ele>247</ele>
        <time>2021-09-02T07:35:23Z</time>
      </trkpt>
      <trkpt lat="44.3453" lon="2.05339">
        <ele>246</ele>
        <time>2021-09-02T07:35:35Z</time>
      </trkpt>
      <trkpt lat="44.34537" lon="2.05329">
        <ele>246</ele>
        <time>2021-09-02T07:35:37Z</time>
      </trkpt>
      <trkpt lat="44.34545" lon="2.05323">
        <ele>246</ele>
        <time>2021-09-02T07:35:39Z</time>
      </trkpt>
      <trkpt lat="44.34598" lon="2.05303">
        <ele>249</ele>
        <time>2021-09-02T07:35:55Z</time>
      </trkpt>
      <trkpt lat="44.34605" lon="2.05301">
        <ele>251</ele>
        <time>2021-09-02T07:35:57Z</time>
      </trkpt>
      <trkpt lat="44.34624" lon="2.05295">
        <ele>255</ele>
        <time>2021-09-02T07:36:02Z</time>
      </trkpt>
      <trkpt lat="44.34685" lon="2.05277">
        <ele>263</ele>
        <time>2021-09-02T07:36:19Z</time>
      </trkpt>
      <trkpt lat="44.34769" lon="2.05351">
        <ele>268</ele>
        <time>2021-09-02T07:36:50Z</time>
      </trkpt>
      <trkpt lat="44.34811" lon="2.05434">
        <ele>263</ele>
        <time>2021-09-02T07:37:12Z</time>
      </trkpt>
      <trkpt lat="44.34837" lon="2.05492">
        <ele>263</ele>
        <time>2021-09-02T07:37:24Z</time>
      </trkpt>
      <trkpt lat="44.34863" lon="2.05581">
        <ele>262</ele>
        <time>2021-09-02T07:37:41Z</time>
      </trkpt>
      <trkpt lat="44.34901" lon="2.05652">
        <ele>261</ele>
        <time>2021-09-02T07:38:01Z</time>
      </trkpt>
      <trkpt lat="44.34937" lon="2.0571">
        <ele>261</ele>
        <time>2021-09-02T07:38:17Z</time>
      </trkpt>
      <trkpt lat="44.34942" lon="2.05723">
        <ele>261</ele>
        <time>2021-09-02T07:38:21Z</time>
      </trkpt>
      <trkpt lat="44.34951" lon="2.05734">
        <ele>260</ele>
        <time>2021-09-02T07:38:25Z</time>
      </trkpt>
      <trkpt lat="44.34956" lon="2.0574">
        <ele>260</ele>
        <time>2021-09-02T07:38:27Z</time>
      </trkpt>
      <trkpt lat="44.34962" lon="2.05745">
        <ele>259</ele>
        <time>2021-09-02T07:38:29Z</time>
      </trkpt>
      <trkpt lat="44.35052" lon="2.05827">
        <ele>257</ele>
        <time>2021-09-02T07:38:59Z</time>
      </trkpt>
      <trkpt lat="44.35064" lon="2.05844">
        <ele>258</ele>
        <time>2021-09-02T07:39:03Z</time>
      </trkpt>
      <trkpt lat="44.35068" lon="2.05851">
        <ele>258</ele>
        <time>2021-09-02T07:39:05Z</time>
      </trkpt>
      <trkpt lat="44.35072" lon="2.05859">
        <ele>258</ele>
        <time>2021-09-02T07:39:07Z</time>
      </trkpt>
      <trkpt lat="44.35084" lon="2.05884">
        <ele>255</ele>
        <time>2021-09-02T07:39:13Z</time>
      </trkpt>
      <trkpt lat="44.35104" lon="2.05928">
        <ele>256</ele>
        <time>2021-09-02T07:39:22Z</time>
      </trkpt>
      <trkpt lat="44.35119" lon="2.05965">
        <ele>254</ele>
        <time>2021-09-02T07:39:30Z</time>
      </trkpt>
      <trkpt lat="44.35124" lon="2.05983">
        <ele>251</ele>
        <time>2021-09-02T07:39:34Z</time>
      </trkpt>
      <trkpt lat="44.35132" lon="2.06002">
        <ele>248</ele>
        <time>2021-09-02T07:39:38Z</time>
      </trkpt>
      <trkpt lat="44.35135" lon="2.06011">
        <ele>247</ele>
        <time>2021-09-02T07:39:40Z</time>
      </trkpt>
      <trkpt lat="44.35145" lon="2.06048">
        <ele>243</ele>
        <time>2021-09-02T07:39:48Z</time>
      </trkpt>
      <trkpt lat="44.35185" lon="2.06231">
        <ele>243</ele>
        <time>2021-09-02T07:40:19Z</time>
      </trkpt>
      <trkpt lat="44.35204" lon="2.0633">
        <ele>241</ele>
        <time>2021-09-02T07:40:31Z</time>
      </trkpt>
      <trkpt lat="44.35183" lon="2.06506">
        <ele>245</ele>
        <time>2021-09-02T07:40:49Z</time>
      </trkpt>
      <trkpt lat="44.3515" lon="2.0673">
        <ele>254</ele>
        <time>2021-09-02T07:41:20Z</time>
      </trkpt>
      <trkpt lat="44.35148" lon="2.06775">
        <ele>255</ele>
        <time>2021-09-02T07:41:27Z</time>
      </trkpt>
      <trkpt lat="44.35154" lon="2.06819">
        <ele>256</ele>
        <time>2021-09-02T07:41:34Z</time>
      </trkpt>
      <trkpt lat="44.35188" lon="2.06966">
        <ele>268</ele>
        <time>2021-09-02T07:42:05Z</time>
      </trkpt>
      <trkpt lat="44.35201" lon="2.07013">
        <ele>270</ele>
        <time>2021-09-02T07:42:15Z</time>
      </trkpt>
      <trkpt lat="44.35232" lon="2.07073">
        <ele>274</ele>
        <time>2021-09-02T07:42:29Z</time>
      </trkpt>
      <trkpt lat="44.35264" lon="2.07107">
        <ele>277</ele>
        <time>2021-09-02T07:42:39Z</time>
      </trkpt>
      <trkpt lat="44.35299" lon="2.07129">
        <ele>274</ele>
        <time>2021-09-02T07:42:49Z</time>
      </trkpt>
      <trkpt lat="44.35346" lon="2.07146">
        <ele>276</ele>
        <time>2021-09-02T07:43:01Z</time>
      </trkpt>
      <trkpt lat="44.35352" lon="2.07148">
        <ele>275</ele>
        <time>2021-09-02T07:43:03Z</time>
      </trkpt>
      <trkpt lat="44.35357" lon="2.0715">
        <ele>273</ele>
        <time>2021-09-02T07:43:05Z</time>
      </trkpt>
      <trkpt lat="44.3537" lon="2.07157">
        <ele>270</ele>
        <time>2021-09-02T07:43:09Z</time>
      </trkpt>
      <trkpt lat="44.35384" lon="2.07167">
        <ele>261</ele>
        <time>2021-09-02T07:43:14Z</time>
      </trkpt>
      <trkpt lat="44.35399" lon="2.07177">
        <ele>256</ele>
        <time>2021-09-02T07:43:20Z</time>
      </trkpt>
      <trkpt lat="44.35433" lon="2.0719">
        <ele>248</ele>
        <time>2021-09-02T07:43:28Z</time>
      </trkpt>
      <trkpt lat="44.35443" lon="2.07198">
        <ele>246</ele>
        <time>2021-09-02T07:43:31Z</time>
      </trkpt>
      <trkpt lat="44.35462" lon="2.07214">
        <ele>242</ele>
        <time>2021-09-02T07:43:38Z</time>
      </trkpt>
      <trkpt lat="44.35473" lon="2.07219">
        <ele>241</ele>
        <time>2021-09-02T07:43:41Z</time>
      </trkpt>
      <trkpt lat="44.35492" lon="2.07225">
        <ele>243</ele>
        <time>2021-09-02T07:43:45Z</time>
      </trkpt>
      <trkpt lat="44.35502" lon="2.07233">
        <ele>248</ele>
        <time>2021-09-02T07:43:48Z</time>
      </trkpt>
      <trkpt lat="44.35511" lon="2.07239">
        <ele>248</ele>
        <time>2021-09-02T07:43:50Z</time>
      </trkpt>
      <trkpt lat="44.35518" lon="2.07243">
        <ele>245</ele>
        <time>2021-09-02T07:43:52Z</time>
      </trkpt>
      <trkpt lat="44.35526" lon="2.07247">
        <ele>243</ele>
        <time>2021-09-02T07:43:55Z</time>
      </trkpt>
      <trkpt lat="44.35536" lon="2.07253">
        <ele>237</ele>
        <time>2021-09-02T07:43:58Z</time>
      </trkpt>
      <trkpt lat="44.35547" lon="2.07259">
        <ele>234</ele>
        <time>2021-09-02T07:44:01Z</time>
      </trkpt>
      <trkpt lat="44.35578" lon="2.07277">
        <ele>227</ele>
        <time>2021-09-02T07:44:10Z</time>
      </trkpt>
      <trkpt lat="44.35591" lon="2.07282">
        <ele>227</ele>
        <time>2021-09-02T07:44:13Z</time>
      </trkpt>
      <trkpt lat="44.35606" lon="2.07286">
        <ele>231</ele>
        <time>2021-09-02T07:44:16Z</time>
      </trkpt>
      <trkpt lat="44.35626" lon="2.07293">
        <ele>234</ele>
        <time>2021-09-02T07:44:20Z</time>
      </trkpt>
      <trkpt lat="44.35709" lon="2.07297">
        <ele>237</ele>
        <time>2021-09-02T07:44:41Z</time>
      </trkpt>
      <trkpt lat="44.35731" lon="2.07293">
        <ele>235</ele>
        <time>2021-09-02T07:44:47Z</time>
      </trkpt>
      <trkpt lat="44.35784" lon="2.07333">
        <ele>237</ele>
        <time>2021-09-02T07:45:04Z</time>
      </trkpt>
      <trkpt lat="44.35793" lon="2.07344">
        <ele>239</ele>
        <time>2021-09-02T07:45:06Z</time>
      </trkpt>
      <trkpt lat="44.35801" lon="2.07354">
        <ele>241</ele>
        <time>2021-09-02T07:45:08Z</time>
      </trkpt>
      <trkpt lat="44.3581" lon="2.07364">
        <ele>244</ele>
        <time>2021-09-02T07:45:10Z</time>
      </trkpt>
      <trkpt lat="44.35816" lon="2.07374">
        <ele>247</ele>
        <time>2021-09-02T07:45:12Z</time>
      </trkpt>
      <trkpt lat="44.35821" lon="2.07384">
        <ele>248</ele>
        <time>2021-09-02T07:45:14Z</time>
      </trkpt>
      <trkpt lat="44.35826" lon="2.07394">
        <ele>250</ele>
        <time>2021-09-02T07:45:16Z</time>
      </trkpt>
      <trkpt lat="44.35839" lon="2.0742">
        <ele>248</ele>
        <time>2021-09-02T07:45:21Z</time>
      </trkpt>
      <trkpt lat="44.35843" lon="2.07453">
        <ele>250</ele>
        <time>2021-09-02T07:45:27Z</time>
      </trkpt>
      <trkpt lat="44.35838" lon="2.07485">
        <ele>257</ele>
        <time>2021-09-02T07:45:32Z</time>
      </trkpt>
      <trkpt lat="44.35828" lon="2.07518">
        <ele>260</ele>
        <time>2021-09-02T07:45:38Z</time>
      </trkpt>
      <trkpt lat="44.35798" lon="2.0758">
        <ele>265</ele>
        <time>2021-09-02T07:45:51Z</time>
      </trkpt>
      <trkpt lat="44.35793" lon="2.0759">
        <ele>265</ele>
        <time>2021-09-02T07:45:53Z</time>
      </trkpt>
      <trkpt lat="44.35785" lon="2.07609">
        <ele>265</ele>
        <time>2021-09-02T07:45:57Z</time>
      </trkpt>
      <trkpt lat="44.35742" lon="2.07687">
        <ele>269</ele>
        <time>2021-09-02T07:46:15Z</time>
      </trkpt>
      <trkpt lat="44.35736" lon="2.07694">
        <ele>269</ele>
        <time>2021-09-02T07:46:17Z</time>
      </trkpt>
      <trkpt lat="44.3571" lon="2.0773">
        <ele>272</ele>
        <time>2021-09-02T07:46:27Z</time>
      </trkpt>
      <trkpt lat="44.35692" lon="2.07771">
        <ele>276</ele>
        <time>2021-09-02T07:46:35Z</time>
      </trkpt>
      <trkpt lat="44.35686" lon="2.07813">
        <ele>275</ele>
        <time>2021-09-02T07:46:43Z</time>
      </trkpt>
      <trkpt lat="44.35688" lon="2.07833">
        <ele>275</ele>
        <time>2021-09-02T07:46:47Z</time>
      </trkpt>
      <trkpt lat="44.35709" lon="2.07911">
        <ele>275</ele>
        <time>2021-09-02T07:47:03Z</time>
      </trkpt>
      <trkpt lat="44.35726" lon="2.07948">
        <ele>275</ele>
        <time>2021-09-02T07:47:11Z</time>
      </trkpt>
      <trkpt lat="44.35728" lon="2.07956">
        <ele>275</ele>
        <time>2021-09-02T07:47:13Z</time>
      </trkpt>
      <trkpt lat="44.35732" lon="2.07963">
        <ele>276</ele>
        <time>2021-09-02T07:47:15Z</time>
      </trkpt>
      <trkpt lat="44.35752" lon="2.07992">
        <ele>276</ele>
        <time>2021-09-02T07:47:23Z</time>
      </trkpt>
      <trkpt lat="44.35792" lon="2.08029">
        <ele>281</ele>
        <time>2021-09-02T07:47:34Z</time>
      </trkpt>
      <trkpt lat="44.35842" lon="2.0808">
        <ele>290</ele>
        <time>2021-09-02T07:47:49Z</time>
      </trkpt>
      <trkpt lat="44.35847" lon="2.08087">
        <ele>291</ele>
        <time>2021-09-02T07:47:51Z</time>
      </trkpt>
      <trkpt lat="44.35851" lon="2.08094">
        <ele>291</ele>
        <time>2021-09-02T07:47:53Z</time>
      </trkpt>
      <trkpt lat="44.35856" lon="2.08099">
        <ele>293</ele>
        <time>2021-09-02T07:47:55Z</time>
      </trkpt>
      <trkpt lat="44.35866" lon="2.08112">
        <ele>295</ele>
        <time>2021-09-02T07:47:59Z</time>
      </trkpt>
      <trkpt lat="44.35869" lon="2.08118">
        <ele>296</ele>
        <time>2021-09-02T07:48:01Z</time>
      </trkpt>
      <trkpt lat="44.35873" lon="2.08127">
        <ele>296</ele>
        <time>2021-09-02T07:48:04Z</time>
      </trkpt>
      <trkpt lat="44.35883" lon="2.08147">
        <ele>295</ele>
        <time>2021-09-02T07:48:08Z</time>
      </trkpt>
      <trkpt lat="44.35957" lon="2.08223">
        <ele>297</ele>
        <time>2021-09-02T07:48:32Z</time>
      </trkpt>
      <trkpt lat="44.35964" lon="2.08236">
        <ele>298</ele>
        <time>2021-09-02T07:48:36Z</time>
      </trkpt>
      <trkpt lat="44.35978" lon="2.08254">
        <ele>299</ele>
        <time>2021-09-02T07:48:42Z</time>
      </trkpt>
      <trkpt lat="44.35991" lon="2.08268">
        <ele>301</ele>
        <time>2021-09-02T07:48:49Z</time>
      </trkpt>
      <trkpt lat="44.35996" lon="2.08273">
        <ele>302</ele>
        <time>2021-09-02T07:50:17Z</time>
      </trkpt>
      <trkpt lat="44.36011" lon="2.08289">
        <ele>299</ele>
        <time>2021-09-02T07:50:31Z</time>
      </trkpt>
      <trkpt lat="44.36016" lon="2.08291">
        <ele>297</ele>
        <time>2021-09-02T07:50:33Z</time>
      </trkpt>
      <trkpt lat="44.36038" lon="2.08294">
        <ele>289</ele>
        <time>2021-09-02T07:50:43Z</time>
      </trkpt>
      <trkpt lat="44.36048" lon="2.08285">
        <ele>287</ele>
        <time>2021-09-02T07:50:47Z</time>
      </trkpt>
      <trkpt lat="44.36055" lon="2.08277">
        <ele>286</ele>
        <time>2021-09-02T07:50:50Z</time>
      </trkpt>
      <trkpt lat="44.36106" lon="2.08204">
        <ele>279</ele>
        <time>2021-09-02T07:51:12Z</time>
      </trkpt>
      <trkpt lat="44.36119" lon="2.0819">
        <ele>278</ele>
        <time>2021-09-02T07:51:16Z</time>
      </trkpt>
      <trkpt lat="44.36135" lon="2.08182">
        <ele>278</ele>
        <time>2021-09-02T07:51:20Z</time>
      </trkpt>
      <trkpt lat="44.36158" lon="2.08176">
        <ele>279</ele>
        <time>2021-09-02T07:51:26Z</time>
      </trkpt>
      <trkpt lat="44.36179" lon="2.08177">
        <ele>280</ele>
        <time>2021-09-02T07:51:31Z</time>
      </trkpt>
      <trkpt lat="44.36197" lon="2.08182">
        <ele>280</ele>
        <time>2021-09-02T07:51:37Z</time>
      </trkpt>
      <trkpt lat="44.36221" lon="2.08201">
        <ele>283</ele>
        <time>2021-09-02T07:51:44Z</time>
      </trkpt>
      <trkpt lat="44.36238" lon="2.08226">
        <ele>287</ele>
        <time>2021-09-02T07:51:50Z</time>
      </trkpt>
      <trkpt lat="44.36247" lon="2.08247">
        <ele>290</ele>
        <time>2021-09-02T07:51:54Z</time>
      </trkpt>
      <trkpt lat="44.36252" lon="2.08269">
        <ele>292</ele>
        <time>2021-09-02T07:51:58Z</time>
      </trkpt>
      <trkpt lat="44.36262" lon="2.08295">
        <ele>291</ele>
        <time>2021-09-02T07:52:02Z</time>
      </trkpt>
      <trkpt lat="44.36286" lon="2.08435">
        <ele>289</ele>
        <time>2021-09-02T07:52:24Z</time>
      </trkpt>
      <trkpt lat="44.36278" lon="2.08659">
        <ele>294</ele>
        <time>2021-09-02T07:52:55Z</time>
      </trkpt>
      <trkpt lat="44.36279" lon="2.08738">
        <ele>296</ele>
        <time>2021-09-02T07:53:06Z</time>
      </trkpt>
      <trkpt lat="44.36283" lon="2.08754">
        <ele>295</ele>
        <time>2021-09-02T07:53:09Z</time>
      </trkpt>
      <trkpt lat="44.36286" lon="2.08772">
        <ele>295</ele>
        <time>2021-09-02T07:53:12Z</time>
      </trkpt>
      <trkpt lat="44.36292" lon="2.08799">
        <ele>295</ele>
        <time>2021-09-02T07:53:16Z</time>
      </trkpt>
      <trkpt lat="44.36294" lon="2.08811">
        <ele>295</ele>
        <time>2021-09-02T07:53:18Z</time>
      </trkpt>
      <trkpt lat="44.3634" lon="2.0893">
        <ele>294</ele>
        <time>2021-09-02T07:53:39Z</time>
      </trkpt>
      <trkpt lat="44.36348" lon="2.08948">
        <ele>293</ele>
        <time>2021-09-02T07:53:42Z</time>
      </trkpt>
      <trkpt lat="44.36376" lon="2.09073">
        <ele>290</ele>
        <time>2021-09-02T07:54:02Z</time>
      </trkpt>
      <trkpt lat="44.36378" lon="2.09098">
        <ele>291</ele>
        <time>2021-09-02T07:54:06Z</time>
      </trkpt>
      <trkpt lat="44.36377" lon="2.09123">
        <ele>292</ele>
        <time>2021-09-02T07:54:10Z</time>
      </trkpt>
      <trkpt lat="44.36368" lon="2.09154">
        <ele>293</ele>
        <time>2021-09-02T07:54:15Z</time>
      </trkpt>
      <trkpt lat="44.36357" lon="2.09181">
        <ele>293</ele>
        <time>2021-09-02T07:54:20Z</time>
      </trkpt>
      <trkpt lat="44.36339" lon="2.09258">
        <ele>289</ele>
        <time>2021-09-02T07:54:33Z</time>
      </trkpt>
      <trkpt lat="44.36332" lon="2.09281">
        <ele>288</ele>
        <time>2021-09-02T07:54:37Z</time>
      </trkpt>
      <trkpt lat="44.36251" lon="2.09445">
        <ele>284</ele>
        <time>2021-09-02T07:55:09Z</time>
      </trkpt>
      <trkpt lat="44.36241" lon="2.09466">
        <ele>285</ele>
        <time>2021-09-02T07:55:13Z</time>
      </trkpt>
      <trkpt lat="44.36239" lon="2.09478">
        <ele>285</ele>
        <time>2021-09-02T07:55:15Z</time>
      </trkpt>
      <trkpt lat="44.36236" lon="2.09495">
        <ele>286</ele>
        <time>2021-09-02T07:55:19Z</time>
      </trkpt>
      <trkpt lat="44.36238" lon="2.09485">
        <ele>287</ele>
        <time>2021-09-02T07:56:02Z</time>
      </trkpt>
      <trkpt lat="44.36243" lon="2.09455">
        <ele>287</ele>
        <time>2021-09-02T07:56:08Z</time>
      </trkpt>
      <trkpt lat="44.36244" lon="2.09456">
        <ele>289</ele>
        <time>2021-09-02T07:56:15Z</time>
      </trkpt>
      <trkpt lat="44.36241" lon="2.09473">
        <ele>290</ele>
        <time>2021-09-02T07:56:19Z</time>
      </trkpt>
      <trkpt lat="44.3624" lon="2.09487">
        <ele>294</ele>
        <time>2021-09-02T07:56:23Z</time>
      </trkpt>
      <trkpt lat="44.36239" lon="2.09495">
        <ele>294</ele>
        <time>2021-09-02T07:56:25Z</time>
      </trkpt>
      <trkpt lat="44.36246" lon="2.09524">
        <ele>295</ele>
        <time>2021-09-02T07:56:34Z</time>
      </trkpt>
      <trkpt lat="44.36264" lon="2.09577">
        <ele>297</ele>
        <time>2021-09-02T07:56:46Z</time>
      </trkpt>
      <trkpt lat="44.36267" lon="2.09585">
        <ele>298</ele>
        <time>2021-09-02T07:56:48Z</time>
      </trkpt>
      <trkpt lat="44.3629" lon="2.09611">
        <ele>304</ele>
        <time>2021-09-02T07:56:56Z</time>
      </trkpt>
      <trkpt lat="44.36312" lon="2.09634">
        <ele>303</ele>
        <time>2021-09-02T07:57:03Z</time>
      </trkpt>
      <trkpt lat="44.36323" lon="2.09651">
        <ele>299</ele>
        <time>2021-09-02T07:57:07Z</time>
      </trkpt>
      <trkpt lat="44.36343" lon="2.09696">
        <ele>298</ele>
        <time>2021-09-02T07:57:17Z</time>
      </trkpt>
      <trkpt lat="44.36349" lon="2.09715">
        <ele>298</ele>
        <time>2021-09-02T07:57:21Z</time>
      </trkpt>
      <trkpt lat="44.36352" lon="2.09724">
        <ele>298</ele>
        <time>2021-09-02T07:57:23Z</time>
      </trkpt>
      <trkpt lat="44.3637" lon="2.09761">
        <ele>297</ele>
        <time>2021-09-02T07:57:31Z</time>
      </trkpt>
      <trkpt lat="44.36372" lon="2.0977">
        <ele>297</ele>
        <time>2021-09-02T07:57:33Z</time>
      </trkpt>
      <trkpt lat="44.36378" lon="2.09778">
        <ele>297</ele>
        <time>2021-09-02T07:57:35Z</time>
      </trkpt>
      <trkpt lat="44.36382" lon="2.09788">
        <ele>297</ele>
        <time>2021-09-02T07:57:37Z</time>
      </trkpt>
      <trkpt lat="44.36394" lon="2.09813">
        <ele>296</ele>
        <time>2021-09-02T07:57:42Z</time>
      </trkpt>
      <trkpt lat="44.36397" lon="2.09832">
        <ele>295</ele>
        <time>2021-09-02T07:57:46Z</time>
      </trkpt>
      <trkpt lat="44.36405" lon="2.09848">
        <ele>295</ele>
        <time>2021-09-02T07:57:49Z</time>
      </trkpt>
      <trkpt lat="44.36415" lon="2.09864">
        <ele>294</ele>
        <time>2021-09-02T07:57:52Z</time>
      </trkpt>
      <trkpt lat="44.3644" lon="2.09921">
        <ele>292</ele>
        <time>2021-09-02T07:58:03Z</time>
      </trkpt>
      <trkpt lat="44.36485" lon="2.10079">
        <ele>291</ele>
        <time>2021-09-02T07:58:33Z</time>
      </trkpt>
      <trkpt lat="44.36494" lon="2.10127">
        <ele>292</ele>
        <time>2021-09-02T07:58:42Z</time>
      </trkpt>
      <trkpt lat="44.36493" lon="2.10168">
        <ele>294</ele>
        <time>2021-09-02T07:58:48Z</time>
      </trkpt>
      <trkpt lat="44.36491" lon="2.10188">
        <ele>295</ele>
        <time>2021-09-02T07:58:51Z</time>
      </trkpt>
      <trkpt lat="44.36474" lon="2.10239">
        <ele>292</ele>
        <time>2021-09-02T07:59:00Z</time>
      </trkpt>
      <trkpt lat="44.36455" lon="2.10274">
        <ele>288</ele>
        <time>2021-09-02T07:59:08Z</time>
      </trkpt>
      <trkpt lat="44.36441" lon="2.1029">
        <ele>288</ele>
        <time>2021-09-02T07:59:13Z</time>
      </trkpt>
      <trkpt lat="44.36425" lon="2.10299">
        <ele>288</ele>
        <time>2021-09-02T07:59:17Z</time>
      </trkpt>
      <trkpt lat="44.36403" lon="2.10302">
        <ele>288</ele>
        <time>2021-09-02T07:59:22Z</time>
      </trkpt>
      <trkpt lat="44.36334" lon="2.1029">
        <ele>294</ele>
        <time>2021-09-02T07:59:39Z</time>
      </trkpt>
      <trkpt lat="44.36285" lon="2.10274">
        <ele>296</ele>
        <time>2021-09-02T07:59:50Z</time>
      </trkpt>
      <trkpt lat="44.36167" lon="2.10261">
        <ele>299</ele>
        <time>2021-09-02T08:00:21Z</time>
      </trkpt>
      <trkpt lat="44.36132" lon="2.10255">
        <ele>305</ele>
        <time>2021-09-02T08:00:29Z</time>
      </trkpt>
      <trkpt lat="44.36069" lon="2.10269">
        <ele>305</ele>
        <time>2021-09-02T08:00:45Z</time>
      </trkpt>
      <trkpt lat="44.3603" lon="2.10292">
        <ele>308</ele>
        <time>2021-09-02T08:00:55Z</time>
      </trkpt>
      <trkpt lat="44.36016" lon="2.10314">
        <ele>310</ele>
        <time>2021-09-02T08:00:59Z</time>
      </trkpt>
      <trkpt lat="44.35968" lon="2.10425">
        <ele>314</ele>
        <time>2021-09-02T08:01:18Z</time>
      </trkpt>
      <trkpt lat="44.35947" lon="2.10449">
        <ele>312</ele>
        <time>2021-09-02T08:01:24Z</time>
      </trkpt>
      <trkpt lat="44.35936" lon="2.10459">
        <ele>312</ele>
        <time>2021-09-02T08:01:27Z</time>
      </trkpt>
      <trkpt lat="44.35918" lon="2.10488">
        <ele>314</ele>
        <time>2021-09-02T08:01:33Z</time>
      </trkpt>
      <trkpt lat="44.35902" lon="2.10528">
        <ele>319</ele>
        <time>2021-09-02T08:01:40Z</time>
      </trkpt>
      <trkpt lat="44.35899" lon="2.10541">
        <ele>320</ele>
        <time>2021-09-02T08:01:42Z</time>
      </trkpt>
      <trkpt lat="44.359" lon="2.1058">
        <ele>319</ele>
        <time>2021-09-02T08:01:48Z</time>
      </trkpt>
      <trkpt lat="44.35908" lon="2.10612">
        <ele>313</ele>
        <time>2021-09-02T08:01:53Z</time>
      </trkpt>
      <trkpt lat="44.35938" lon="2.10669">
        <ele>311</ele>
        <time>2021-09-02T08:02:04Z</time>
      </trkpt>
      <trkpt lat="44.35951" lon="2.10683">
        <ele>312</ele>
        <time>2021-09-02T08:02:08Z</time>
      </trkpt>
      <trkpt lat="44.36036" lon="2.10749">
        <ele>311</ele>
        <time>2021-09-02T08:02:30Z</time>
      </trkpt>
      <trkpt lat="44.36054" lon="2.10771">
        <ele>309</ele>
        <time>2021-09-02T08:02:36Z</time>
      </trkpt>
      <trkpt lat="44.36096" lon="2.1079">
        <ele>308</ele>
        <time>2021-09-02T08:02:46Z</time>
      </trkpt>
      <trkpt lat="44.36141" lon="2.10806">
        <ele>307</ele>
        <time>2021-09-02T08:02:56Z</time>
      </trkpt>
      <trkpt lat="44.36181" lon="2.10837">
        <ele>308</ele>
        <time>2021-09-02T08:03:06Z</time>
      </trkpt>
      <trkpt lat="44.36233" lon="2.10913">
        <ele>310</ele>
        <time>2021-09-02T08:03:23Z</time>
      </trkpt>
      <trkpt lat="44.36238" lon="2.10921">
        <ele>310</ele>
        <time>2021-09-02T08:03:25Z</time>
      </trkpt>
      <trkpt lat="44.36272" lon="2.10977">
        <ele>306</ele>
        <time>2021-09-02T08:03:37Z</time>
      </trkpt>
      <trkpt lat="44.36284" lon="2.10991">
        <ele>301</ele>
        <time>2021-09-02T08:03:41Z</time>
      </trkpt>
      <trkpt lat="44.36288" lon="2.10998">
        <ele>301</ele>
        <time>2021-09-02T08:03:43Z</time>
      </trkpt>
      <trkpt lat="44.36295" lon="2.11014">
        <ele>301</ele>
        <time>2021-09-02T08:03:47Z</time>
      </trkpt>
      <trkpt lat="44.363" lon="2.11031">
        <ele>302</ele>
        <time>2021-09-02T08:03:50Z</time>
      </trkpt>
      <trkpt lat="44.36306" lon="2.11051">
        <ele>304</ele>
        <time>2021-09-02T08:03:53Z</time>
      </trkpt>
      <trkpt lat="44.36319" lon="2.11094">
        <ele>305</ele>
        <time>2021-09-02T08:04:01Z</time>
      </trkpt>
      <trkpt lat="44.36322" lon="2.11102">
        <ele>306</ele>
        <time>2021-09-02T08:04:03Z</time>
      </trkpt>
      <trkpt lat="44.36323" lon="2.11128">
        <ele>306</ele>
        <time>2021-09-02T08:04:07Z</time>
      </trkpt>
      <trkpt lat="44.36317" lon="2.11174">
        <ele>310</ele>
        <time>2021-09-02T08:04:14Z</time>
      </trkpt>
      <trkpt lat="44.36296" lon="2.11228">
        <ele>309</ele>
        <time>2021-09-02T08:04:24Z</time>
      </trkpt>
      <trkpt lat="44.36281" lon="2.1125">
        <ele>309</ele>
        <time>2021-09-02T08:04:30Z</time>
      </trkpt>
      <trkpt lat="44.36263" lon="2.11266">
        <ele>308</ele>
        <time>2021-09-02T08:04:36Z</time>
      </trkpt>
      <trkpt lat="44.36236" lon="2.11286">
        <ele>304</ele>
        <time>2021-09-02T08:04:44Z</time>
      </trkpt>
      <trkpt lat="44.36214" lon="2.11297">
        <ele>305</ele>
        <time>2021-09-02T08:04:50Z</time>
      </trkpt>
      <trkpt lat="44.36208" lon="2.113">
        <ele>305</ele>
        <time>2021-09-02T08:04:52Z</time>
      </trkpt>
      <trkpt lat="44.36198" lon="2.11315">
        <ele>305</ele>
        <time>2021-09-02T08:04:56Z</time>
      </trkpt>
      <trkpt lat="44.36193" lon="2.11324">
        <ele>307</ele>
        <time>2021-09-02T08:04:58Z</time>
      </trkpt>
      <trkpt lat="44.36189" lon="2.11333">
        <ele>308</ele>
        <time>2021-09-02T08:05:00Z</time>
      </trkpt>
      <trkpt lat="44.36187" lon="2.11353">
        <ele>313</ele>
        <time>2021-09-02T08:05:04Z</time>
      </trkpt>
      <trkpt lat="44.36191" lon="2.1137">
        <ele>314</ele>
        <time>2021-09-02T08:05:08Z</time>
      </trkpt>
      <trkpt lat="44.36193" lon="2.11376">
        <ele>316</ele>
        <time>2021-09-02T08:05:10Z</time>
      </trkpt>
      <trkpt lat="44.3622" lon="2.11416">
        <ele>320</ele>
        <time>2021-09-02T08:05:20Z</time>
      </trkpt>
      <trkpt lat="44.36222" lon="2.11427">
        <ele>319</ele>
        <time>2021-09-02T08:05:22Z</time>
      </trkpt>
      <trkpt lat="44.36223" lon="2.11438">
        <ele>318</ele>
        <time>2021-09-02T08:05:24Z</time>
      </trkpt>
      <trkpt lat="44.36173" lon="2.11531">
        <ele>324</ele>
        <time>2021-09-02T08:05:48Z</time>
      </trkpt>
      <trkpt lat="44.36169" lon="2.11537">
        <ele>323</ele>
        <time>2021-09-02T08:05:50Z</time>
      </trkpt>
      <trkpt lat="44.36166" lon="2.11544">
        <ele>323</ele>
        <time>2021-09-02T08:05:52Z</time>
      </trkpt>
      <trkpt lat="44.36164" lon="2.11551">
        <ele>323</ele>
        <time>2021-09-02T08:05:54Z</time>
      </trkpt>
      <trkpt lat="44.36135" lon="2.11601">
        <ele>325</ele>
        <time>2021-09-02T08:06:13Z</time>
      </trkpt>
      <trkpt lat="44.3609" lon="2.11689">
        <ele>335</ele>
        <time>2021-09-02T08:06:45Z</time>
      </trkpt>
      <trkpt lat="44.36056" lon="2.11774">
        <ele>337</ele>
        <time>2021-09-02T08:07:15Z</time>
      </trkpt>
      <trkpt lat="44.36046" lon="2.11803">
        <ele>338</ele>
        <time>2021-09-02T08:07:25Z</time>
      </trkpt>
      <trkpt lat="44.36045" lon="2.11816">
        <ele>338</ele>
        <time>2021-09-02T08:07:29Z</time>
      </trkpt>
      <trkpt lat="44.36043" lon="2.11823">
        <ele>338</ele>
        <time>2021-09-02T08:07:31Z</time>
      </trkpt>
      <trkpt lat="44.36041" lon="2.11858">
        <ele>341</ele>
        <time>2021-09-02T08:07:41Z</time>
      </trkpt>
      <trkpt lat="44.36031" lon="2.11882">
        <ele>344</ele>
        <time>2021-09-02T08:07:49Z</time>
      </trkpt>
      <trkpt lat="44.36005" lon="2.1192">
        <ele>347</ele>
        <time>2021-09-02T08:08:04Z</time>
      </trkpt>
      <trkpt lat="44.35997" lon="2.11923">
        <ele>348</ele>
        <time>2021-09-02T08:08:08Z</time>
      </trkpt>
      <trkpt lat="44.35974" lon="2.11933">
        <ele>351</ele>
        <time>2021-09-02T08:08:17Z</time>
      </trkpt>
      <trkpt lat="44.35953" lon="2.11945">
        <ele>350</ele>
        <time>2021-09-02T08:08:27Z</time>
      </trkpt>
      <trkpt lat="44.35913" lon="2.11988">
        <ele>351</ele>
        <time>2021-09-02T08:08:48Z</time>
      </trkpt>
      <trkpt lat="44.35867" lon="2.12068">
        <ele>361</ele>
        <time>2021-09-02T08:09:20Z</time>
      </trkpt>
      <trkpt lat="44.3586" lon="2.12081">
        <ele>363</ele>
        <time>2021-09-02T08:09:25Z</time>
      </trkpt>
      <trkpt lat="44.35857" lon="2.12096">
        <ele>367</ele>
        <time>2021-09-02T08:09:30Z</time>
      </trkpt>
      <trkpt lat="44.35852" lon="2.12111">
        <ele>370</ele>
        <time>2021-09-02T08:09:34Z</time>
      </trkpt>
      <trkpt lat="44.35853" lon="2.1212">
        <ele>371</ele>
        <time>2021-09-02T08:09:36Z</time>
      </trkpt>
      <trkpt lat="44.35851" lon="2.12127">
        <ele>373</ele>
        <time>2021-09-02T08:09:38Z</time>
      </trkpt>
      <trkpt lat="44.35851" lon="2.12134">
        <ele>373</ele>
        <time>2021-09-02T08:09:40Z</time>
      </trkpt>
      <trkpt lat="44.35848" lon="2.12142">
        <ele>374</ele>
        <time>2021-09-02T08:09:42Z</time>
      </trkpt>
      <trkpt lat="44.35843" lon="2.12158">
        <ele>375</ele>
        <time>2021-09-02T08:09:47Z</time>
      </trkpt>
      <trkpt lat="44.35848" lon="2.12189">
        <ele>379</ele>
        <time>2021-09-02T08:09:56Z</time>
      </trkpt>
      <trkpt lat="44.35845" lon="2.12195">
        <ele>380</ele>
        <time>2021-09-02T08:09:58Z</time>
      </trkpt>
      <trkpt lat="44.35835" lon="2.12225">
        <ele>381</ele>
        <time>2021-09-02T08:10:08Z</time>
      </trkpt>
      <trkpt lat="44.35821" lon="2.12261">
        <ele>382</ele>
        <time>2021-09-02T08:10:21Z</time>
      </trkpt>
      <trkpt lat="44.35767" lon="2.12337">
        <ele>381</ele>
        <time>2021-09-02T08:10:53Z</time>
      </trkpt>
      <trkpt lat="44.35749" lon="2.12354">
        <ele>383</ele>
        <time>2021-09-02T08:11:01Z</time>
      </trkpt>
      <trkpt lat="44.35744" lon="2.1236">
        <ele>382</ele>
        <time>2021-09-02T08:11:04Z</time>
      </trkpt>
      <trkpt lat="44.35727" lon="2.12364">
        <ele>380</ele>
        <time>2021-09-02T08:11:10Z</time>
      </trkpt>
      <trkpt lat="44.3571" lon="2.12362">
        <ele>379</ele>
        <time>2021-09-02T08:11:16Z</time>
      </trkpt>
      <trkpt lat="44.3569" lon="2.12352">
        <ele>378</ele>
        <time>2021-09-02T08:11:22Z</time>
      </trkpt>
      <trkpt lat="44.35677" lon="2.12336">
        <ele>376</ele>
        <time>2021-09-02T08:11:28Z</time>
      </trkpt>
      <trkpt lat="44.35666" lon="2.12308">
        <ele>373</ele>
        <time>2021-09-02T08:11:36Z</time>
      </trkpt>
      <trkpt lat="44.35655" lon="2.12277">
        <ele>369</ele>
        <time>2021-09-02T08:11:45Z</time>
      </trkpt>
      <trkpt lat="44.3565" lon="2.12271">
        <ele>369</ele>
        <time>2021-09-02T08:11:47Z</time>
      </trkpt>
      <trkpt lat="44.35645" lon="2.12265">
        <ele>369</ele>
        <time>2021-09-02T08:11:49Z</time>
      </trkpt>
      <trkpt lat="44.35636" lon="2.12258">
        <ele>369</ele>
        <time>2021-09-02T08:11:52Z</time>
      </trkpt>
      <trkpt lat="44.35614" lon="2.12253">
        <ele>372</ele>
        <time>2021-09-02T08:12:00Z</time>
      </trkpt>
      <trkpt lat="44.35594" lon="2.12258">
        <ele>378</ele>
        <time>2021-09-02T08:12:08Z</time>
      </trkpt>
      <trkpt lat="44.35576" lon="2.12268">
        <ele>379</ele>
        <time>2021-09-02T08:12:16Z</time>
      </trkpt>
      <trkpt lat="44.35563" lon="2.1228">
        <ele>379</ele>
        <time>2021-09-02T08:12:22Z</time>
      </trkpt>
      <trkpt lat="44.35556" lon="2.1229">
        <ele>380</ele>
        <time>2021-09-02T08:12:26Z</time>
      </trkpt>
      <trkpt lat="44.35552" lon="2.12301">
        <ele>382</ele>
        <time>2021-09-02T08:12:30Z</time>
      </trkpt>
      <trkpt lat="44.35542" lon="2.12398">
        <ele>391</ele>
        <time>2021-09-02T08:12:56Z</time>
      </trkpt>
      <trkpt lat="44.35541" lon="2.12428">
        <ele>394</ele>
        <time>2021-09-02T08:13:04Z</time>
      </trkpt>
      <trkpt lat="44.35539" lon="2.12435">
        <ele>395</ele>
        <time>2021-09-02T08:13:07Z</time>
      </trkpt>
      <trkpt lat="44.35531" lon="2.12471">
        <ele>399</ele>
        <time>2021-09-02T08:13:18Z</time>
      </trkpt>
      <trkpt lat="44.35528" lon="2.12478">
        <ele>399</ele>
        <time>2021-09-02T08:13:20Z</time>
      </trkpt>
      <trkpt lat="44.35497" lon="2.125">
        <ele>401</ele>
        <time>2021-09-02T08:13:33Z</time>
      </trkpt>
      <trkpt lat="44.3544" lon="2.12575">
        <ele>404</ele>
        <time>2021-09-02T08:14:05Z</time>
      </trkpt>
      <trkpt lat="44.35415" lon="2.12596">
        <ele>395</ele>
        <time>2021-09-02T08:14:17Z</time>
      </trkpt>
      <trkpt lat="44.35406" lon="2.12602">
        <ele>393</ele>
        <time>2021-09-02T08:14:21Z</time>
      </trkpt>
      <trkpt lat="44.35358" lon="2.12608">
        <ele>392</ele>
        <time>2021-09-02T08:14:40Z</time>
      </trkpt>
      <trkpt lat="44.35343" lon="2.12617">
        <ele>393</ele>
        <time>2021-09-02T08:14:47Z</time>
      </trkpt>
      <trkpt lat="44.3533" lon="2.12634">
        <ele>393</ele>
        <time>2021-09-02T08:14:54Z</time>
      </trkpt>
      <trkpt lat="44.35309" lon="2.12679">
        <ele>393</ele>
        <time>2021-09-02T08:15:10Z</time>
      </trkpt>
      <trkpt lat="44.35301" lon="2.12688">
        <ele>392</ele>
        <time>2021-09-02T08:15:14Z</time>
      </trkpt>
      <trkpt lat="44.35291" lon="2.12692">
        <ele>393</ele>
        <time>2021-09-02T08:15:18Z</time>
      </trkpt>
      <trkpt lat="44.35281" lon="2.1269">
        <ele>393</ele>
        <time>2021-09-02T08:15:22Z</time>
      </trkpt>
      <trkpt lat="44.35275" lon="2.12685">
        <ele>393</ele>
        <time>2021-09-02T08:15:25Z</time>
      </trkpt>
      <trkpt lat="44.35268" lon="2.12675">
        <ele>391</ele>
        <time>2021-09-02T08:15:29Z</time>
      </trkpt>
      <trkpt lat="44.35258" lon="2.12656">
        <ele>390</ele>
        <time>2021-09-02T08:15:35Z</time>
      </trkpt>
      <trkpt lat="44.35256" lon="2.1265">
        <ele>390</ele>
        <time>2021-09-02T08:15:37Z</time>
      </trkpt>
      <trkpt lat="44.35255" lon="2.12644">
        <ele>388</ele>
        <time>2021-09-02T08:15:39Z</time>
      </trkpt>
      <trkpt lat="44.35254" lon="2.12631">
        <ele>384</ele>
        <time>2021-09-02T08:15:43Z</time>
      </trkpt>
      <trkpt lat="44.35265" lon="2.12569">
        <ele>390</ele>
        <time>2021-09-02T08:15:59Z</time>
      </trkpt>
      <trkpt lat="44.35286" lon="2.12515">
        <ele>395</ele>
        <time>2021-09-02T08:16:16Z</time>
      </trkpt>
      <trkpt lat="44.35289" lon="2.125">
        <ele>397</ele>
        <time>2021-09-02T08:16:20Z</time>
      </trkpt>
      <trkpt lat="44.35289" lon="2.12492">
        <ele>397</ele>
        <time>2021-09-02T08:16:22Z</time>
      </trkpt>
      <trkpt lat="44.35289" lon="2.12484">
        <ele>398</ele>
        <time>2021-09-02T08:16:24Z</time>
      </trkpt>
      <trkpt lat="44.35288" lon="2.12477">
        <ele>398</ele>
        <time>2021-09-02T08:16:26Z</time>
      </trkpt>
      <trkpt lat="44.35285" lon="2.12471">
        <ele>397</ele>
        <time>2021-09-02T08:16:28Z</time>
      </trkpt>
      <trkpt lat="44.35276" lon="2.12463">
        <ele>396</ele>
        <time>2021-09-02T08:16:32Z</time>
      </trkpt>
      <trkpt lat="44.35271" lon="2.12461">
        <ele>396</ele>
        <time>2021-09-02T08:16:34Z</time>
      </trkpt>
      <trkpt lat="44.35255" lon="2.12464">
        <ele>396</ele>
        <time>2021-09-02T08:16:40Z</time>
      </trkpt>
      <trkpt lat="44.35244" lon="2.12473">
        <ele>396</ele>
        <time>2021-09-02T08:16:44Z</time>
      </trkpt>
      <trkpt lat="44.35235" lon="2.12488">
        <ele>398</ele>
        <time>2021-09-02T08:16:48Z</time>
      </trkpt>
      <trkpt lat="44.35218" lon="2.12516">
        <ele>405</ele>
        <time>2021-09-02T08:16:56Z</time>
      </trkpt>
      <trkpt lat="44.35188" lon="2.1256">
        <ele>407</ele>
        <time>2021-09-02T08:17:10Z</time>
      </trkpt>
      <trkpt lat="44.35114" lon="2.12636">
        <ele>411</ele>
        <time>2021-09-02T08:17:42Z</time>
      </trkpt>
      <trkpt lat="44.35037" lon="2.12711">
        <ele>415</ele>
        <time>2021-09-02T08:18:14Z</time>
      </trkpt>
      <trkpt lat="44.35028" lon="2.12721">
        <ele>416</ele>
        <time>2021-09-02T08:18:18Z</time>
      </trkpt>
      <trkpt lat="44.35017" lon="2.12729">
        <ele>417</ele>
        <time>2021-09-02T08:18:22Z</time>
      </trkpt>
      <trkpt lat="44.35011" lon="2.1273">
        <ele>417</ele>
        <time>2021-09-02T08:18:24Z</time>
      </trkpt>
      <trkpt lat="44.34999" lon="2.12725">
        <ele>418</ele>
        <time>2021-09-02T08:18:28Z</time>
      </trkpt>
      <trkpt lat="44.34957" lon="2.12681">
        <ele>414</ele>
        <time>2021-09-02T08:18:46Z</time>
      </trkpt>
      <trkpt lat="44.34947" lon="2.12675">
        <ele>412</ele>
        <time>2021-09-02T08:18:50Z</time>
      </trkpt>
      <trkpt lat="44.34935" lon="2.12673">
        <ele>411</ele>
        <time>2021-09-02T08:18:54Z</time>
      </trkpt>
      <trkpt lat="44.34838" lon="2.12728">
        <ele>414</ele>
        <time>2021-09-02T08:19:26Z</time>
      </trkpt>
      <trkpt lat="44.34801" lon="2.12757">
        <ele>416</ele>
        <time>2021-09-02T08:19:38Z</time>
      </trkpt>
      <trkpt lat="44.34784" lon="2.12778">
        <ele>418</ele>
        <time>2021-09-02T08:19:44Z</time>
      </trkpt>
      <trkpt lat="44.34724" lon="2.12919">
        <ele>420</ele>
        <time>2021-09-02T08:20:16Z</time>
      </trkpt>
      <trkpt lat="44.34702" lon="2.1297">
        <ele>421</ele>
        <time>2021-09-02T08:20:26Z</time>
      </trkpt>
      <trkpt lat="44.34606" lon="2.131">
        <ele>415</ele>
        <time>2021-09-02T08:20:57Z</time>
      </trkpt>
      <trkpt lat="44.34568" lon="2.13143">
        <ele>416</ele>
        <time>2021-09-02T08:21:11Z</time>
      </trkpt>
      <trkpt lat="44.34555" lon="2.13152">
        <ele>417</ele>
        <time>2021-09-02T08:21:15Z</time>
      </trkpt>
      <trkpt lat="44.34544" lon="2.13154">
        <ele>418</ele>
        <time>2021-09-02T08:21:19Z</time>
      </trkpt>
      <trkpt lat="44.34539" lon="2.13154">
        <ele>418</ele>
        <time>2021-09-02T08:21:21Z</time>
      </trkpt>
      <trkpt lat="44.34533" lon="2.13152">
        <ele>418</ele>
        <time>2021-09-02T08:21:23Z</time>
      </trkpt>
      <trkpt lat="44.34524" lon="2.13142">
        <ele>418</ele>
        <time>2021-09-02T08:21:27Z</time>
      </trkpt>
      <trkpt lat="44.34517" lon="2.13127">
        <ele>417</ele>
        <time>2021-09-02T08:21:31Z</time>
      </trkpt>
      <trkpt lat="44.34517" lon="2.13118">
        <ele>417</ele>
        <time>2021-09-02T08:21:33Z</time>
      </trkpt>
      <trkpt lat="44.34519" lon="2.13082">
        <ele>418</ele>
        <time>2021-09-02T08:21:41Z</time>
      </trkpt>
      <trkpt lat="44.34531" lon="2.1303">
        <ele>422</ele>
        <time>2021-09-02T08:21:55Z</time>
      </trkpt>
      <trkpt lat="44.34534" lon="2.13014">
        <ele>424</ele>
        <time>2021-09-02T08:21:59Z</time>
      </trkpt>
      <trkpt lat="44.34536" lon="2.12991">
        <ele>426</ele>
        <time>2021-09-02T08:22:05Z</time>
      </trkpt>
      <trkpt lat="44.34536" lon="2.12983">
        <ele>427</ele>
        <time>2021-09-02T08:22:07Z</time>
      </trkpt>
      <trkpt lat="44.34534" lon="2.12976">
        <ele>427</ele>
        <time>2021-09-02T08:22:09Z</time>
      </trkpt>
      <trkpt lat="44.34522" lon="2.12965">
        <ele>430</ele>
        <time>2021-09-02T08:22:13Z</time>
      </trkpt>
      <trkpt lat="44.34471" lon="2.12937">
        <ele>434</ele>
        <time>2021-09-02T08:22:31Z</time>
      </trkpt>
      <trkpt lat="44.3446" lon="2.12935">
        <ele>435</ele>
        <time>2021-09-02T08:22:35Z</time>
      </trkpt>
      <trkpt lat="44.3445" lon="2.12937">
        <ele>436</ele>
        <time>2021-09-02T08:22:39Z</time>
      </trkpt>
      <trkpt lat="44.34426" lon="2.1295">
        <ele>437</ele>
        <time>2021-09-02T08:22:47Z</time>
      </trkpt>
      <trkpt lat="44.34356" lon="2.13012">
        <ele>444</ele>
        <time>2021-09-02T08:23:17Z</time>
      </trkpt>
      <trkpt lat="44.34309" lon="2.1309">
        <ele>449</ele>
        <time>2021-09-02T08:23:47Z</time>
      </trkpt>
      <trkpt lat="44.34263" lon="2.13171">
        <ele>454</ele>
        <time>2021-09-02T08:24:17Z</time>
      </trkpt>
      <trkpt lat="44.3424" lon="2.13218">
        <ele>458</ele>
        <time>2021-09-02T08:24:35Z</time>
      </trkpt>
      <trkpt lat="44.34231" lon="2.13249">
        <ele>460</ele>
        <time>2021-09-02T08:24:47Z</time>
      </trkpt>
      <trkpt lat="44.34229" lon="2.13264">
        <ele>461</ele>
        <time>2021-09-02T08:24:52Z</time>
      </trkpt>
      <trkpt lat="44.34227" lon="2.13279">
        <ele>462</ele>
        <time>2021-09-02T08:24:57Z</time>
      </trkpt>
      <trkpt lat="44.34224" lon="2.13287">
        <ele>462</ele>
        <time>2021-09-02T08:25:00Z</time>
      </trkpt>
      <trkpt lat="44.3422" lon="2.13291">
        <ele>462</ele>
        <time>2021-09-02T08:25:03Z</time>
      </trkpt>
      <trkpt lat="44.34214" lon="2.13292">
        <ele>462</ele>
        <time>2021-09-02T08:26:09Z</time>
      </trkpt>
      <trkpt lat="44.3421" lon="2.13297">
        <ele>461</ele>
        <time>2021-09-02T08:26:09Z</time>
      </trkpt>
      <trkpt lat="44.342" lon="2.13304">
        <ele>459</ele>
        <time>2021-09-02T08:26:09Z</time>
      </trkpt>
      <trkpt lat="44.3414" lon="2.13347">
        <ele>457</ele>
        <time>2021-09-02T08:26:22Z</time>
      </trkpt>
      <trkpt lat="44.34128" lon="2.13358">
        <ele>455</ele>
        <time>2021-09-02T08:26:25Z</time>
      </trkpt>
      <trkpt lat="44.34085" lon="2.13392">
        <ele>454</ele>
        <time>2021-09-02T08:26:39Z</time>
      </trkpt>
      <trkpt lat="44.34064" lon="2.13397">
        <ele>454</ele>
        <time>2021-09-02T08:26:50Z</time>
      </trkpt>
      <trkpt lat="44.34061" lon="2.13403">
        <ele>453</ele>
        <time>2021-09-02T08:26:57Z</time>
      </trkpt>
      <trkpt lat="44.34058" lon="2.1341">
        <ele>453</ele>
        <time>2021-09-02T08:27:02Z</time>
      </trkpt>
      <trkpt lat="44.34055" lon="2.13404">
        <ele>451</ele>
        <time>2021-09-02T08:27:52Z</time>
      </trkpt>
      <trkpt lat="44.34051" lon="2.13408">
        <ele>449</ele>
        <time>2021-09-02T08:28:03Z</time>
      </trkpt>
      <trkpt lat="44.34041" lon="2.13414">
        <ele>450</ele>
        <time>2021-09-02T08:28:07Z</time>
      </trkpt>
      <trkpt lat="44.34037" lon="2.13419">
        <ele>452</ele>
        <time>2021-09-02T08:28:10Z</time>
      </trkpt>
      <trkpt lat="44.34039" lon="2.13426">
        <ele>453</ele>
        <time>2021-09-02T08:28:13Z</time>
      </trkpt>
      <trkpt lat="44.3404" lon="2.13435">
        <ele>453</ele>
        <time>2021-09-02T08:28:16Z</time>
      </trkpt>
      <trkpt lat="44.3404" lon="2.13444">
        <ele>453</ele>
        <time>2021-09-02T08:28:19Z</time>
      </trkpt>
      <trkpt lat="44.34039" lon="2.13454">
        <ele>453</ele>
        <time>2021-09-02T08:28:22Z</time>
      </trkpt>
      <trkpt lat="44.34042" lon="2.135">
        <ele>455</ele>
        <time>2021-09-02T08:28:40Z</time>
      </trkpt>
      <trkpt lat="44.34042" lon="2.13508">
        <ele>456</ele>
        <time>2021-09-02T08:28:43Z</time>
      </trkpt>
      <trkpt lat="44.34042" lon="2.13516">
        <ele>456</ele>
        <time>2021-09-02T08:28:46Z</time>
      </trkpt>
      <trkpt lat="44.34043" lon="2.13525">
        <ele>456</ele>
        <time>2021-09-02T08:28:49Z</time>
      </trkpt>
      <trkpt lat="44.34055" lon="2.13581">
        <ele>456</ele>
        <time>2021-09-02T08:29:10Z</time>
      </trkpt>
      <trkpt lat="44.34084" lon="2.13598">
        <ele>459</ele>
        <time>2021-09-02T08:29:25Z</time>
      </trkpt>
      <trkpt lat="44.34089" lon="2.13599">
        <ele>460</ele>
        <time>2021-09-02T08:29:28Z</time>
      </trkpt>
      <trkpt lat="44.34095" lon="2.13602">
        <ele>461</ele>
        <time>2021-09-02T08:29:31Z</time>
      </trkpt>
      <trkpt lat="44.34115" lon="2.13614">
        <ele>463</ele>
        <time>2021-09-02T08:29:43Z</time>
      </trkpt>
      <trkpt lat="44.34121" lon="2.13618">
        <ele>464</ele>
        <time>2021-09-02T08:29:46Z</time>
      </trkpt>
      <trkpt lat="44.34127" lon="2.13623">
        <ele>465</ele>
        <time>2021-09-02T08:29:49Z</time>
      </trkpt>
      <trkpt lat="44.34131" lon="2.13626">
        <ele>465</ele>
        <time>2021-09-02T08:29:51Z</time>
      </trkpt>
      <trkpt lat="44.34135" lon="2.13631">
        <ele>465</ele>
        <time>2021-09-02T08:29:53Z</time>
      </trkpt>
      <trkpt lat="44.34141" lon="2.13636">
        <ele>465</ele>
        <time>2021-09-02T08:29:56Z</time>
      </trkpt>
      <trkpt lat="44.34172" lon="2.13657">
        <ele>466</ele>
        <time>2021-09-02T08:30:14Z</time>
      </trkpt>
      <trkpt lat="44.34176" lon="2.1366">
        <ele>467</ele>
        <time>2021-09-02T08:30:17Z</time>
      </trkpt>
      <trkpt lat="44.34179" lon="2.13667">
        <ele>468</ele>
        <time>2021-09-02T08:30:21Z</time>
      </trkpt>
      <trkpt lat="44.34182" lon="2.13674">
        <ele>469</ele>
        <time>2021-09-02T08:30:48Z</time>
      </trkpt>
      <trkpt lat="44.34176" lon="2.13784">
        <ele>478</ele>
        <time>2021-09-02T08:31:21Z</time>
      </trkpt>
      <trkpt lat="44.34176" lon="2.13801">
        <ele>479</ele>
        <time>2021-09-02T08:31:27Z</time>
      </trkpt>
      <trkpt lat="44.34176" lon="2.13808">
        <ele>480</ele>
        <time>2021-09-02T08:31:31Z</time>
      </trkpt>
      <trkpt lat="44.34176" lon="2.13815">
        <ele>481</ele>
        <time>2021-09-02T08:31:33Z</time>
      </trkpt>
      <trkpt lat="44.34177" lon="2.13823">
        <ele>482</ele>
        <time>2021-09-02T08:31:37Z</time>
      </trkpt>
      <trkpt lat="44.34179" lon="2.13851">
        <ele>484</ele>
        <time>2021-09-02T08:31:48Z</time>
      </trkpt>
      <trkpt lat="44.34178" lon="2.13858">
        <ele>484</ele>
        <time>2021-09-02T08:31:51Z</time>
      </trkpt>
      <trkpt lat="44.34178" lon="2.13868">
        <ele>483</ele>
        <time>2021-09-02T08:31:55Z</time>
      </trkpt>
      <trkpt lat="44.34172" lon="2.13922">
        <ele>487</ele>
        <time>2021-09-02T08:32:12Z</time>
      </trkpt>
      <trkpt lat="44.34178" lon="2.13952">
        <ele>490</ele>
        <time>2021-09-02T08:32:24Z</time>
      </trkpt>
      <trkpt lat="44.3418" lon="2.13957">
        <ele>490</ele>
        <time>2021-09-02T08:32:27Z</time>
      </trkpt>
      <trkpt lat="44.34183" lon="2.13963">
        <ele>491</ele>
        <time>2021-09-02T08:32:30Z</time>
      </trkpt>
      <trkpt lat="44.34193" lon="2.13989">
        <ele>491</ele>
        <time>2021-09-02T08:32:42Z</time>
      </trkpt>
      <trkpt lat="44.34204" lon="2.1407">
        <ele>498</ele>
        <time>2021-09-02T08:33:12Z</time>
      </trkpt>
      <trkpt lat="44.34205" lon="2.14097">
        <ele>501</ele>
        <time>2021-09-02T08:33:22Z</time>
      </trkpt>
      <trkpt lat="44.34202" lon="2.14103">
        <ele>502</ele>
        <time>2021-09-02T08:33:27Z</time>
      </trkpt>
      <trkpt lat="44.34185" lon="2.14115">
        <ele>501</ele>
        <time>2021-09-02T08:33:36Z</time>
      </trkpt>
      <trkpt lat="44.34165" lon="2.14134">
        <ele>501</ele>
        <time>2021-09-02T08:33:47Z</time>
      </trkpt>
      <trkpt lat="44.34136" lon="2.14151">
        <ele>504</ele>
        <time>2021-09-02T08:34:01Z</time>
      </trkpt>
      <trkpt lat="44.34077" lon="2.14159">
        <ele>504</ele>
        <time>2021-09-02T08:34:30Z</time>
      </trkpt>
      <trkpt lat="44.34061" lon="2.14168">
        <ele>505</ele>
        <time>2021-09-02T08:34:38Z</time>
      </trkpt>
      <trkpt lat="44.34044" lon="2.14176">
        <ele>507</ele>
        <time>2021-09-02T08:34:47Z</time>
      </trkpt>
      <trkpt lat="44.34038" lon="2.14178">
        <ele>508</ele>
        <time>2021-09-02T08:34:50Z</time>
      </trkpt>
      <trkpt lat="44.34031" lon="2.1418">
        <ele>509</ele>
        <time>2021-09-02T08:34:53Z</time>
      </trkpt>
      <trkpt lat="44.34014" lon="2.14181">
        <ele>511</ele>
        <time>2021-09-02T08:35:03Z</time>
      </trkpt>
      <trkpt lat="44.33982" lon="2.1417">
        <ele>516</ele>
        <time>2021-09-02T08:35:21Z</time>
      </trkpt>
      <trkpt lat="44.33974" lon="2.14163">
        <ele>517</ele>
        <time>2021-09-02T08:35:27Z</time>
      </trkpt>
      <trkpt lat="44.33964" lon="2.14157">
        <ele>520</ele>
        <time>2021-09-02T08:35:33Z</time>
      </trkpt>
      <trkpt lat="44.33959" lon="2.14154">
        <ele>521</ele>
        <time>2021-09-02T08:35:36Z</time>
      </trkpt>
      <trkpt lat="44.33953" lon="2.14155">
        <ele>523</ele>
        <time>2021-09-02T08:35:40Z</time>
      </trkpt>
      <trkpt lat="44.33937" lon="2.14161">
        <ele>526</ele>
        <time>2021-09-02T08:35:49Z</time>
      </trkpt>
      <trkpt lat="44.33931" lon="2.14166">
        <ele>526</ele>
        <time>2021-09-02T08:35:52Z</time>
      </trkpt>
      <trkpt lat="44.33926" lon="2.14171">
        <ele>527</ele>
        <time>2021-09-02T08:35:55Z</time>
      </trkpt>
      <trkpt lat="44.3392" lon="2.14183">
        <ele>528</ele>
        <time>2021-09-02T08:36:01Z</time>
      </trkpt>
      <trkpt lat="44.33916" lon="2.14191">
        <ele>528</ele>
        <time>2021-09-02T08:36:04Z</time>
      </trkpt>
      <trkpt lat="44.33904" lon="2.14217">
        <ele>525</ele>
        <time>2021-09-02T08:36:13Z</time>
      </trkpt>
      <trkpt lat="44.339" lon="2.14232">
        <ele>526</ele>
        <time>2021-09-02T08:36:17Z</time>
      </trkpt>
      <trkpt lat="44.33869" lon="2.14287">
        <ele>522</ele>
        <time>2021-09-02T08:36:29Z</time>
      </trkpt>
      <trkpt lat="44.33865" lon="2.143">
        <ele>521</ele>
        <time>2021-09-02T08:36:31Z</time>
      </trkpt>
      <trkpt lat="44.33862" lon="2.1432">
        <ele>521</ele>
        <time>2021-09-02T08:36:34Z</time>
      </trkpt>
      <trkpt lat="44.3386" lon="2.14412">
        <ele>526</ele>
        <time>2021-09-02T08:37:01Z</time>
      </trkpt>
      <trkpt lat="44.33853" lon="2.14482">
        <ele>530</ele>
        <time>2021-09-02T08:37:28Z</time>
      </trkpt>
      <trkpt lat="44.33851" lon="2.14491">
        <ele>531</ele>
        <time>2021-09-02T08:37:31Z</time>
      </trkpt>
      <trkpt lat="44.33846" lon="2.14514">
        <ele>534</ele>
        <time>2021-09-02T08:37:40Z</time>
      </trkpt>
      <trkpt lat="44.33844" lon="2.14522">
        <ele>535</ele>
        <time>2021-09-02T08:37:43Z</time>
      </trkpt>
      <trkpt lat="44.33844" lon="2.14566">
        <ele>537</ele>
        <time>2021-09-02T08:38:03Z</time>
      </trkpt>
      <trkpt lat="44.33839" lon="2.14585">
        <ele>537</ele>
        <time>2021-09-02T08:38:13Z</time>
      </trkpt>
      <trkpt lat="44.33823" lon="2.14616">
        <ele>536</ele>
        <time>2021-09-02T08:38:29Z</time>
      </trkpt>
      <trkpt lat="44.33804" lon="2.14638">
        <ele>539</ele>
        <time>2021-09-02T08:38:41Z</time>
      </trkpt>
      <trkpt lat="44.33768" lon="2.14659">
        <ele>541</ele>
        <time>2021-09-02T08:39:01Z</time>
      </trkpt>
      <trkpt lat="44.33732" lon="2.14694">
        <ele>538</ele>
        <time>2021-09-02T08:39:16Z</time>
      </trkpt>
      <trkpt lat="44.33696" lon="2.14764">
        <ele>537</ele>
        <time>2021-09-02T08:39:33Z</time>
      </trkpt>
      <trkpt lat="44.33674" lon="2.148">
        <ele>536</ele>
        <time>2021-09-02T08:39:45Z</time>
      </trkpt>
      <trkpt lat="44.33667" lon="2.14816">
        <ele>535</ele>
        <time>2021-09-02T08:39:49Z</time>
      </trkpt>
      <trkpt lat="44.33662" lon="2.14833">
        <ele>535</ele>
        <time>2021-09-02T08:39:53Z</time>
      </trkpt>
      <trkpt lat="44.33656" lon="2.14876">
        <ele>537</ele>
        <time>2021-09-02T08:40:00Z</time>
      </trkpt>
      <trkpt lat="44.33652" lon="2.14901">
        <ele>539</ele>
        <time>2021-09-02T08:40:03Z</time>
      </trkpt>
      <trkpt lat="44.3364" lon="2.14929">
        <ele>540</ele>
        <time>2021-09-02T08:40:08Z</time>
      </trkpt>
      <trkpt lat="44.33631" lon="2.14941">
        <ele>541</ele>
        <time>2021-09-02T08:40:12Z</time>
      </trkpt>
      <trkpt lat="44.3362" lon="2.14965">
        <ele>540</ele>
        <time>2021-09-02T08:40:21Z</time>
      </trkpt>
      <trkpt lat="44.33615" lon="2.14985">
        <ele>543</ele>
        <time>2021-09-02T08:40:28Z</time>
      </trkpt>
      <trkpt lat="44.33614" lon="2.15007">
        <ele>547</ele>
        <time>2021-09-02T08:40:37Z</time>
      </trkpt>
      <trkpt lat="44.33614" lon="2.15015">
        <ele>548</ele>
        <time>2021-09-02T08:40:40Z</time>
      </trkpt>
      <trkpt lat="44.33625" lon="2.15074">
        <ele>556</ele>
        <time>2021-09-02T08:41:04Z</time>
      </trkpt>
      <trkpt lat="44.33623" lon="2.1509">
        <ele>557</ele>
        <time>2021-09-02T08:41:10Z</time>
      </trkpt>
      <trkpt lat="44.33607" lon="2.15115">
        <ele>559</ele>
        <time>2021-09-02T08:41:22Z</time>
      </trkpt>
      <trkpt lat="44.33604" lon="2.15123">
        <ele>559</ele>
        <time>2021-09-02T08:41:25Z</time>
      </trkpt>
      <trkpt lat="44.33599" lon="2.15144">
        <ele>559</ele>
        <time>2021-09-02T08:41:32Z</time>
      </trkpt>
      <trkpt lat="44.33595" lon="2.15175">
        <ele>563</ele>
        <time>2021-09-02T08:41:44Z</time>
      </trkpt>
      <trkpt lat="44.33594" lon="2.15182">
        <ele>564</ele>
        <time>2021-09-02T08:41:47Z</time>
      </trkpt>
      <trkpt lat="44.33592" lon="2.15188">
        <ele>566</ele>
        <time>2021-09-02T08:41:50Z</time>
      </trkpt>
      <trkpt lat="44.33587" lon="2.15194">
        <ele>566</ele>
        <time>2021-09-02T08:43:11Z</time>
      </trkpt>
      <trkpt lat="44.33571" lon="2.15197">
        <ele>567</ele>
        <time>2021-09-02T08:43:18Z</time>
      </trkpt>
      <trkpt lat="44.33565" lon="2.15198">
        <ele>567</ele>
        <time>2021-09-02T08:43:21Z</time>
      </trkpt>
      <trkpt lat="44.33518" lon="2.15211">
        <ele>566</ele>
        <time>2021-09-02T08:43:39Z</time>
      </trkpt>
      <trkpt lat="44.3348" lon="2.15212">
        <ele>563</ele>
        <time>2021-09-02T08:43:47Z</time>
      </trkpt>
      <trkpt lat="44.33438" lon="2.15227">
        <ele>560</ele>
        <time>2021-09-02T08:43:53Z</time>
      </trkpt>
      <trkpt lat="44.33418" lon="2.15239">
        <ele>559</ele>
        <time>2021-09-02T08:43:56Z</time>
      </trkpt>
      <trkpt lat="44.33319" lon="2.15272">
        <ele>556</ele>
        <time>2021-09-02T08:44:13Z</time>
      </trkpt>
      <trkpt lat="44.33305" lon="2.15268">
        <ele>555</ele>
        <time>2021-09-02T08:44:17Z</time>
      </trkpt>
      <trkpt lat="44.33285" lon="2.15248">
        <ele>556</ele>
        <time>2021-09-02T08:44:25Z</time>
      </trkpt>
      <trkpt lat="44.33281" lon="2.15245">
        <ele>555</ele>
        <time>2021-09-02T08:44:27Z</time>
      </trkpt>
      <trkpt lat="44.33262" lon="2.15242">
        <ele>555</ele>
        <time>2021-09-02T08:44:32Z</time>
      </trkpt>
      <trkpt lat="44.33252" lon="2.15237">
        <ele>554</ele>
        <time>2021-09-02T08:44:34Z</time>
      </trkpt>
      <trkpt lat="44.33225" lon="2.15209">
        <ele>551</ele>
        <time>2021-09-02T08:44:39Z</time>
      </trkpt>
      <trkpt lat="44.3322" lon="2.15201">
        <ele>550</ele>
        <time>2021-09-02T08:44:40Z</time>
      </trkpt>
      <trkpt lat="44.33206" lon="2.15169">
        <ele>551</ele>
        <time>2021-09-02T08:44:44Z</time>
      </trkpt>
      <trkpt lat="44.332" lon="2.15163">
        <ele>552</ele>
        <time>2021-09-02T08:44:46Z</time>
      </trkpt>
      <trkpt lat="44.33195" lon="2.15166">
        <ele>551</ele>
        <time>2021-09-02T08:45:39Z</time>
      </trkpt>
      <trkpt lat="44.33184" lon="2.1517">
        <ele>551</ele>
        <time>2021-09-02T08:45:44Z</time>
      </trkpt>
      <trkpt lat="44.33139" lon="2.15205">
        <ele>557</ele>
        <time>2021-09-02T08:46:06Z</time>
      </trkpt>
      <trkpt lat="44.33065" lon="2.1523">
        <ele>560</ele>
        <time>2021-09-02T08:46:36Z</time>
      </trkpt>
      <trkpt lat="44.33035" lon="2.15245">
        <ele>560</ele>
        <time>2021-09-02T08:46:48Z</time>
      </trkpt>
      <trkpt lat="44.32983" lon="2.15279">
        <ele>559</ele>
        <time>2021-09-02T08:47:08Z</time>
      </trkpt>
      <trkpt lat="44.32959" lon="2.1529">
        <ele>558</ele>
        <time>2021-09-02T08:47:18Z</time>
      </trkpt>
      <trkpt lat="44.32932" lon="2.15315">
        <ele>558</ele>
        <time>2021-09-02T08:47:31Z</time>
      </trkpt>
      <trkpt lat="44.32873" lon="2.15413">
        <ele>561</ele>
        <time>2021-09-02T08:48:03Z</time>
      </trkpt>
      <trkpt lat="44.32817" lon="2.15503">
        <ele>570</ele>
        <time>2021-09-02T08:48:33Z</time>
      </trkpt>
      <trkpt lat="44.32784" lon="2.1557">
        <ele>569</ele>
        <time>2021-09-02T08:48:57Z</time>
      </trkpt>
      <trkpt lat="44.32762" lon="2.15593">
        <ele>568</ele>
        <time>2021-09-02T08:49:09Z</time>
      </trkpt>
      <trkpt lat="44.32747" lon="2.156">
        <ele>570</ele>
        <time>2021-09-02T08:49:15Z</time>
      </trkpt>
      <trkpt lat="44.32736" lon="2.156">
        <ele>573</ele>
        <time>2021-09-02T08:49:19Z</time>
      </trkpt>
      <trkpt lat="44.3273" lon="2.15598">
        <ele>573</ele>
        <time>2021-09-02T08:49:21Z</time>
      </trkpt>
      <trkpt lat="44.32721" lon="2.1559">
        <ele>574</ele>
        <time>2021-09-02T08:49:25Z</time>
      </trkpt>
      <trkpt lat="44.32709" lon="2.15574">
        <ele>575</ele>
        <time>2021-09-02T08:49:33Z</time>
      </trkpt>
      <trkpt lat="44.32702" lon="2.15566">
        <ele>576</ele>
        <time>2021-09-02T08:49:37Z</time>
      </trkpt>
      <trkpt lat="44.32689" lon="2.15564">
        <ele>577</ele>
        <time>2021-09-02T08:49:43Z</time>
      </trkpt>
      <trkpt lat="44.32685" lon="2.15566">
        <ele>578</ele>
        <time>2021-09-02T08:49:45Z</time>
      </trkpt>
      <trkpt lat="44.32681" lon="2.15569">
        <ele>578</ele>
        <time>2021-09-02T08:49:47Z</time>
      </trkpt>
      <trkpt lat="44.32646" lon="2.15637">
        <ele>583</ele>
        <time>2021-09-02T08:50:20Z</time>
      </trkpt>
      <trkpt lat="44.3263" lon="2.15653">
        <ele>586</ele>
        <time>2021-09-02T08:50:29Z</time>
      </trkpt>
      <trkpt lat="44.3262" lon="2.15659">
        <ele>587</ele>
        <time>2021-09-02T08:50:34Z</time>
      </trkpt>
      <trkpt lat="44.32603" lon="2.15659">
        <ele>588</ele>
        <time>2021-09-02T08:50:42Z</time>
      </trkpt>
      <trkpt lat="44.32593" lon="2.15657">
        <ele>589</ele>
        <time>2021-09-02T08:50:46Z</time>
      </trkpt>
      <trkpt lat="44.32588" lon="2.15656">
        <ele>589</ele>
        <time>2021-09-02T08:50:48Z</time>
      </trkpt>
      <trkpt lat="44.32584" lon="2.15655">
        <ele>590</ele>
        <time>2021-09-02T08:50:50Z</time>
      </trkpt>
      <trkpt lat="44.32574" lon="2.15653">
        <ele>591</ele>
        <time>2021-09-02T08:50:56Z</time>
      </trkpt>
      <trkpt lat="44.32568" lon="2.15652">
        <ele>591</ele>
        <time>2021-09-02T08:50:58Z</time>
      </trkpt>
      <trkpt lat="44.32499" lon="2.15642">
        <ele>595</ele>
        <time>2021-09-02T08:51:30Z</time>
      </trkpt>
      <trkpt lat="44.32445" lon="2.15637">
        <ele>597</ele>
        <time>2021-09-02T08:51:56Z</time>
      </trkpt>
      <trkpt lat="44.32439" lon="2.15636">
        <ele>597</ele>
        <time>2021-09-02T08:51:59Z</time>
      </trkpt>
      <trkpt lat="44.32435" lon="2.1564">
        <ele>597</ele>
        <time>2021-09-02T08:52:33Z</time>
      </trkpt>
      <trkpt lat="44.3231" lon="2.15662">
        <ele>591</ele>
        <time>2021-09-02T08:52:58Z</time>
      </trkpt>
      <trkpt lat="44.32223" lon="2.15695">
        <ele>589</ele>
        <time>2021-09-02T08:53:16Z</time>
      </trkpt>
      <trkpt lat="44.32156" lon="2.15712">
        <ele>589</ele>
        <time>2021-09-02T08:53:38Z</time>
      </trkpt>
      <trkpt lat="44.32098" lon="2.15735">
        <ele>583</ele>
        <time>2021-09-02T08:53:49Z</time>
      </trkpt>
      <trkpt lat="44.32088" lon="2.15735">
        <ele>581</ele>
        <time>2021-09-02T08:53:51Z</time>
      </trkpt>
      <trkpt lat="44.3208" lon="2.15736">
        <ele>580</ele>
        <time>2021-09-02T08:53:53Z</time>
      </trkpt>
      <trkpt lat="44.32069" lon="2.15749">
        <ele>577</ele>
        <time>2021-09-02T08:53:56Z</time>
      </trkpt>
      <trkpt lat="44.32046" lon="2.15807">
        <ele>576</ele>
        <time>2021-09-02T08:54:05Z</time>
      </trkpt>
      <trkpt lat="44.32035" lon="2.15848">
        <ele>575</ele>
        <time>2021-09-02T08:54:10Z</time>
      </trkpt>
      <trkpt lat="44.32028" lon="2.15863">
        <ele>574</ele>
        <time>2021-09-02T08:54:12Z</time>
      </trkpt>
      <trkpt lat="44.32014" lon="2.15883">
        <ele>574</ele>
        <time>2021-09-02T08:54:15Z</time>
      </trkpt>
      <trkpt lat="44.31966" lon="2.15934">
        <ele>578</ele>
        <time>2021-09-02T08:54:30Z</time>
      </trkpt>
      <trkpt lat="44.31872" lon="2.16085">
        <ele>570</ele>
        <time>2021-09-02T08:54:55Z</time>
      </trkpt>
      <trkpt lat="44.31865" lon="2.16114">
        <ele>569</ele>
        <time>2021-09-02T08:54:58Z</time>
      </trkpt>
      <trkpt lat="44.31863" lon="2.1613">
        <ele>568</ele>
        <time>2021-09-02T08:55:00Z</time>
      </trkpt>
      <trkpt lat="44.31865" lon="2.16146">
        <ele>566</ele>
        <time>2021-09-02T08:56:25Z</time>
      </trkpt>
      <trkpt lat="44.31868" lon="2.16184">
        <ele>567</ele>
        <time>2021-09-02T08:56:32Z</time>
      </trkpt>
      <trkpt lat="44.31945" lon="2.16444">
        <ele>559</ele>
        <time>2021-09-02T08:56:59Z</time>
      </trkpt>
      <trkpt lat="44.31949" lon="2.16492">
        <ele>556</ele>
        <time>2021-09-02T08:57:05Z</time>
      </trkpt>
      <trkpt lat="44.31949" lon="2.16567">
        <ele>554</ele>
        <time>2021-09-02T08:57:14Z</time>
      </trkpt>
      <trkpt lat="44.31948" lon="2.16574">
        <ele>553</ele>
        <time>2021-09-02T08:57:15Z</time>
      </trkpt>
      <trkpt lat="44.31943" lon="2.16584">
        <ele>553</ele>
        <time>2021-09-02T08:57:17Z</time>
      </trkpt>
      <trkpt lat="44.31933" lon="2.16594">
        <ele>552</ele>
        <time>2021-09-02T08:57:20Z</time>
      </trkpt>
      <trkpt lat="44.31929" lon="2.16599">
        <ele>553</ele>
        <time>2021-09-02T08:57:21Z</time>
      </trkpt>
      <trkpt lat="44.31926" lon="2.16609">
        <ele>554</ele>
        <time>2021-09-02T08:57:23Z</time>
      </trkpt>
      <trkpt lat="44.31925" lon="2.16625">
        <ele>555</ele>
        <time>2021-09-02T08:57:27Z</time>
      </trkpt>
      <trkpt lat="44.31921" lon="2.16651">
        <ele>556</ele>
        <time>2021-09-02T08:57:35Z</time>
      </trkpt>
      <trkpt lat="44.31918" lon="2.16659">
        <ele>556</ele>
        <time>2021-09-02T08:57:38Z</time>
      </trkpt>
      <trkpt lat="44.31914" lon="2.16664">
        <ele>557</ele>
        <time>2021-09-02T08:57:41Z</time>
      </trkpt>
      <trkpt lat="44.31909" lon="2.16666">
        <ele>557</ele>
        <time>2021-09-02T08:57:44Z</time>
      </trkpt>
      <trkpt lat="44.31899" lon="2.1667">
        <ele>558</ele>
        <time>2021-09-02T08:57:49Z</time>
      </trkpt>
      <trkpt lat="44.31831" lon="2.16702">
        <ele>559</ele>
        <time>2021-09-02T08:58:22Z</time>
      </trkpt>
      <trkpt lat="44.31827" lon="2.16705">
        <ele>560</ele>
        <time>2021-09-02T08:58:24Z</time>
      </trkpt>
      <trkpt lat="44.31808" lon="2.16711">
        <ele>562</ele>
        <time>2021-09-02T08:58:32Z</time>
      </trkpt>
      <trkpt lat="44.31803" lon="2.16711">
        <ele>563</ele>
        <time>2021-09-02T08:58:34Z</time>
      </trkpt>
      <trkpt lat="44.31742" lon="2.16716">
        <ele>567</ele>
        <time>2021-09-02T08:58:58Z</time>
      </trkpt>
      <trkpt lat="44.31715" lon="2.1671">
        <ele>568</ele>
        <time>2021-09-02T08:59:11Z</time>
      </trkpt>
      <trkpt lat="44.31663" lon="2.16719">
        <ele>570</ele>
        <time>2021-09-02T08:59:35Z</time>
      </trkpt>
      <trkpt lat="44.31648" lon="2.16722">
        <ele>572</ele>
        <time>2021-09-02T09:00:29Z</time>
      </trkpt>
      <trkpt lat="44.31643" lon="2.1672">
        <ele>572</ele>
        <time>2021-09-02T09:00:33Z</time>
      </trkpt>
      <trkpt lat="44.31633" lon="2.16717">
        <ele>573</ele>
        <time>2021-09-02T09:00:40Z</time>
      </trkpt>
      <trkpt lat="44.31629" lon="2.16712">
        <ele>573</ele>
        <time>2021-09-02T09:00:44Z</time>
      </trkpt>
      <trkpt lat="44.31623" lon="2.16713">
        <ele>573</ele>
        <time>2021-09-02T09:00:49Z</time>
      </trkpt>
      <trkpt lat="44.31605" lon="2.16704">
        <ele>572</ele>
        <time>2021-09-02T09:00:56Z</time>
      </trkpt>
      <trkpt lat="44.31568" lon="2.16699">
        <ele>572</ele>
        <time>2021-09-02T09:01:08Z</time>
      </trkpt>
      <trkpt lat="44.31562" lon="2.16702">
        <ele>573</ele>
        <time>2021-09-02T09:01:11Z</time>
      </trkpt>
      <trkpt lat="44.31558" lon="2.16708">
        <ele>573</ele>
        <time>2021-09-02T09:01:14Z</time>
      </trkpt>
      <trkpt lat="44.31555" lon="2.16715">
        <ele>573</ele>
        <time>2021-09-02T09:01:17Z</time>
      </trkpt>
      <trkpt lat="44.31552" lon="2.16737">
        <ele>573</ele>
        <time>2021-09-02T09:01:27Z</time>
      </trkpt>
      <trkpt lat="44.31551" lon="2.16745">
        <ele>574</ele>
        <time>2021-09-02T09:01:30Z</time>
      </trkpt>
      <trkpt lat="44.31534" lon="2.16775">
        <ele>574</ele>
        <time>2021-09-02T09:01:45Z</time>
      </trkpt>
      <trkpt lat="44.31531" lon="2.16781">
        <ele>574</ele>
        <time>2021-09-02T09:01:48Z</time>
      </trkpt>
      <trkpt lat="44.31526" lon="2.16785">
        <ele>576</ele>
        <time>2021-09-02T09:01:51Z</time>
      </trkpt>
      <trkpt lat="44.31522" lon="2.16789">
        <ele>577</ele>
        <time>2021-09-02T09:02:20Z</time>
      </trkpt>
      <trkpt lat="44.31517" lon="2.16791">
        <ele>579</ele>
        <time>2021-09-02T09:02:43Z</time>
      </trkpt>
      <trkpt lat="44.31512" lon="2.16793">
        <ele>580</ele>
        <time>2021-09-02T09:02:45Z</time>
      </trkpt>
      <trkpt lat="44.31479" lon="2.16812">
        <ele>581</ele>
        <time>2021-09-02T09:02:55Z</time>
      </trkpt>
      <trkpt lat="44.31447" lon="2.16846">
        <ele>581</ele>
        <time>2021-09-02T09:03:05Z</time>
      </trkpt>
      <trkpt lat="44.31412" lon="2.16863">
        <ele>582</ele>
        <time>2021-09-02T09:03:15Z</time>
      </trkpt>
      <trkpt lat="44.3139" lon="2.16869">
        <ele>581</ele>
        <time>2021-09-02T09:03:21Z</time>
      </trkpt>
      <trkpt lat="44.31344" lon="2.16894">
        <ele>582</ele>
        <time>2021-09-02T09:03:38Z</time>
      </trkpt>
      <trkpt lat="44.31307" lon="2.16896">
        <ele>589</ele>
        <time>2021-09-02T09:04:00Z</time>
      </trkpt>
      <trkpt lat="44.31286" lon="2.16892">
        <ele>589</ele>
        <time>2021-09-02T09:04:13Z</time>
      </trkpt>
      <trkpt lat="44.31276" lon="2.16892">
        <ele>589</ele>
        <time>2021-09-02T09:04:19Z</time>
      </trkpt>
      <trkpt lat="44.31259" lon="2.16887">
        <ele>591</ele>
        <time>2021-09-02T09:04:28Z</time>
      </trkpt>
      <trkpt lat="44.31253" lon="2.16884">
        <ele>592</ele>
        <time>2021-09-02T09:04:31Z</time>
      </trkpt>
      <trkpt lat="44.31228" lon="2.16844">
        <ele>597</ele>
        <time>2021-09-02T09:04:52Z</time>
      </trkpt>
      <trkpt lat="44.31224" lon="2.16839">
        <ele>598</ele>
        <time>2021-09-02T09:04:55Z</time>
      </trkpt>
      <trkpt lat="44.31209" lon="2.16831">
        <ele>599</ele>
        <time>2021-09-02T09:05:03Z</time>
      </trkpt>
      <trkpt lat="44.31204" lon="2.16828">
        <ele>599</ele>
        <time>2021-09-02T09:05:06Z</time>
      </trkpt>
      <trkpt lat="44.312" lon="2.16825">
        <ele>600</ele>
        <time>2021-09-02T09:05:09Z</time>
      </trkpt>
      <trkpt lat="44.31195" lon="2.16823">
        <ele>601</ele>
        <time>2021-09-02T09:05:12Z</time>
      </trkpt>
      <trkpt lat="44.3119" lon="2.1682">
        <ele>603</ele>
        <time>2021-09-02T09:05:16Z</time>
      </trkpt>
      <trkpt lat="44.31171" lon="2.16816">
        <ele>607</ele>
        <time>2021-09-02T09:05:28Z</time>
      </trkpt>
      <trkpt lat="44.3116" lon="2.16816">
        <ele>608</ele>
        <time>2021-09-02T09:05:34Z</time>
      </trkpt>
      <trkpt lat="44.31154" lon="2.16819">
        <ele>609</ele>
        <time>2021-09-02T09:05:37Z</time>
      </trkpt>
      <trkpt lat="44.31149" lon="2.16824">
        <ele>609</ele>
        <time>2021-09-02T09:05:40Z</time>
      </trkpt>
      <trkpt lat="44.31142" lon="2.16838">
        <ele>610</ele>
        <time>2021-09-02T09:05:46Z</time>
      </trkpt>
      <trkpt lat="44.31132" lon="2.16911">
        <ele>615</ele>
        <time>2021-09-02T09:06:16Z</time>
      </trkpt>
      <trkpt lat="44.31124" lon="2.16962">
        <ele>619</ele>
        <time>2021-09-02T09:06:34Z</time>
      </trkpt>
      <trkpt lat="44.31122" lon="2.16968">
        <ele>619</ele>
        <time>2021-09-02T09:06:36Z</time>
      </trkpt>
      <trkpt lat="44.3112" lon="2.16973">
        <ele>619</ele>
        <time>2021-09-02T09:06:38Z</time>
      </trkpt>
      <trkpt lat="44.31115" lon="2.16987">
        <ele>619</ele>
        <time>2021-09-02T09:06:43Z</time>
      </trkpt>
      <trkpt lat="44.31103" lon="2.17005">
        <ele>619</ele>
        <time>2021-09-02T09:06:51Z</time>
      </trkpt>
      <trkpt lat="44.31094" lon="2.17013">
        <ele>619</ele>
        <time>2021-09-02T09:06:56Z</time>
      </trkpt>
      <trkpt lat="44.31084" lon="2.17018">
        <ele>619</ele>
        <time>2021-09-02T09:07:01Z</time>
      </trkpt>
      <trkpt lat="44.31071" lon="2.17022">
        <ele>620</ele>
        <time>2021-09-02T09:07:07Z</time>
      </trkpt>
      <trkpt lat="44.3106" lon="2.17022">
        <ele>622</ele>
        <time>2021-09-02T09:07:12Z</time>
      </trkpt>
      <trkpt lat="44.31054" lon="2.17024">
        <ele>623</ele>
        <time>2021-09-02T09:07:15Z</time>
      </trkpt>
      <trkpt lat="44.31043" lon="2.17025">
        <ele>624</ele>
        <time>2021-09-02T09:07:21Z</time>
      </trkpt>
      <trkpt lat="44.31039" lon="2.17029">
        <ele>625</ele>
        <time>2021-09-02T09:07:24Z</time>
      </trkpt>
      <trkpt lat="44.31029" lon="2.1703">
        <ele>627</ele>
        <time>2021-09-02T09:07:30Z</time>
      </trkpt>
      <trkpt lat="44.31012" lon="2.17035">
        <ele>628</ele>
        <time>2021-09-02T09:07:39Z</time>
      </trkpt>
      <trkpt lat="44.31" lon="2.1704">
        <ele>628</ele>
        <time>2021-09-02T09:07:45Z</time>
      </trkpt>
      <trkpt lat="44.30995" lon="2.17042">
        <ele>629</ele>
        <time>2021-09-02T09:07:48Z</time>
      </trkpt>
      <trkpt lat="44.3099" lon="2.17044">
        <ele>629</ele>
        <time>2021-09-02T09:07:51Z</time>
      </trkpt>
      <trkpt lat="44.30986" lon="2.17047">
        <ele>630</ele>
        <time>2021-09-02T09:07:54Z</time>
      </trkpt>
      <trkpt lat="44.30965" lon="2.1707">
        <ele>631</ele>
        <time>2021-09-02T09:08:09Z</time>
      </trkpt>
      <trkpt lat="44.30962" lon="2.17076">
        <ele>630</ele>
        <time>2021-09-02T09:08:12Z</time>
      </trkpt>
      <trkpt lat="44.30948" lon="2.17092">
        <ele>628</ele>
        <time>2021-09-02T09:08:21Z</time>
      </trkpt>
      <trkpt lat="44.30944" lon="2.17094">
        <ele>629</ele>
        <time>2021-09-02T09:08:24Z</time>
      </trkpt>
      <trkpt lat="44.3092" lon="2.1709">
        <ele>631</ele>
        <time>2021-09-02T09:08:35Z</time>
      </trkpt>
      <trkpt lat="44.30878" lon="2.17094">
        <ele>630</ele>
        <time>2021-09-02T09:08:50Z</time>
      </trkpt>
      <trkpt lat="44.30872" lon="2.17096">
        <ele>630</ele>
        <time>2021-09-02T09:08:52Z</time>
      </trkpt>
      <trkpt lat="44.30868" lon="2.17099">
        <ele>630</ele>
        <time>2021-09-02T09:08:54Z</time>
      </trkpt>
      <trkpt lat="44.30864" lon="2.17103">
        <ele>630</ele>
        <time>2021-09-02T09:08:56Z</time>
      </trkpt>
      <trkpt lat="44.30856" lon="2.17146">
        <ele>633</ele>
        <time>2021-09-02T09:09:10Z</time>
      </trkpt>
      <trkpt lat="44.30846" lon="2.17174">
        <ele>637</ele>
        <time>2021-09-02T09:09:22Z</time>
      </trkpt>
      <trkpt lat="44.30842" lon="2.17181">
        <ele>639</ele>
        <time>2021-09-02T09:09:25Z</time>
      </trkpt>
      <trkpt lat="44.30796" lon="2.17245">
        <ele>644</ele>
        <time>2021-09-02T09:09:57Z</time>
      </trkpt>
      <trkpt lat="44.30767" lon="2.17279">
        <ele>649</ele>
        <time>2021-09-02T09:10:18Z</time>
      </trkpt>
      <trkpt lat="44.30762" lon="2.17285">
        <ele>649</ele>
        <time>2021-09-02T09:10:22Z</time>
      </trkpt>
      <trkpt lat="44.30744" lon="2.17307">
        <ele>648</ele>
        <time>2021-09-02T09:10:34Z</time>
      </trkpt>
      <trkpt lat="44.30738" lon="2.17309">
        <ele>648</ele>
        <time>2021-09-02T09:10:37Z</time>
      </trkpt>
      <trkpt lat="44.30733" lon="2.17315">
        <ele>647</ele>
        <time>2021-09-02T09:10:41Z</time>
      </trkpt>
      <trkpt lat="44.3071" lon="2.17337">
        <ele>646</ele>
        <time>2021-09-02T09:10:51Z</time>
      </trkpt>
      <trkpt lat="44.30706" lon="2.17342">
        <ele>647</ele>
        <time>2021-09-02T09:10:54Z</time>
      </trkpt>
      <trkpt lat="44.30703" lon="2.17346">
        <ele>648</ele>
        <time>2021-09-02T09:10:57Z</time>
      </trkpt>
      <trkpt lat="44.30701" lon="2.17353">
        <ele>649</ele>
        <time>2021-09-02T09:11:00Z</time>
      </trkpt>
      <trkpt lat="44.30701" lon="2.17362">
        <ele>650</ele>
        <time>2021-09-02T09:11:03Z</time>
      </trkpt>
      <trkpt lat="44.30702" lon="2.17369">
        <ele>652</ele>
        <time>2021-09-02T09:11:07Z</time>
      </trkpt>
      <trkpt lat="44.30741" lon="2.17395">
        <ele>657</ele>
        <time>2021-09-02T09:11:29Z</time>
      </trkpt>
      <trkpt lat="44.30744" lon="2.174">
        <ele>657</ele>
        <time>2021-09-02T09:11:32Z</time>
      </trkpt>
      <trkpt lat="44.30747" lon="2.17416">
        <ele>659</ele>
        <time>2021-09-02T09:11:38Z</time>
      </trkpt>
      <trkpt lat="44.30746" lon="2.17423">
        <ele>660</ele>
        <time>2021-09-02T09:11:41Z</time>
      </trkpt>
      <trkpt lat="44.30741" lon="2.17427">
        <ele>661</ele>
        <time>2021-09-02T09:11:44Z</time>
      </trkpt>
      <trkpt lat="44.30731" lon="2.17427">
        <ele>661</ele>
        <time>2021-09-02T09:11:48Z</time>
      </trkpt>
      <trkpt lat="44.30721" lon="2.17423">
        <ele>662</ele>
        <time>2021-09-02T09:11:52Z</time>
      </trkpt>
      <trkpt lat="44.30689" lon="2.17389">
        <ele>666</ele>
        <time>2021-09-02T09:12:08Z</time>
      </trkpt>
      <trkpt lat="44.30675" lon="2.17381">
        <ele>667</ele>
        <time>2021-09-02T09:12:14Z</time>
      </trkpt>
      <trkpt lat="44.30658" lon="2.17377">
        <ele>668</ele>
        <time>2021-09-02T09:12:20Z</time>
      </trkpt>
      <trkpt lat="44.30641" lon="2.17381">
        <ele>670</ele>
        <time>2021-09-02T09:12:26Z</time>
      </trkpt>
      <trkpt lat="44.30619" lon="2.17396">
        <ele>671</ele>
        <time>2021-09-02T09:12:34Z</time>
      </trkpt>
      <trkpt lat="44.30573" lon="2.17447">
        <ele>672</ele>
        <time>2021-09-02T09:12:55Z</time>
      </trkpt>
      <trkpt lat="44.30568" lon="2.1745">
        <ele>672</ele>
        <time>2021-09-02T09:12:58Z</time>
      </trkpt>
      <trkpt lat="44.30567" lon="2.17457">
        <ele>673</ele>
        <time>2021-09-02T09:13:35Z</time>
      </trkpt>
      <trkpt lat="44.30563" lon="2.17463">
        <ele>672</ele>
        <time>2021-09-02T09:13:37Z</time>
      </trkpt>
      <trkpt lat="44.30553" lon="2.17477">
        <ele>670</ele>
        <time>2021-09-02T09:13:41Z</time>
      </trkpt>
      <trkpt lat="44.3042" lon="2.17632">
        <ele>658</ele>
        <time>2021-09-02T09:14:11Z</time>
      </trkpt>
      <trkpt lat="44.3036" lon="2.17676">
        <ele>658</ele>
        <time>2021-09-02T09:14:27Z</time>
      </trkpt>
      <trkpt lat="44.30343" lon="2.17684">
        <ele>658</ele>
        <time>2021-09-02T09:14:32Z</time>
      </trkpt>
      <trkpt lat="44.30331" lon="2.17686">
        <ele>658</ele>
        <time>2021-09-02T09:14:38Z</time>
      </trkpt>
      <trkpt lat="44.30327" lon="2.17687">
        <ele>658</ele>
        <time>2021-09-02T09:14:43Z</time>
      </trkpt>
      <trkpt lat="44.30326" lon="2.17687">
        <ele>657</ele>
        <time>2021-09-02T09:18:01Z</time>
      </trkpt>
      <trkpt lat="44.30323" lon="2.17683">
        <ele>655</ele>
        <time>2021-09-02T09:19:34Z</time>
      </trkpt>
      <trkpt lat="44.30321" lon="2.1769">
        <ele>655</ele>
        <time>2021-09-02T09:19:53Z</time>
      </trkpt>
      <trkpt lat="44.30316" lon="2.17689">
        <ele>656</ele>
        <time>2021-09-02T09:19:56Z</time>
      </trkpt>
      <trkpt lat="44.30255" lon="2.17698">
        <ele>652</ele>
        <time>2021-09-02T09:20:10Z</time>
      </trkpt>
      <trkpt lat="44.3022" lon="2.17716">
        <ele>648</ele>
        <time>2021-09-02T09:20:16Z</time>
      </trkpt>
      <trkpt lat="44.30187" lon="2.1775">
        <ele>643</ele>
        <time>2021-09-02T09:20:22Z</time>
      </trkpt>
      <trkpt lat="44.30141" lon="2.17816">
        <ele>636</ele>
        <time>2021-09-02T09:20:30Z</time>
      </trkpt>
      <trkpt lat="44.30007" lon="2.18043">
        <ele>630</ele>
        <time>2021-09-02T09:21:01Z</time>
      </trkpt>
      <trkpt lat="44.29962" lon="2.18118">
        <ele>626</ele>
        <time>2021-09-02T09:21:14Z</time>
      </trkpt>
      <trkpt lat="44.29958" lon="2.18122">
        <ele>625</ele>
        <time>2021-09-02T09:21:15Z</time>
      </trkpt>
      <trkpt lat="44.29943" lon="2.18128">
        <ele>623</ele>
        <time>2021-09-02T09:21:18Z</time>
      </trkpt>
      <trkpt lat="44.29871" lon="2.18115">
        <ele>616</ele>
        <time>2021-09-02T09:21:28Z</time>
      </trkpt>
      <trkpt lat="44.29797" lon="2.18089">
        <ele>611</ele>
        <time>2021-09-02T09:21:38Z</time>
      </trkpt>
      <trkpt lat="44.29722" lon="2.18092">
        <ele>614</ele>
        <time>2021-09-02T09:21:47Z</time>
      </trkpt>
      <trkpt lat="44.297" lon="2.18099">
        <ele>613</ele>
        <time>2021-09-02T09:21:50Z</time>
      </trkpt>
      <trkpt lat="44.29634" lon="2.18144">
        <ele>610</ele>
        <time>2021-09-02T09:22:01Z</time>
      </trkpt>
      <trkpt lat="44.29566" lon="2.18159">
        <ele>607</ele>
        <time>2021-09-02T09:22:15Z</time>
      </trkpt>
      <trkpt lat="44.29554" lon="2.1816">
        <ele>607</ele>
        <time>2021-09-02T09:22:20Z</time>
      </trkpt>
      <trkpt lat="44.29544" lon="2.18165">
        <ele>607</ele>
        <time>2021-09-02T09:22:31Z</time>
      </trkpt>
      <trkpt lat="44.29517" lon="2.18192">
        <ele>604</ele>
        <time>2021-09-02T09:22:41Z</time>
      </trkpt>
      <trkpt lat="44.29484" lon="2.1824">
        <ele>602</ele>
        <time>2021-09-02T09:22:55Z</time>
      </trkpt>
      <trkpt lat="44.29469" lon="2.1825">
        <ele>600</ele>
        <time>2021-09-02T09:23:03Z</time>
      </trkpt>
      <trkpt lat="44.29465" lon="2.18252">
        <ele>600</ele>
        <time>2021-09-02T09:23:06Z</time>
      </trkpt>
      <trkpt lat="44.2946" lon="2.18251">
        <ele>602</ele>
        <time>2021-09-02T09:24:27Z</time>
      </trkpt>
      <trkpt lat="44.29458" lon="2.18258">
        <ele>602</ele>
        <time>2021-09-02T09:24:30Z</time>
      </trkpt>
      <trkpt lat="44.29461" lon="2.18263">
        <ele>602</ele>
        <time>2021-09-02T09:24:32Z</time>
      </trkpt>
      <trkpt lat="44.29465" lon="2.18269">
        <ele>598</ele>
        <time>2021-09-02T09:24:34Z</time>
      </trkpt>
      <trkpt lat="44.29469" lon="2.18276">
        <ele>597</ele>
        <time>2021-09-02T09:24:36Z</time>
      </trkpt>
      <trkpt lat="44.29473" lon="2.18285">
        <ele>596</ele>
        <time>2021-09-02T09:24:38Z</time>
      </trkpt>
      <trkpt lat="44.29522" lon="2.18358">
        <ele>588</ele>
        <time>2021-09-02T09:24:50Z</time>
      </trkpt>
      <trkpt lat="44.29534" lon="2.18387">
        <ele>586</ele>
        <time>2021-09-02T09:24:53Z</time>
      </trkpt>
      <trkpt lat="44.29546" lon="2.18435">
        <ele>583</ele>
        <time>2021-09-02T09:24:58Z</time>
      </trkpt>
      <trkpt lat="44.29552" lon="2.18484">
        <ele>581</ele>
        <time>2021-09-02T09:25:03Z</time>
      </trkpt>
      <trkpt lat="44.29552" lon="2.18508">
        <ele>583</ele>
        <time>2021-09-02T09:25:06Z</time>
      </trkpt>
      <trkpt lat="44.29553" lon="2.18523">
        <ele>584</ele>
        <time>2021-09-02T09:25:40Z</time>
      </trkpt>
      <trkpt lat="44.29551" lon="2.18619">
        <ele>577</ele>
        <time>2021-09-02T09:25:54Z</time>
      </trkpt>
      <trkpt lat="44.29547" lon="2.18645">
        <ele>576</ele>
        <time>2021-09-02T09:25:57Z</time>
      </trkpt>
      <trkpt lat="44.2953" lon="2.18688">
        <ele>574</ele>
        <time>2021-09-02T09:26:02Z</time>
      </trkpt>
      <trkpt lat="44.29529" lon="2.18695">
        <ele>574</ele>
        <time>2021-09-02T09:26:03Z</time>
      </trkpt>
      <trkpt lat="44.29529" lon="2.18705">
        <ele>574</ele>
        <time>2021-09-02T09:26:05Z</time>
      </trkpt>
      <trkpt lat="44.29528" lon="2.18714">
        <ele>574</ele>
        <time>2021-09-02T09:26:08Z</time>
      </trkpt>
      <trkpt lat="44.29527" lon="2.1872">
        <ele>577</ele>
        <time>2021-09-02T09:26:21Z</time>
      </trkpt>
      <trkpt lat="44.29531" lon="2.18718">
        <ele>578</ele>
        <time>2021-09-02T09:26:46Z</time>
      </trkpt>
      <trkpt lat="44.29533" lon="2.18727">
        <ele>581</ele>
        <time>2021-09-02T09:26:50Z</time>
      </trkpt>
      <trkpt lat="44.29535" lon="2.18734">
        <ele>576</ele>
        <time>2021-09-02T09:26:52Z</time>
      </trkpt>
      <trkpt lat="44.29538" lon="2.18763">
        <ele>572</ele>
        <time>2021-09-02T09:26:58Z</time>
      </trkpt>
      <trkpt lat="44.2954" lon="2.18807">
        <ele>568</ele>
        <time>2021-09-02T09:27:04Z</time>
      </trkpt>
      <trkpt lat="44.29533" lon="2.18827">
        <ele>566</ele>
        <time>2021-09-02T09:27:06Z</time>
      </trkpt>
      <trkpt lat="44.29509" lon="2.18867">
        <ele>559</ele>
        <time>2021-09-02T09:27:12Z</time>
      </trkpt>
      <trkpt lat="44.29497" lon="2.18875">
        <ele>558</ele>
        <time>2021-09-02T09:27:14Z</time>
      </trkpt>
      <trkpt lat="44.29488" lon="2.18878">
        <ele>558</ele>
        <time>2021-09-02T09:27:15Z</time>
      </trkpt>
      <trkpt lat="44.29481" lon="2.18879">
        <ele>558</ele>
        <time>2021-09-02T09:27:16Z</time>
      </trkpt>
      <trkpt lat="44.29451" lon="2.18858">
        <ele>554</ele>
        <time>2021-09-02T09:27:21Z</time>
      </trkpt>
      <trkpt lat="44.29441" lon="2.18856">
        <ele>551</ele>
        <time>2021-09-02T09:27:23Z</time>
      </trkpt>
      <trkpt lat="44.29432" lon="2.18863">
        <ele>549</ele>
        <time>2021-09-02T09:27:25Z</time>
      </trkpt>
      <trkpt lat="44.29427" lon="2.1887">
        <ele>549</ele>
        <time>2021-09-02T09:27:26Z</time>
      </trkpt>
      <trkpt lat="44.29408" lon="2.1892">
        <ele>548</ele>
        <time>2021-09-02T09:27:32Z</time>
      </trkpt>
      <trkpt lat="44.29401" lon="2.18932">
        <ele>547</ele>
        <time>2021-09-02T09:27:34Z</time>
      </trkpt>
      <trkpt lat="44.29379" lon="2.18954">
        <ele>544</ele>
        <time>2021-09-02T09:27:39Z</time>
      </trkpt>
      <trkpt lat="44.29374" lon="2.18958">
        <ele>544</ele>
        <time>2021-09-02T09:27:40Z</time>
      </trkpt>
      <trkpt lat="44.29369" lon="2.18963">
        <ele>544</ele>
        <time>2021-09-02T09:27:41Z</time>
      </trkpt>
      <trkpt lat="44.29317" lon="2.19034">
        <ele>539</ele>
        <time>2021-09-02T09:27:50Z</time>
      </trkpt>
      <trkpt lat="44.29253" lon="2.19086">
        <ele>536</ele>
        <time>2021-09-02T09:27:59Z</time>
      </trkpt>
      <trkpt lat="44.29208" lon="2.19107">
        <ele>535</ele>
        <time>2021-09-02T09:28:05Z</time>
      </trkpt>
      <trkpt lat="44.29174" lon="2.19111">
        <ele>534</ele>
        <time>2021-09-02T09:28:09Z</time>
      </trkpt>
      <trkpt lat="44.29142" lon="2.19117">
        <ele>533</ele>
        <time>2021-09-02T09:28:13Z</time>
      </trkpt>
      <trkpt lat="44.2913" lon="2.19118">
        <ele>532</ele>
        <time>2021-09-02T09:28:15Z</time>
      </trkpt>
      <trkpt lat="44.29124" lon="2.1912">
        <ele>532</ele>
        <time>2021-09-02T09:28:16Z</time>
      </trkpt>
      <trkpt lat="44.29118" lon="2.19123">
        <ele>532</ele>
        <time>2021-09-02T09:28:17Z</time>
      </trkpt>
      <trkpt lat="44.29108" lon="2.19133">
        <ele>531</ele>
        <time>2021-09-02T09:28:19Z</time>
      </trkpt>
      <trkpt lat="44.29081" lon="2.19176">
        <ele>528</ele>
        <time>2021-09-02T09:28:25Z</time>
      </trkpt>
      <trkpt lat="44.29068" lon="2.19189">
        <ele>526</ele>
        <time>2021-09-02T09:28:27Z</time>
      </trkpt>
      <trkpt lat="44.29052" lon="2.19197">
        <ele>524</ele>
        <time>2021-09-02T09:28:29Z</time>
      </trkpt>
      <trkpt lat="44.29018" lon="2.19211">
        <ele>519</ele>
        <time>2021-09-02T09:28:33Z</time>
      </trkpt>
      <trkpt lat="44.28962" lon="2.19232">
        <ele>513</ele>
        <time>2021-09-02T09:28:39Z</time>
      </trkpt>
      <trkpt lat="44.28892" lon="2.19245">
        <ele>508</ele>
        <time>2021-09-02T09:28:50Z</time>
      </trkpt>
      <trkpt lat="44.28885" lon="2.19241">
        <ele>514</ele>
        <time>2021-09-02T09:28:53Z</time>
      </trkpt>
      <trkpt lat="44.28882" lon="2.19233">
        <ele>514</ele>
        <time>2021-09-02T09:28:55Z</time>
      </trkpt>
      <trkpt lat="44.28881" lon="2.19226">
        <ele>513</ele>
        <time>2021-09-02T09:28:57Z</time>
      </trkpt>
      <trkpt lat="44.28879" lon="2.19218">
        <ele>513</ele>
        <time>2021-09-02T09:29:00Z</time>
      </trkpt>
      <trkpt lat="44.28877" lon="2.1921">
        <ele>514</ele>
        <time>2021-09-02T09:29:03Z</time>
      </trkpt>
      <trkpt lat="44.28878" lon="2.19194">
        <ele>517</ele>
        <time>2021-09-02T09:29:10Z</time>
      </trkpt>
      <trkpt lat="44.28874" lon="2.19163">
        <ele>520</ele>
        <time>2021-09-02T09:29:22Z</time>
      </trkpt>
      <trkpt lat="44.2887" lon="2.19148">
        <ele>521</ele>
        <time>2021-09-02T09:29:28Z</time>
      </trkpt>
      <trkpt lat="44.28867" lon="2.1914">
        <ele>521</ele>
        <time>2021-09-02T09:29:31Z</time>
      </trkpt>
      <trkpt lat="44.28861" lon="2.19128">
        <ele>523</ele>
        <time>2021-09-02T09:29:36Z</time>
      </trkpt>
      <trkpt lat="44.28856" lon="2.19123">
        <ele>524</ele>
        <time>2021-09-02T09:29:39Z</time>
      </trkpt>
      <trkpt lat="44.28851" lon="2.19118">
        <ele>525</ele>
        <time>2021-09-02T09:29:42Z</time>
      </trkpt>
      <trkpt lat="44.28842" lon="2.19114">
        <ele>524</ele>
        <time>2021-09-02T09:29:46Z</time>
      </trkpt>
      <trkpt lat="44.28829" lon="2.19114">
        <ele>522</ele>
        <time>2021-09-02T09:29:52Z</time>
      </trkpt>
      <trkpt lat="44.28823" lon="2.19116">
        <ele>522</ele>
        <time>2021-09-02T09:29:55Z</time>
      </trkpt>
      <trkpt lat="44.28807" lon="2.19126">
        <ele>520</ele>
        <time>2021-09-02T09:30:03Z</time>
      </trkpt>
      <trkpt lat="44.28795" lon="2.19127">
        <ele>520</ele>
        <time>2021-09-02T09:30:08Z</time>
      </trkpt>
      <trkpt lat="44.28791" lon="2.19126">
        <ele>522</ele>
        <time>2021-09-02T09:30:10Z</time>
      </trkpt>
      <trkpt lat="44.28787" lon="2.19122">
        <ele>524</ele>
        <time>2021-09-02T09:30:12Z</time>
      </trkpt>
      <trkpt lat="44.28786" lon="2.19115">
        <ele>527</ele>
        <time>2021-09-02T09:30:14Z</time>
      </trkpt>
      <trkpt lat="44.28792" lon="2.19085">
        <ele>532</ele>
        <time>2021-09-02T09:30:25Z</time>
      </trkpt>
      <trkpt lat="44.28793" lon="2.19078">
        <ele>533</ele>
        <time>2021-09-02T09:30:28Z</time>
      </trkpt>
      <trkpt lat="44.28784" lon="2.19049">
        <ele>532</ele>
        <time>2021-09-02T09:30:40Z</time>
      </trkpt>
      <trkpt lat="44.28774" lon="2.19033">
        <ele>531</ele>
        <time>2021-09-02T09:30:49Z</time>
      </trkpt>
      <trkpt lat="44.28761" lon="2.19021">
        <ele>528</ele>
        <time>2021-09-02T09:30:59Z</time>
      </trkpt>
      <trkpt lat="44.28757" lon="2.19016">
        <ele>528</ele>
        <time>2021-09-02T09:31:02Z</time>
      </trkpt>
      <trkpt lat="44.28731" lon="2.1899">
        <ele>522</ele>
        <time>2021-09-02T09:31:20Z</time>
      </trkpt>
      <trkpt lat="44.28698" lon="2.1898">
        <ele>519</ele>
        <time>2021-09-02T09:31:39Z</time>
      </trkpt>
      <trkpt lat="44.28693" lon="2.18978">
        <ele>519</ele>
        <time>2021-09-02T09:31:42Z</time>
      </trkpt>
      <trkpt lat="44.28688" lon="2.18977">
        <ele>519</ele>
        <time>2021-09-02T09:31:45Z</time>
      </trkpt>
      <trkpt lat="44.28656" lon="2.18981">
        <ele>519</ele>
        <time>2021-09-02T09:32:04Z</time>
      </trkpt>
      <trkpt lat="44.28651" lon="2.1898">
        <ele>521</ele>
        <time>2021-09-02T09:32:07Z</time>
      </trkpt>
      <trkpt lat="44.28646" lon="2.18978">
        <ele>522</ele>
        <time>2021-09-02T09:32:10Z</time>
      </trkpt>
      <trkpt lat="44.28636" lon="2.18972">
        <ele>523</ele>
        <time>2021-09-02T09:32:16Z</time>
      </trkpt>
      <trkpt lat="44.28619" lon="2.1897">
        <ele>529</ele>
        <time>2021-09-02T09:32:25Z</time>
      </trkpt>
      <trkpt lat="44.28586" lon="2.18976">
        <ele>531</ele>
        <time>2021-09-02T09:32:42Z</time>
      </trkpt>
      <trkpt lat="44.28581" lon="2.18979">
        <ele>533</ele>
        <time>2021-09-02T09:32:44Z</time>
      </trkpt>
      <trkpt lat="44.28577" lon="2.18983">
        <ele>534</ele>
        <time>2021-09-02T09:32:46Z</time>
      </trkpt>
      <trkpt lat="44.28555" lon="2.19003">
        <ele>537</ele>
        <time>2021-09-02T09:33:01Z</time>
      </trkpt>
      <trkpt lat="44.28532" lon="2.19014">
        <ele>541</ele>
        <time>2021-09-02T09:33:13Z</time>
      </trkpt>
      <trkpt lat="44.28522" lon="2.19015">
        <ele>544</ele>
        <time>2021-09-02T09:33:18Z</time>
      </trkpt>
      <trkpt lat="44.28512" lon="2.19013">
        <ele>547</ele>
        <time>2021-09-02T09:33:23Z</time>
      </trkpt>
      <trkpt lat="44.28506" lon="2.19011">
        <ele>549</ele>
        <time>2021-09-02T09:33:26Z</time>
      </trkpt>
      <trkpt lat="44.28494" lon="2.18997">
        <ele>550</ele>
        <time>2021-09-02T09:33:35Z</time>
      </trkpt>
      <trkpt lat="44.28484" lon="2.18988">
        <ele>550</ele>
        <time>2021-09-02T09:33:41Z</time>
      </trkpt>
      <trkpt lat="44.28473" lon="2.18985">
        <ele>550</ele>
        <time>2021-09-02T09:33:47Z</time>
      </trkpt>
      <trkpt lat="44.28452" lon="2.18988">
        <ele>553</ele>
        <time>2021-09-02T09:33:57Z</time>
      </trkpt>
      <trkpt lat="44.28408" lon="2.19009">
        <ele>557</ele>
        <time>2021-09-02T09:34:21Z</time>
      </trkpt>
      <trkpt lat="44.28372" lon="2.19038">
        <ele>561</ele>
        <time>2021-09-02T09:34:42Z</time>
      </trkpt>
      <trkpt lat="44.28367" lon="2.19041">
        <ele>562</ele>
        <time>2021-09-02T09:34:45Z</time>
      </trkpt>
      <trkpt lat="44.28357" lon="2.19043">
        <ele>564</ele>
        <time>2021-09-02T09:34:49Z</time>
      </trkpt>
      <trkpt lat="44.28352" lon="2.19039">
        <ele>567</ele>
        <time>2021-09-02T09:34:52Z</time>
      </trkpt>
      <trkpt lat="44.2834" lon="2.19022">
        <ele>569</ele>
        <time>2021-09-02T09:35:02Z</time>
      </trkpt>
      <trkpt lat="44.28332" lon="2.19012">
        <ele>571</ele>
        <time>2021-09-02T09:35:08Z</time>
      </trkpt>
      <trkpt lat="44.28314" lon="2.19008">
        <ele>570</ele>
        <time>2021-09-02T09:35:17Z</time>
      </trkpt>
      <trkpt lat="44.28295" lon="2.19015">
        <ele>571</ele>
        <time>2021-09-02T09:35:27Z</time>
      </trkpt>
      <trkpt lat="44.2828" lon="2.19025">
        <ele>573</ele>
        <time>2021-09-02T09:35:34Z</time>
      </trkpt>
      <trkpt lat="44.28269" lon="2.19034">
        <ele>577</ele>
        <time>2021-09-02T09:35:40Z</time>
      </trkpt>
      <trkpt lat="44.2823" lon="2.19091">
        <ele>583</ele>
        <time>2021-09-02T09:36:10Z</time>
      </trkpt>
      <trkpt lat="44.28192" lon="2.19155">
        <ele>592</ele>
        <time>2021-09-02T09:36:43Z</time>
      </trkpt>
      <trkpt lat="44.28183" lon="2.19172">
        <ele>594</ele>
        <time>2021-09-02T09:36:52Z</time>
      </trkpt>
      <trkpt lat="44.28176" lon="2.19193">
        <ele>597</ele>
        <time>2021-09-02T09:37:01Z</time>
      </trkpt>
      <trkpt lat="44.28174" lon="2.1921">
        <ele>599</ele>
        <time>2021-09-02T09:37:07Z</time>
      </trkpt>
      <trkpt lat="44.28176" lon="2.19227">
        <ele>600</ele>
        <time>2021-09-02T09:37:13Z</time>
      </trkpt>
      <trkpt lat="44.28194" lon="2.19258">
        <ele>603</ele>
        <time>2021-09-02T09:37:28Z</time>
      </trkpt>
      <trkpt lat="44.28224" lon="2.19297">
        <ele>605</ele>
        <time>2021-09-02T09:37:49Z</time>
      </trkpt>
      <trkpt lat="44.28245" lon="2.19322">
        <ele>607</ele>
        <time>2021-09-02T09:38:04Z</time>
      </trkpt>
      <trkpt lat="44.28254" lon="2.19334">
        <ele>608</ele>
        <time>2021-09-02T09:38:10Z</time>
      </trkpt>
      <trkpt lat="44.28285" lon="2.19377">
        <ele>613</ele>
        <time>2021-09-02T09:38:31Z</time>
      </trkpt>
      <trkpt lat="44.28288" lon="2.19383">
        <ele>613</ele>
        <time>2021-09-02T09:38:33Z</time>
      </trkpt>
      <trkpt lat="44.2829" lon="2.194">
        <ele>611</ele>
        <time>2021-09-02T09:38:39Z</time>
      </trkpt>
      <trkpt lat="44.28279" lon="2.1945">
        <ele>609</ele>
        <time>2021-09-02T09:38:55Z</time>
      </trkpt>
      <trkpt lat="44.28281" lon="2.19473">
        <ele>606</ele>
        <time>2021-09-02T09:39:04Z</time>
      </trkpt>
      <trkpt lat="44.28282" lon="2.19482">
        <ele>606</ele>
        <time>2021-09-02T09:39:07Z</time>
      </trkpt>
      <trkpt lat="44.28283" lon="2.1949">
        <ele>605</ele>
        <time>2021-09-02T09:39:10Z</time>
      </trkpt>
      <trkpt lat="44.28285" lon="2.19519">
        <ele>601</ele>
        <time>2021-09-02T09:39:19Z</time>
      </trkpt>
      <trkpt lat="44.28286" lon="2.19525">
        <ele>600</ele>
        <time>2021-09-02T09:39:21Z</time>
      </trkpt>
      <trkpt lat="44.28286" lon="2.19533">
        <ele>599</ele>
        <time>2021-09-02T09:39:23Z</time>
      </trkpt>
      <trkpt lat="44.28285" lon="2.19547">
        <ele>601</ele>
        <time>2021-09-02T09:39:27Z</time>
      </trkpt>
      <trkpt lat="44.28282" lon="2.19555">
        <ele>602</ele>
        <time>2021-09-02T09:39:30Z</time>
      </trkpt>
      <trkpt lat="44.28278" lon="2.19561">
        <ele>602</ele>
        <time>2021-09-02T09:39:33Z</time>
      </trkpt>
      <trkpt lat="44.28272" lon="2.19564">
        <ele>601</ele>
        <time>2021-09-02T09:39:36Z</time>
      </trkpt>
      <trkpt lat="44.28253" lon="2.19569">
        <ele>601</ele>
        <time>2021-09-02T09:39:43Z</time>
      </trkpt>
      <trkpt lat="44.2824" lon="2.19573">
        <ele>600</ele>
        <time>2021-09-02T09:39:47Z</time>
      </trkpt>
      <trkpt lat="44.28222" lon="2.19576">
        <ele>599</ele>
        <time>2021-09-02T09:39:53Z</time>
      </trkpt>
      <trkpt lat="44.28197" lon="2.19576">
        <ele>600</ele>
        <time>2021-09-02T09:40:01Z</time>
      </trkpt>
      <trkpt lat="44.28164" lon="2.19575">
        <ele>606</ele>
        <time>2021-09-02T09:40:11Z</time>
      </trkpt>
      <trkpt lat="44.28151" lon="2.19579">
        <ele>607</ele>
        <time>2021-09-02T09:40:15Z</time>
      </trkpt>
      <trkpt lat="44.28138" lon="2.19587">
        <ele>608</ele>
        <time>2021-09-02T09:40:19Z</time>
      </trkpt>
      <trkpt lat="44.28125" lon="2.19598">
        <ele>610</ele>
        <time>2021-09-02T09:40:23Z</time>
      </trkpt>
      <trkpt lat="44.2807" lon="2.19692">
        <ele>621</ele>
        <time>2021-09-02T09:40:55Z</time>
      </trkpt>
      <trkpt lat="44.2804" lon="2.19748">
        <ele>623</ele>
        <time>2021-09-02T09:41:15Z</time>
      </trkpt>
      <trkpt lat="44.28036" lon="2.19754">
        <ele>624</ele>
        <time>2021-09-02T09:41:18Z</time>
      </trkpt>
      <trkpt lat="44.28035" lon="2.19758">
        <ele>625</ele>
        <time>2021-09-02T09:43:08Z</time>
      </trkpt>
      <trkpt lat="44.28039" lon="2.19763">
        <ele>625</ele>
        <time>2021-09-02T09:43:10Z</time>
      </trkpt>
      <trkpt lat="44.2808" lon="2.19796">
        <ele>630</ele>
        <time>2021-09-02T09:43:23Z</time>
      </trkpt>
      <trkpt lat="44.28107" lon="2.19824">
        <ele>632</ele>
        <time>2021-09-02T09:43:31Z</time>
      </trkpt>
      <trkpt lat="44.28122" lon="2.19852">
        <ele>634</ele>
        <time>2021-09-02T09:43:37Z</time>
      </trkpt>
      <trkpt lat="44.2813" lon="2.19882">
        <ele>634</ele>
        <time>2021-09-02T09:43:43Z</time>
      </trkpt>
      <trkpt lat="44.28149" lon="2.20023">
        <ele>635</ele>
        <time>2021-09-02T09:44:11Z</time>
      </trkpt>
      <trkpt lat="44.28163" lon="2.20057">
        <ele>636</ele>
        <time>2021-09-02T09:44:19Z</time>
      </trkpt>
      <trkpt lat="44.28258" lon="2.20168">
        <ele>637</ele>
        <time>2021-09-02T09:44:50Z</time>
      </trkpt>
      <trkpt lat="44.2832" lon="2.20238">
        <ele>638</ele>
        <time>2021-09-02T09:45:10Z</time>
      </trkpt>
      <trkpt lat="44.28329" lon="2.20257">
        <ele>637</ele>
        <time>2021-09-02T09:45:14Z</time>
      </trkpt>
      <trkpt lat="44.28331" lon="2.20278">
        <ele>638</ele>
        <time>2021-09-02T09:45:18Z</time>
      </trkpt>
      <trkpt lat="44.28318" lon="2.20438">
        <ele>642</ele>
        <time>2021-09-02T09:45:50Z</time>
      </trkpt>
      <trkpt lat="44.28298" lon="2.20582">
        <ele>646</ele>
        <time>2021-09-02T09:46:22Z</time>
      </trkpt>
      <trkpt lat="44.28285" lon="2.20711">
        <ele>650</ele>
        <time>2021-09-02T09:46:52Z</time>
      </trkpt>
      <trkpt lat="44.28274" lon="2.20832">
        <ele>652</ele>
        <time>2021-09-02T09:47:20Z</time>
      </trkpt>
      <trkpt lat="44.28264" lon="2.20921">
        <ele>653</ele>
        <time>2021-09-02T09:47:42Z</time>
      </trkpt>
      <trkpt lat="44.28256" lon="2.20996">
        <ele>655</ele>
        <time>2021-09-02T09:48:00Z</time>
      </trkpt>
      <trkpt lat="44.2827" lon="2.21087">
        <ele>662</ele>
        <time>2021-09-02T09:48:26Z</time>
      </trkpt>
      <trkpt lat="44.28271" lon="2.21093">
        <ele>662</ele>
        <time>2021-09-02T09:48:28Z</time>
      </trkpt>
      <trkpt lat="44.28282" lon="2.21194">
        <ele>669</ele>
        <time>2021-09-02T09:48:58Z</time>
      </trkpt>
      <trkpt lat="44.28287" lon="2.21262">
        <ele>671</ele>
        <time>2021-09-02T09:49:20Z</time>
      </trkpt>
      <trkpt lat="44.28288" lon="2.21268">
        <ele>671</ele>
        <time>2021-09-02T09:49:22Z</time>
      </trkpt>
      <trkpt lat="44.28287" lon="2.21283">
        <ele>669</ele>
        <time>2021-09-02T09:49:27Z</time>
      </trkpt>
      <trkpt lat="44.28289" lon="2.21288">
        <ele>670</ele>
        <time>2021-09-02T09:49:30Z</time>
      </trkpt>
      <trkpt lat="44.28294" lon="2.21292">
        <ele>674</ele>
        <time>2021-09-02T09:49:58Z</time>
      </trkpt>
      <trkpt lat="44.28301" lon="2.21337">
        <ele>675</ele>
        <time>2021-09-02T09:50:08Z</time>
      </trkpt>
      <trkpt lat="44.28301" lon="2.21358">
        <ele>675</ele>
        <time>2021-09-02T09:50:12Z</time>
      </trkpt>
      <trkpt lat="44.28316" lon="2.21456">
        <ele>673</ele>
        <time>2021-09-02T09:50:34Z</time>
      </trkpt>
      <trkpt lat="44.28334" lon="2.2159">
        <ele>676</ele>
        <time>2021-09-02T09:51:06Z</time>
      </trkpt>
      <trkpt lat="44.28349" lon="2.21713">
        <ele>678</ele>
        <time>2021-09-02T09:51:36Z</time>
      </trkpt>
      <trkpt lat="44.28365" lon="2.21837">
        <ele>682</ele>
        <time>2021-09-02T09:52:06Z</time>
      </trkpt>
      <trkpt lat="44.28376" lon="2.2192">
        <ele>682</ele>
        <time>2021-09-02T09:52:26Z</time>
      </trkpt>
      <trkpt lat="44.28395" lon="2.21971">
        <ele>683</ele>
        <time>2021-09-02T09:52:40Z</time>
      </trkpt>
      <trkpt lat="44.28412" lon="2.22007">
        <ele>680</ele>
        <time>2021-09-02T09:52:50Z</time>
      </trkpt>
      <trkpt lat="44.28428" lon="2.22064">
        <ele>681</ele>
        <time>2021-09-02T09:53:04Z</time>
      </trkpt>
      <trkpt lat="44.28428" lon="2.22098">
        <ele>682</ele>
        <time>2021-09-02T09:53:12Z</time>
      </trkpt>
      <trkpt lat="44.28428" lon="2.222">
        <ele>687</ele>
        <time>2021-09-02T09:53:42Z</time>
      </trkpt>
      <trkpt lat="44.28424" lon="2.22273">
        <ele>687</ele>
        <time>2021-09-02T09:54:03Z</time>
      </trkpt>
      <trkpt lat="44.28414" lon="2.22307">
        <ele>687</ele>
        <time>2021-09-02T09:54:14Z</time>
      </trkpt>
      <trkpt lat="44.28409" lon="2.2232">
        <ele>688</ele>
        <time>2021-09-02T09:54:18Z</time>
      </trkpt>
      <trkpt lat="44.28391" lon="2.22341">
        <ele>688</ele>
        <time>2021-09-02T09:54:28Z</time>
      </trkpt>
      <trkpt lat="44.2836" lon="2.22358">
        <ele>691</ele>
        <time>2021-09-02T09:54:42Z</time>
      </trkpt>
      <trkpt lat="44.28315" lon="2.22361">
        <ele>696</ele>
        <time>2021-09-02T09:55:00Z</time>
      </trkpt>
      <trkpt lat="44.28299" lon="2.22359">
        <ele>697</ele>
        <time>2021-09-02T09:55:06Z</time>
      </trkpt>
      <trkpt lat="44.28262" lon="2.22362">
        <ele>700</ele>
        <time>2021-09-02T09:55:21Z</time>
      </trkpt>
      <trkpt lat="44.28247" lon="2.22371">
        <ele>699</ele>
        <time>2021-09-02T09:55:28Z</time>
      </trkpt>
      <trkpt lat="44.28235" lon="2.22386">
        <ele>700</ele>
        <time>2021-09-02T09:55:34Z</time>
      </trkpt>
      <trkpt lat="44.28205" lon="2.22464">
        <ele>703</ele>
        <time>2021-09-02T09:55:58Z</time>
      </trkpt>
      <trkpt lat="44.2818" lon="2.22564">
        <ele>707</ele>
        <time>2021-09-02T09:56:28Z</time>
      </trkpt>
      <trkpt lat="44.28162" lon="2.2267">
        <ele>712</ele>
        <time>2021-09-02T09:56:59Z</time>
      </trkpt>
      <trkpt lat="44.28155" lon="2.2275">
        <ele>714</ele>
        <time>2021-09-02T09:57:21Z</time>
      </trkpt>
      <trkpt lat="44.28156" lon="2.22757">
        <ele>714</ele>
        <time>2021-09-02T09:57:23Z</time>
      </trkpt>
      <trkpt lat="44.28153" lon="2.2277">
        <ele>715</ele>
        <time>2021-09-02T09:57:27Z</time>
      </trkpt>
      <trkpt lat="44.28147" lon="2.22781">
        <ele>713</ele>
        <time>2021-09-02T09:58:31Z</time>
      </trkpt>
      <trkpt lat="44.2806" lon="2.22845">
        <ele>705</ele>
        <time>2021-09-02T09:58:54Z</time>
      </trkpt>
      <trkpt lat="44.28032" lon="2.22857">
        <ele>704</ele>
        <time>2021-09-02T09:58:58Z</time>
      </trkpt>
      <trkpt lat="44.27848" lon="2.2284">
        <ele>694</ele>
        <time>2021-09-02T09:59:22Z</time>
      </trkpt>
      <trkpt lat="44.27651" lon="2.22826">
        <ele>684</ele>
        <time>2021-09-02T09:59:46Z</time>
      </trkpt>
      <trkpt lat="44.27618" lon="2.22833">
        <ele>684</ele>
        <time>2021-09-02T09:59:51Z</time>
      </trkpt>
      <trkpt lat="44.27492" lon="2.2289">
        <ele>679</ele>
        <time>2021-09-02T10:00:06Z</time>
      </trkpt>
      <trkpt lat="44.27475" lon="2.22892">
        <ele>678</ele>
        <time>2021-09-02T10:00:08Z</time>
      </trkpt>
      <trkpt lat="44.27442" lon="2.22881">
        <ele>677</ele>
        <time>2021-09-02T10:00:12Z</time>
      </trkpt>
      <trkpt lat="44.27244" lon="2.22767">
        <ele>671</ele>
        <time>2021-09-02T10:00:42Z</time>
      </trkpt>
      <trkpt lat="44.27068" lon="2.22626">
        <ele>667</ele>
        <time>2021-09-02T10:01:12Z</time>
      </trkpt>
      <trkpt lat="44.26946" lon="2.22512">
        <ele>662</ele>
        <time>2021-09-02T10:01:32Z</time>
      </trkpt>
      <trkpt lat="44.26923" lon="2.22505">
        <ele>660</ele>
        <time>2021-09-02T10:01:35Z</time>
      </trkpt>
      <trkpt lat="44.26894" lon="2.22509">
        <ele>659</ele>
        <time>2021-09-02T10:01:39Z</time>
      </trkpt>
      <trkpt lat="44.26691" lon="2.22575">
        <ele>652</ele>
        <time>2021-09-02T10:02:09Z</time>
      </trkpt>
      <trkpt lat="44.26574" lon="2.2258">
        <ele>647</ele>
        <time>2021-09-02T10:02:25Z</time>
      </trkpt>
      <trkpt lat="44.26421" lon="2.22561">
        <ele>644</ele>
        <time>2021-09-02T10:02:54Z</time>
      </trkpt>
      <trkpt lat="44.26345" lon="2.2254">
        <ele>641</ele>
        <time>2021-09-02T10:03:10Z</time>
      </trkpt>
      <trkpt lat="44.26209" lon="2.22522">
        <ele>638</ele>
        <time>2021-09-02T10:03:40Z</time>
      </trkpt>
      <trkpt lat="44.26173" lon="2.22519">
        <ele>639</ele>
        <time>2021-09-02T10:03:47Z</time>
      </trkpt>
      <trkpt lat="44.26169" lon="2.22517">
        <ele>640</ele>
        <time>2021-09-02T10:03:48Z</time>
      </trkpt>
      <trkpt lat="44.26161" lon="2.22515">
        <ele>639</ele>
        <time>2021-09-02T10:03:50Z</time>
      </trkpt>
      <trkpt lat="44.26156" lon="2.22513">
        <ele>639</ele>
        <time>2021-09-02T10:03:51Z</time>
      </trkpt>
      <trkpt lat="44.26152" lon="2.22511">
        <ele>638</ele>
        <time>2021-09-02T10:03:52Z</time>
      </trkpt>
      <trkpt lat="44.26134" lon="2.2251">
        <ele>636</ele>
        <time>2021-09-02T10:03:56Z</time>
      </trkpt>
      <trkpt lat="44.26129" lon="2.22509">
        <ele>636</ele>
        <time>2021-09-02T10:03:57Z</time>
      </trkpt>
      <trkpt lat="44.26066" lon="2.22519">
        <ele>627</ele>
        <time>2021-09-02T10:04:06Z</time>
      </trkpt>
      <trkpt lat="44.25881" lon="2.22621">
        <ele>625</ele>
        <time>2021-09-02T10:04:37Z</time>
      </trkpt>
      <trkpt lat="44.25737" lon="2.22708">
        <ele>621</ele>
        <time>2021-09-02T10:05:07Z</time>
      </trkpt>
      <trkpt lat="44.2557" lon="2.22795">
        <ele>616</ele>
        <time>2021-09-02T10:05:37Z</time>
      </trkpt>
      <trkpt lat="44.2543" lon="2.22844">
        <ele>611</ele>
        <time>2021-09-02T10:06:01Z</time>
      </trkpt>
      <trkpt lat="44.25302" lon="2.22914">
        <ele>601</ele>
        <time>2021-09-02T10:06:22Z</time>
      </trkpt>
      <trkpt lat="44.25183" lon="2.22941">
        <ele>597</ele>
        <time>2021-09-02T10:06:41Z</time>
      </trkpt>
      <trkpt lat="44.25138" lon="2.2294">
        <ele>599</ele>
        <time>2021-09-02T10:06:48Z</time>
      </trkpt>
      <trkpt lat="44.25102" lon="2.22925">
        <ele>601</ele>
        <time>2021-09-02T10:06:54Z</time>
      </trkpt>
      <trkpt lat="44.25038" lon="2.22886">
        <ele>602</ele>
        <time>2021-09-02T10:07:06Z</time>
      </trkpt>
      <trkpt lat="44.24841" lon="2.22827">
        <ele>594</ele>
        <time>2021-09-02T10:07:37Z</time>
      </trkpt>
      <trkpt lat="44.24768" lon="2.22805">
        <ele>593</ele>
        <time>2021-09-02T10:08:44Z</time>
      </trkpt>
      <trkpt lat="44.24617" lon="2.22763">
        <ele>590</ele>
        <time>2021-09-02T10:09:15Z</time>
      </trkpt>
      <trkpt lat="44.24422" lon="2.22721">
        <ele>589</ele>
        <time>2021-09-02T10:09:46Z</time>
      </trkpt>
      <trkpt lat="44.24316" lon="2.22694">
        <ele>587</ele>
        <time>2021-09-02T10:10:09Z</time>
      </trkpt>
      <trkpt lat="44.24255" lon="2.22661">
        <ele>587</ele>
        <time>2021-09-02T10:10:21Z</time>
      </trkpt>
      <trkpt lat="44.24224" lon="2.2263">
        <ele>588</ele>
        <time>2021-09-02T10:10:28Z</time>
      </trkpt>
      <trkpt lat="44.2414" lon="2.22511">
        <ele>588</ele>
        <time>2021-09-02T10:10:52Z</time>
      </trkpt>
      <trkpt lat="44.24134" lon="2.22508">
        <ele>588</ele>
        <time>2021-09-02T10:10:54Z</time>
      </trkpt>
      <trkpt lat="44.2413" lon="2.2251">
        <ele>587</ele>
        <time>2021-09-02T10:10:57Z</time>
      </trkpt>
      <trkpt lat="44.24126" lon="2.22524">
        <ele>588</ele>
        <time>2021-09-02T10:11:40Z</time>
      </trkpt>
      <trkpt lat="44.24105" lon="2.22637">
        <ele>582</ele>
        <time>2021-09-02T10:11:59Z</time>
      </trkpt>
      <trkpt lat="44.24097" lon="2.22668">
        <ele>581</ele>
        <time>2021-09-02T10:12:04Z</time>
      </trkpt>
      <trkpt lat="44.24089" lon="2.22715">
        <ele>580</ele>
        <time>2021-09-02T10:12:11Z</time>
      </trkpt>
      <trkpt lat="44.24096" lon="2.22796">
        <ele>573</ele>
        <time>2021-09-02T10:12:23Z</time>
      </trkpt>
      <trkpt lat="44.24095" lon="2.22812">
        <ele>572</ele>
        <time>2021-09-02T10:12:25Z</time>
      </trkpt>
      <trkpt lat="44.24092" lon="2.22819">
        <ele>571</ele>
        <time>2021-09-02T10:12:26Z</time>
      </trkpt>
      <trkpt lat="44.24085" lon="2.22831">
        <ele>571</ele>
        <time>2021-09-02T10:12:28Z</time>
      </trkpt>
      <trkpt lat="44.24053" lon="2.22851">
        <ele>566</ele>
        <time>2021-09-02T10:12:35Z</time>
      </trkpt>
      <trkpt lat="44.24041" lon="2.22857">
        <ele>564</ele>
        <time>2021-09-02T10:12:39Z</time>
      </trkpt>
      <trkpt lat="44.24036" lon="2.2286">
        <ele>563</ele>
        <time>2021-09-02T10:12:41Z</time>
      </trkpt>
      <trkpt lat="44.23981" lon="2.22884">
        <ele>551</ele>
        <time>2021-09-02T10:12:51Z</time>
      </trkpt>
      <trkpt lat="44.23946" lon="2.22883">
        <ele>551</ele>
        <time>2021-09-02T10:12:56Z</time>
      </trkpt>
      <trkpt lat="44.23879" lon="2.22862">
        <ele>548</ele>
        <time>2021-09-02T10:13:08Z</time>
      </trkpt>
      <trkpt lat="44.23862" lon="2.22859">
        <ele>546</ele>
        <time>2021-09-02T10:13:11Z</time>
      </trkpt>
      <trkpt lat="44.23842" lon="2.22863">
        <ele>544</ele>
        <time>2021-09-02T10:13:14Z</time>
      </trkpt>
      <trkpt lat="44.23822" lon="2.22874">
        <ele>542</ele>
        <time>2021-09-02T10:13:17Z</time>
      </trkpt>
      <trkpt lat="44.23806" lon="2.22894">
        <ele>541</ele>
        <time>2021-09-02T10:13:20Z</time>
      </trkpt>
      <trkpt lat="44.23798" lon="2.2291">
        <ele>539</ele>
        <time>2021-09-02T10:13:22Z</time>
      </trkpt>
      <trkpt lat="44.23792" lon="2.22939">
        <ele>536</ele>
        <time>2021-09-02T10:13:25Z</time>
      </trkpt>
      <trkpt lat="44.2379" lon="2.22958">
        <ele>535</ele>
        <time>2021-09-02T10:13:27Z</time>
      </trkpt>
      <trkpt lat="44.23785" lon="2.22976">
        <ele>534</ele>
        <time>2021-09-02T10:13:29Z</time>
      </trkpt>
      <trkpt lat="44.23776" lon="2.22993">
        <ele>533</ele>
        <time>2021-09-02T10:13:31Z</time>
      </trkpt>
      <trkpt lat="44.23605" lon="2.23165">
        <ele>523</ele>
        <time>2021-09-02T10:13:58Z</time>
      </trkpt>
      <trkpt lat="44.23597" lon="2.2318">
        <ele>523</ele>
        <time>2021-09-02T10:14:00Z</time>
      </trkpt>
      <trkpt lat="44.23586" lon="2.2323">
        <ele>523</ele>
        <time>2021-09-02T10:14:05Z</time>
      </trkpt>
      <trkpt lat="44.23569" lon="2.234">
        <ele>517</ele>
        <time>2021-09-02T10:14:21Z</time>
      </trkpt>
      <trkpt lat="44.2357" lon="2.23408">
        <ele>517</ele>
        <time>2021-09-02T10:14:22Z</time>
      </trkpt>
      <trkpt lat="44.23572" lon="2.23415">
        <ele>516</ele>
        <time>2021-09-02T10:14:23Z</time>
      </trkpt>
      <trkpt lat="44.23575" lon="2.23421">
        <ele>516</ele>
        <time>2021-09-02T10:14:24Z</time>
      </trkpt>
      <trkpt lat="44.2358" lon="2.23427">
        <ele>515</ele>
        <time>2021-09-02T10:14:25Z</time>
      </trkpt>
      <trkpt lat="44.2359" lon="2.23436">
        <ele>514</ele>
        <time>2021-09-02T10:14:27Z</time>
      </trkpt>
      <trkpt lat="44.23638" lon="2.23444">
        <ele>512</ele>
        <time>2021-09-02T10:14:34Z</time>
      </trkpt>
      <trkpt lat="44.23653" lon="2.2345">
        <ele>511</ele>
        <time>2021-09-02T10:14:36Z</time>
      </trkpt>
      <trkpt lat="44.2366" lon="2.23455">
        <ele>510</ele>
        <time>2021-09-02T10:14:37Z</time>
      </trkpt>
      <trkpt lat="44.23664" lon="2.2346">
        <ele>510</ele>
        <time>2021-09-02T10:14:38Z</time>
      </trkpt>
      <trkpt lat="44.23666" lon="2.23467">
        <ele>509</ele>
        <time>2021-09-02T10:14:39Z</time>
      </trkpt>
      <trkpt lat="44.23667" lon="2.23486">
        <ele>507</ele>
        <time>2021-09-02T10:14:41Z</time>
      </trkpt>
      <trkpt lat="44.23667" lon="2.23496">
        <ele>507</ele>
        <time>2021-09-02T10:14:42Z</time>
      </trkpt>
      <trkpt lat="44.23666" lon="2.23503">
        <ele>506</ele>
        <time>2021-09-02T10:14:43Z</time>
      </trkpt>
      <trkpt lat="44.23662" lon="2.2351">
        <ele>505</ele>
        <time>2021-09-02T10:14:44Z</time>
      </trkpt>
      <trkpt lat="44.23653" lon="2.23519">
        <ele>504</ele>
        <time>2021-09-02T10:14:46Z</time>
      </trkpt>
      <trkpt lat="44.23637" lon="2.23527">
        <ele>503</ele>
        <time>2021-09-02T10:14:49Z</time>
      </trkpt>
      <trkpt lat="44.23613" lon="2.23534">
        <ele>504</ele>
        <time>2021-09-02T10:14:54Z</time>
      </trkpt>
      <trkpt lat="44.23597" lon="2.23532">
        <ele>502</ele>
        <time>2021-09-02T10:15:00Z</time>
      </trkpt>
      <trkpt lat="44.23579" lon="2.23539">
        <ele>502</ele>
        <time>2021-09-02T10:15:09Z</time>
      </trkpt>
      <trkpt lat="44.23515" lon="2.23586">
        <ele>514</ele>
        <time>2021-09-02T10:15:40Z</time>
      </trkpt>
      <trkpt lat="44.2351" lon="2.23589">
        <ele>515</ele>
        <time>2021-09-02T10:15:43Z</time>
      </trkpt>
      <trkpt lat="44.23464" lon="2.23624">
        <ele>518</ele>
        <time>2021-09-02T10:16:13Z</time>
      </trkpt>
      <trkpt lat="44.23409" lon="2.23661">
        <ele>522</ele>
        <time>2021-09-02T10:16:44Z</time>
      </trkpt>
      <trkpt lat="44.23366" lon="2.23696">
        <ele>525</ele>
        <time>2021-09-02T10:17:02Z</time>
      </trkpt>
      <trkpt lat="44.23357" lon="2.23706">
        <ele>525</ele>
        <time>2021-09-02T10:17:06Z</time>
      </trkpt>
      <trkpt lat="44.23347" lon="2.23725">
        <ele>524</ele>
        <time>2021-09-02T10:17:12Z</time>
      </trkpt>
      <trkpt lat="44.23342" lon="2.23741">
        <ele>523</ele>
        <time>2021-09-02T10:17:16Z</time>
      </trkpt>
      <trkpt lat="44.2334" lon="2.23759">
        <ele>523</ele>
        <time>2021-09-02T10:17:20Z</time>
      </trkpt>
      <trkpt lat="44.23343" lon="2.23789">
        <ele>525</ele>
        <time>2021-09-02T10:17:26Z</time>
      </trkpt>
      <trkpt lat="44.23354" lon="2.23815">
        <ele>525</ele>
        <time>2021-09-02T10:17:31Z</time>
      </trkpt>
      <trkpt lat="44.23433" lon="2.2393">
        <ele>524</ele>
        <time>2021-09-02T10:17:51Z</time>
      </trkpt>
      <trkpt lat="44.23468" lon="2.2396">
        <ele>521</ele>
        <time>2021-09-02T10:17:58Z</time>
      </trkpt>
      <trkpt lat="44.23472" lon="2.23965">
        <ele>521</ele>
        <time>2021-09-02T10:17:59Z</time>
      </trkpt>
      <trkpt lat="44.23476" lon="2.23979">
        <ele>520</ele>
        <time>2021-09-02T10:18:01Z</time>
      </trkpt>
      <trkpt lat="44.23477" lon="2.23987">
        <ele>518</ele>
        <time>2021-09-02T10:18:02Z</time>
      </trkpt>
      <trkpt lat="44.23476" lon="2.23996">
        <ele>518</ele>
        <time>2021-09-02T10:18:03Z</time>
      </trkpt>
      <trkpt lat="44.23475" lon="2.24004">
        <ele>517</ele>
        <time>2021-09-02T10:18:04Z</time>
      </trkpt>
      <trkpt lat="44.23473" lon="2.24013">
        <ele>516</ele>
        <time>2021-09-02T10:18:05Z</time>
      </trkpt>
      <trkpt lat="44.23469" lon="2.24021">
        <ele>516</ele>
        <time>2021-09-02T10:18:06Z</time>
      </trkpt>
      <trkpt lat="44.23454" lon="2.24036">
        <ele>513</ele>
        <time>2021-09-02T10:18:09Z</time>
      </trkpt>
      <trkpt lat="44.23264" lon="2.24126">
        <ele>492</ele>
        <time>2021-09-02T10:18:35Z</time>
      </trkpt>
      <trkpt lat="44.23213" lon="2.24132">
        <ele>488</ele>
        <time>2021-09-02T10:18:42Z</time>
      </trkpt>
      <trkpt lat="44.232" lon="2.2414">
        <ele>486</ele>
        <time>2021-09-02T10:18:44Z</time>
      </trkpt>
      <trkpt lat="44.23189" lon="2.24152">
        <ele>485</ele>
        <time>2021-09-02T10:18:46Z</time>
      </trkpt>
      <trkpt lat="44.23181" lon="2.24168">
        <ele>483</ele>
        <time>2021-09-02T10:18:48Z</time>
      </trkpt>
      <trkpt lat="44.23176" lon="2.24186">
        <ele>482</ele>
        <time>2021-09-02T10:18:50Z</time>
      </trkpt>
      <trkpt lat="44.23174" lon="2.24195">
        <ele>481</ele>
        <time>2021-09-02T10:18:51Z</time>
      </trkpt>
      <trkpt lat="44.23185" lon="2.2427">
        <ele>475</ele>
        <time>2021-09-02T10:18:59Z</time>
      </trkpt>
      <trkpt lat="44.23192" lon="2.24287">
        <ele>474</ele>
        <time>2021-09-02T10:19:01Z</time>
      </trkpt>
      <trkpt lat="44.23205" lon="2.24305">
        <ele>471</ele>
        <time>2021-09-02T10:19:04Z</time>
      </trkpt>
      <trkpt lat="44.23212" lon="2.2432">
        <ele>471</ele>
        <time>2021-09-02T10:19:06Z</time>
      </trkpt>
      <trkpt lat="44.23214" lon="2.24329">
        <ele>470</ele>
        <time>2021-09-02T10:19:07Z</time>
      </trkpt>
      <trkpt lat="44.23215" lon="2.24346">
        <ele>469</ele>
        <time>2021-09-02T10:19:09Z</time>
      </trkpt>
      <trkpt lat="44.2321" lon="2.24365">
        <ele>469</ele>
        <time>2021-09-02T10:19:11Z</time>
      </trkpt>
      <trkpt lat="44.23177" lon="2.24433">
        <ele>469</ele>
        <time>2021-09-02T10:19:19Z</time>
      </trkpt>
      <trkpt lat="44.23171" lon="2.24459">
        <ele>468</ele>
        <time>2021-09-02T10:19:22Z</time>
      </trkpt>
      <trkpt lat="44.23169" lon="2.24506">
        <ele>467</ele>
        <time>2021-09-02T10:19:27Z</time>
      </trkpt>
      <trkpt lat="44.23179" lon="2.24562">
        <ele>464</ele>
        <time>2021-09-02T10:19:33Z</time>
      </trkpt>
      <trkpt lat="44.23181" lon="2.24568">
        <ele>464</ele>
        <time>2021-09-02T10:19:34Z</time>
      </trkpt>
      <trkpt lat="44.23187" lon="2.2458">
        <ele>463</ele>
        <time>2021-09-02T10:19:36Z</time>
      </trkpt>
      <trkpt lat="44.23202" lon="2.24598">
        <ele>462</ele>
        <time>2021-09-02T10:19:40Z</time>
      </trkpt>
      <trkpt lat="44.23226" lon="2.24609">
        <ele>462</ele>
        <time>2021-09-02T10:19:44Z</time>
      </trkpt>
      <trkpt lat="44.2338" lon="2.24582">
        <ele>459</ele>
        <time>2021-09-02T10:20:04Z</time>
      </trkpt>
      <trkpt lat="44.23387" lon="2.24579">
        <ele>458</ele>
        <time>2021-09-02T10:20:05Z</time>
      </trkpt>
      <trkpt lat="44.23392" lon="2.24574">
        <ele>458</ele>
        <time>2021-09-02T10:20:06Z</time>
      </trkpt>
      <trkpt lat="44.23403" lon="2.2456">
        <ele>457</ele>
        <time>2021-09-02T10:20:09Z</time>
      </trkpt>
      <trkpt lat="44.2341" lon="2.24549">
        <ele>456</ele>
        <time>2021-09-02T10:20:11Z</time>
      </trkpt>
      <trkpt lat="44.23416" lon="2.24546">
        <ele>456</ele>
        <time>2021-09-02T10:20:12Z</time>
      </trkpt>
      <trkpt lat="44.23446" lon="2.24562">
        <ele>454</ele>
        <time>2021-09-02T10:20:17Z</time>
      </trkpt>
      <trkpt lat="44.23458" lon="2.24566">
        <ele>453</ele>
        <time>2021-09-02T10:20:19Z</time>
      </trkpt>
      <trkpt lat="44.23465" lon="2.24565">
        <ele>453</ele>
        <time>2021-09-02T10:20:20Z</time>
      </trkpt>
      <trkpt lat="44.23471" lon="2.24566">
        <ele>452</ele>
        <time>2021-09-02T10:20:21Z</time>
      </trkpt>
      <trkpt lat="44.23575" lon="2.24551">
        <ele>442</ele>
        <time>2021-09-02T10:20:36Z</time>
      </trkpt>
      <trkpt lat="44.23594" lon="2.24538">
        <ele>441</ele>
        <time>2021-09-02T10:20:38Z</time>
      </trkpt>
      <trkpt lat="44.23617" lon="2.24533">
        <ele>439</ele>
        <time>2021-09-02T10:20:40Z</time>
      </trkpt>
      <trkpt lat="44.23636" lon="2.24536">
        <ele>435</ele>
        <time>2021-09-02T10:20:42Z</time>
      </trkpt>
      <trkpt lat="44.23693" lon="2.24561">
        <ele>430</ele>
        <time>2021-09-02T10:20:49Z</time>
      </trkpt>
      <trkpt lat="44.23701" lon="2.24567">
        <ele>429</ele>
        <time>2021-09-02T10:20:50Z</time>
      </trkpt>
      <trkpt lat="44.23708" lon="2.24576">
        <ele>430</ele>
        <time>2021-09-02T10:20:51Z</time>
      </trkpt>
      <trkpt lat="44.23713" lon="2.24587">
        <ele>431</ele>
        <time>2021-09-02T10:20:52Z</time>
      </trkpt>
      <trkpt lat="44.23716" lon="2.24598">
        <ele>430</ele>
        <time>2021-09-02T10:20:53Z</time>
      </trkpt>
      <trkpt lat="44.23714" lon="2.24628">
        <ele>430</ele>
        <time>2021-09-02T10:20:55Z</time>
      </trkpt>
      <trkpt lat="44.23688" lon="2.24744">
        <ele>427</ele>
        <time>2021-09-02T10:21:05Z</time>
      </trkpt>
      <trkpt lat="44.23679" lon="2.24759">
        <ele>427</ele>
        <time>2021-09-02T10:21:07Z</time>
      </trkpt>
      <trkpt lat="44.23669" lon="2.24768">
        <ele>428</ele>
        <time>2021-09-02T10:21:09Z</time>
      </trkpt>
      <trkpt lat="44.23665" lon="2.24772">
        <ele>429</ele>
        <time>2021-09-02T10:21:10Z</time>
      </trkpt>
      <trkpt lat="44.2365" lon="2.24777">
        <ele>429</ele>
        <time>2021-09-02T10:21:14Z</time>
      </trkpt>
      <trkpt lat="44.23639" lon="2.2478">
        <ele>430</ele>
        <time>2021-09-02T10:21:19Z</time>
      </trkpt>
      <trkpt lat="44.2363" lon="2.24783">
        <ele>435</ele>
        <time>2021-09-02T10:22:03Z</time>
      </trkpt>
      <trkpt lat="44.23613" lon="2.24787">
        <ele>437</ele>
        <time>2021-09-02T10:22:32Z</time>
      </trkpt>
      <trkpt lat="44.23597" lon="2.24794">
        <ele>433</ele>
        <time>2021-09-02T10:22:40Z</time>
      </trkpt>
      <trkpt lat="44.23587" lon="2.248">
        <ele>432</ele>
        <time>2021-09-02T10:22:46Z</time>
      </trkpt>
      <trkpt lat="44.23518" lon="2.24817">
        <ele>429</ele>
        <time>2021-09-02T10:23:18Z</time>
      </trkpt>
      <trkpt lat="44.23491" lon="2.24838">
        <ele>420</ele>
        <time>2021-09-02T10:23:32Z</time>
      </trkpt>
      <trkpt lat="44.23472" lon="2.24839">
        <ele>418</ele>
        <time>2021-09-02T10:23:39Z</time>
      </trkpt>
      <trkpt lat="44.23458" lon="2.24835">
        <ele>421</ele>
        <time>2021-09-02T10:23:45Z</time>
      </trkpt>
      <trkpt lat="44.23453" lon="2.24832">
        <ele>422</ele>
        <time>2021-09-02T10:23:47Z</time>
      </trkpt>
      <trkpt lat="44.23447" lon="2.24829">
        <ele>423</ele>
        <time>2021-09-02T10:23:49Z</time>
      </trkpt>
      <trkpt lat="44.23432" lon="2.24827">
        <ele>427</ele>
        <time>2021-09-02T10:23:55Z</time>
      </trkpt>
      <trkpt lat="44.23427" lon="2.24829">
        <ele>427</ele>
        <time>2021-09-02T10:23:57Z</time>
      </trkpt>
      <trkpt lat="44.23418" lon="2.24835">
        <ele>428</ele>
        <time>2021-09-02T10:24:01Z</time>
      </trkpt>
      <trkpt lat="44.23408" lon="2.24856">
        <ele>426</ele>
        <time>2021-09-02T10:24:10Z</time>
      </trkpt>
      <trkpt lat="44.23404" lon="2.24866">
        <ele>425</ele>
        <time>2021-09-02T10:24:13Z</time>
      </trkpt>
      <trkpt lat="44.23399" lon="2.24871">
        <ele>423</ele>
        <time>2021-09-02T10:24:16Z</time>
      </trkpt>
      <trkpt lat="44.2339" lon="2.24873">
        <ele>424</ele>
        <time>2021-09-02T10:24:19Z</time>
      </trkpt>
      <trkpt lat="44.2338" lon="2.24869">
        <ele>428</ele>
        <time>2021-09-02T10:24:23Z</time>
      </trkpt>
      <trkpt lat="44.23375" lon="2.24866">
        <ele>429</ele>
        <time>2021-09-02T10:24:25Z</time>
      </trkpt>
      <trkpt lat="44.23359" lon="2.24861">
        <ele>430</ele>
        <time>2021-09-02T10:24:32Z</time>
      </trkpt>
      <trkpt lat="44.23324" lon="2.24871">
        <ele>433</ele>
        <time>2021-09-02T10:24:48Z</time>
      </trkpt>
      <trkpt lat="44.233" lon="2.24886">
        <ele>433</ele>
        <time>2021-09-02T10:25:02Z</time>
      </trkpt>
      <trkpt lat="44.23295" lon="2.2489">
        <ele>432</ele>
        <time>2021-09-02T10:25:05Z</time>
      </trkpt>
      <trkpt lat="44.23291" lon="2.24893">
        <ele>432</ele>
        <time>2021-09-02T10:25:07Z</time>
      </trkpt>
      <trkpt lat="44.23243" lon="2.24942">
        <ele>427</ele>
        <time>2021-09-02T10:25:33Z</time>
      </trkpt>
      <trkpt lat="44.23232" lon="2.2495">
        <ele>428</ele>
        <time>2021-09-02T10:25:37Z</time>
      </trkpt>
      <trkpt lat="44.23219" lon="2.24953">
        <ele>430</ele>
        <time>2021-09-02T10:25:41Z</time>
      </trkpt>
      <trkpt lat="44.23213" lon="2.24954">
        <ele>431</ele>
        <time>2021-09-02T10:25:43Z</time>
      </trkpt>
      <trkpt lat="44.23208" lon="2.24953">
        <ele>433</ele>
        <time>2021-09-02T10:25:45Z</time>
      </trkpt>
      <trkpt lat="44.23203" lon="2.2495">
        <ele>435</ele>
        <time>2021-09-02T10:25:48Z</time>
      </trkpt>
      <trkpt lat="44.23195" lon="2.24943">
        <ele>438</ele>
        <time>2021-09-02T10:25:54Z</time>
      </trkpt>
      <trkpt lat="44.23184" lon="2.24937">
        <ele>439</ele>
        <time>2021-09-02T10:25:59Z</time>
      </trkpt>
      <trkpt lat="44.23167" lon="2.24933">
        <ele>440</ele>
        <time>2021-09-02T10:26:05Z</time>
      </trkpt>
      <trkpt lat="44.2314" lon="2.24925">
        <ele>442</ele>
        <time>2021-09-02T10:26:16Z</time>
      </trkpt>
      <trkpt lat="44.23134" lon="2.24922">
        <ele>442</ele>
        <time>2021-09-02T10:26:19Z</time>
      </trkpt>
      <trkpt lat="44.23088" lon="2.24913">
        <ele>447</ele>
        <time>2021-09-02T10:26:42Z</time>
      </trkpt>
      <trkpt lat="44.2308" lon="2.24909">
        <ele>448</ele>
        <time>2021-09-02T10:26:46Z</time>
      </trkpt>
      <trkpt lat="44.23067" lon="2.24899">
        <ele>451</ele>
        <time>2021-09-02T10:26:54Z</time>
      </trkpt>
      <trkpt lat="44.23059" lon="2.24894">
        <ele>454</ele>
        <time>2021-09-02T10:26:58Z</time>
      </trkpt>
      <trkpt lat="44.23017" lon="2.24861">
        <ele>466</ele>
        <time>2021-09-02T10:27:20Z</time>
      </trkpt>
      <trkpt lat="44.23002" lon="2.24842">
        <ele>471</ele>
        <time>2021-09-02T10:27:30Z</time>
      </trkpt>
      <trkpt lat="44.22997" lon="2.24838">
        <ele>471</ele>
        <time>2021-09-02T10:27:33Z</time>
      </trkpt>
      <trkpt lat="44.22992" lon="2.24835">
        <ele>472</ele>
        <time>2021-09-02T10:27:36Z</time>
      </trkpt>
      <trkpt lat="44.22986" lon="2.24832">
        <ele>475</ele>
        <time>2021-09-02T10:27:39Z</time>
      </trkpt>
      <trkpt lat="44.2298" lon="2.24832">
        <ele>476</ele>
        <time>2021-09-02T10:27:42Z</time>
      </trkpt>
      <trkpt lat="44.22975" lon="2.24835">
        <ele>476</ele>
        <time>2021-09-02T10:27:45Z</time>
      </trkpt>
      <trkpt lat="44.2297" lon="2.24841">
        <ele>476</ele>
        <time>2021-09-02T10:27:48Z</time>
      </trkpt>
      <trkpt lat="44.22967" lon="2.24846">
        <ele>476</ele>
        <time>2021-09-02T10:27:50Z</time>
      </trkpt>
      <trkpt lat="44.22962" lon="2.24859">
        <ele>476</ele>
        <time>2021-09-02T10:27:54Z</time>
      </trkpt>
      <trkpt lat="44.22963" lon="2.24948">
        <ele>473</ele>
        <time>2021-09-02T10:28:18Z</time>
      </trkpt>
      <trkpt lat="44.2295" lon="2.25016">
        <ele>465</ele>
        <time>2021-09-02T10:28:38Z</time>
      </trkpt>
      <trkpt lat="44.22949" lon="2.2507">
        <ele>461</ele>
        <time>2021-09-02T10:28:52Z</time>
      </trkpt>
      <trkpt lat="44.22968" lon="2.2522">
        <ele>461</ele>
        <time>2021-09-02T10:29:24Z</time>
      </trkpt>
      <trkpt lat="44.22977" lon="2.25277">
        <ele>458</ele>
        <time>2021-09-02T10:29:34Z</time>
      </trkpt>
      <trkpt lat="44.22984" lon="2.25308">
        <ele>457</ele>
        <time>2021-09-02T10:29:40Z</time>
      </trkpt>
      <trkpt lat="44.22989" lon="2.25365">
        <ele>457</ele>
        <time>2021-09-02T10:29:50Z</time>
      </trkpt>
      <trkpt lat="44.22997" lon="2.25398">
        <ele>457</ele>
        <time>2021-09-02T10:29:56Z</time>
      </trkpt>
      <trkpt lat="44.23015" lon="2.25436">
        <ele>456</ele>
        <time>2021-09-02T10:30:04Z</time>
      </trkpt>
      <trkpt lat="44.2304" lon="2.25527">
        <ele>450</ele>
        <time>2021-09-02T10:30:22Z</time>
      </trkpt>
      <trkpt lat="44.23052" lon="2.25559">
        <ele>451</ele>
        <time>2021-09-02T10:30:28Z</time>
      </trkpt>
      <trkpt lat="44.23056" lon="2.2557">
        <ele>452</ele>
        <time>2021-09-02T10:30:30Z</time>
      </trkpt>
      <trkpt lat="44.23058" lon="2.25581">
        <ele>453</ele>
        <time>2021-09-02T10:30:32Z</time>
      </trkpt>
      <trkpt lat="44.23059" lon="2.25591">
        <ele>452</ele>
        <time>2021-09-02T10:30:34Z</time>
      </trkpt>
      <trkpt lat="44.23057" lon="2.25601">
        <ele>452</ele>
        <time>2021-09-02T10:30:36Z</time>
      </trkpt>
      <trkpt lat="44.23048" lon="2.25619">
        <ele>454</ele>
        <time>2021-09-02T10:30:40Z</time>
      </trkpt>
      <trkpt lat="44.23019" lon="2.25656">
        <ele>469</ele>
        <time>2021-09-02T10:30:54Z</time>
      </trkpt>
      <trkpt lat="44.23016" lon="2.25661">
        <ele>470</ele>
        <time>2021-09-02T10:30:56Z</time>
      </trkpt>
      <trkpt lat="44.23008" lon="2.25673">
        <ele>473</ele>
        <time>2021-09-02T10:31:01Z</time>
      </trkpt>
      <trkpt lat="44.23004" lon="2.25681">
        <ele>475</ele>
        <time>2021-09-02T10:31:04Z</time>
      </trkpt>
      <trkpt lat="44.22982" lon="2.25754">
        <ele>480</ele>
        <time>2021-09-02T10:31:29Z</time>
      </trkpt>
      <trkpt lat="44.22973" lon="2.25794">
        <ele>483</ele>
        <time>2021-09-02T10:31:44Z</time>
      </trkpt>
      <trkpt lat="44.22952" lon="2.25874">
        <ele>488</ele>
        <time>2021-09-02T10:32:14Z</time>
      </trkpt>
      <trkpt lat="44.22936" lon="2.25959">
        <ele>497</ele>
        <time>2021-09-02T10:32:42Z</time>
      </trkpt>
      <trkpt lat="44.22935" lon="2.25966">
        <ele>498</ele>
        <time>2021-09-02T10:32:45Z</time>
      </trkpt>
      <trkpt lat="44.22934" lon="2.25974">
        <ele>499</ele>
        <time>2021-09-02T10:32:49Z</time>
      </trkpt>
      <trkpt lat="44.22933" lon="2.2598">
        <ele>500</ele>
        <time>2021-09-02T10:32:52Z</time>
      </trkpt>
      <trkpt lat="44.2293" lon="2.25987">
        <ele>500</ele>
        <time>2021-09-02T10:32:55Z</time>
      </trkpt>
      <trkpt lat="44.22929" lon="2.25994">
        <ele>501</ele>
        <time>2021-09-02T10:32:57Z</time>
      </trkpt>
      <trkpt lat="44.2293" lon="2.26002">
        <ele>501</ele>
        <time>2021-09-02T10:32:59Z</time>
      </trkpt>
      <trkpt lat="44.22947" lon="2.26052">
        <ele>505</ele>
        <time>2021-09-02T10:33:13Z</time>
      </trkpt>
      <trkpt lat="44.22974" lon="2.26123">
        <ele>506</ele>
        <time>2021-09-02T10:33:26Z</time>
      </trkpt>
      <trkpt lat="44.22986" lon="2.26169">
        <ele>507</ele>
        <time>2021-09-02T10:33:34Z</time>
      </trkpt>
      <trkpt lat="44.22991" lon="2.26326">
        <ele>501</ele>
        <time>2021-09-02T10:34:01Z</time>
      </trkpt>
      <trkpt lat="44.23009" lon="2.26373">
        <ele>501</ele>
        <time>2021-09-02T10:34:09Z</time>
      </trkpt>
      <trkpt lat="44.23028" lon="2.26411">
        <ele>500</ele>
        <time>2021-09-02T10:34:15Z</time>
      </trkpt>
      <trkpt lat="44.23089" lon="2.26474">
        <ele>496</ele>
        <time>2021-09-02T10:34:26Z</time>
      </trkpt>
      <trkpt lat="44.23096" lon="2.26491">
        <ele>495</ele>
        <time>2021-09-02T10:34:28Z</time>
      </trkpt>
      <trkpt lat="44.23143" lon="2.26743">
        <ele>492</ele>
        <time>2021-09-02T10:34:58Z</time>
      </trkpt>
      <trkpt lat="44.23168" lon="2.26921">
        <ele>486</ele>
        <time>2021-09-02T10:35:24Z</time>
      </trkpt>
      <trkpt lat="44.2317" lon="2.27166">
        <ele>482</ele>
        <time>2021-09-02T10:35:54Z</time>
      </trkpt>
      <trkpt lat="44.23139" lon="2.27474">
        <ele>480</ele>
        <time>2021-09-02T10:36:20Z</time>
      </trkpt>
      <trkpt lat="44.23129" lon="2.27506">
        <ele>479</ele>
        <time>2021-09-02T10:36:23Z</time>
      </trkpt>
      <trkpt lat="44.22982" lon="2.27818">
        <ele>461</ele>
        <time>2021-09-02T10:36:53Z</time>
      </trkpt>
      <trkpt lat="44.22834" lon="2.28177">
        <ele>438</ele>
        <time>2021-09-02T10:37:24Z</time>
      </trkpt>
      <trkpt lat="44.22789" lon="2.28325">
        <ele>430</ele>
        <time>2021-09-02T10:37:37Z</time>
      </trkpt>
      <trkpt lat="44.22786" lon="2.28354">
        <ele>428</ele>
        <time>2021-09-02T10:37:40Z</time>
      </trkpt>
      <trkpt lat="44.22789" lon="2.28401">
        <ele>422</ele>
        <time>2021-09-02T10:37:45Z</time>
      </trkpt>
      <trkpt lat="44.22771" lon="2.28488">
        <ele>415</ele>
        <time>2021-09-02T10:37:53Z</time>
      </trkpt>
      <trkpt lat="44.22758" lon="2.28531">
        <ele>412</ele>
        <time>2021-09-02T10:37:57Z</time>
      </trkpt>
      <trkpt lat="44.22756" lon="2.28542">
        <ele>411</ele>
        <time>2021-09-02T10:37:58Z</time>
      </trkpt>
      <trkpt lat="44.22755" lon="2.28553">
        <ele>410</ele>
        <time>2021-09-02T10:37:59Z</time>
      </trkpt>
      <trkpt lat="44.22756" lon="2.28563">
        <ele>409</ele>
        <time>2021-09-02T10:38:00Z</time>
      </trkpt>
      <trkpt lat="44.2276" lon="2.28579">
        <ele>408</ele>
        <time>2021-09-02T10:38:02Z</time>
      </trkpt>
      <trkpt lat="44.22767" lon="2.2859">
        <ele>407</ele>
        <time>2021-09-02T10:38:04Z</time>
      </trkpt>
      <trkpt lat="44.22848" lon="2.28551">
        <ele>397</ele>
        <time>2021-09-02T10:38:15Z</time>
      </trkpt>
      <trkpt lat="44.2291" lon="2.28462">
        <ele>388</ele>
        <time>2021-09-02T10:38:25Z</time>
      </trkpt>
      <trkpt lat="44.22928" lon="2.28408">
        <ele>383</ele>
        <time>2021-09-02T10:38:30Z</time>
      </trkpt>
      <trkpt lat="44.22938" lon="2.28393">
        <ele>382</ele>
        <time>2021-09-02T10:38:32Z</time>
      </trkpt>
      <trkpt lat="44.22965" lon="2.28374">
        <ele>380</ele>
        <time>2021-09-02T10:38:36Z</time>
      </trkpt>
      <trkpt lat="44.22983" lon="2.28368">
        <ele>379</ele>
        <time>2021-09-02T10:38:38Z</time>
      </trkpt>
      <trkpt lat="44.23031" lon="2.28374">
        <ele>374</ele>
        <time>2021-09-02T10:38:43Z</time>
      </trkpt>
      <trkpt lat="44.23038" lon="2.28378">
        <ele>374</ele>
        <time>2021-09-02T10:38:44Z</time>
      </trkpt>
      <trkpt lat="44.23046" lon="2.28383">
        <ele>373</ele>
        <time>2021-09-02T10:38:45Z</time>
      </trkpt>
      <trkpt lat="44.23062" lon="2.28394">
        <ele>372</ele>
        <time>2021-09-02T10:38:47Z</time>
      </trkpt>
      <trkpt lat="44.23069" lon="2.28403">
        <ele>373</ele>
        <time>2021-09-02T10:38:48Z</time>
      </trkpt>
      <trkpt lat="44.23073" lon="2.28412">
        <ele>374</ele>
        <time>2021-09-02T10:38:49Z</time>
      </trkpt>
      <trkpt lat="44.23075" lon="2.2842">
        <ele>376</ele>
        <time>2021-09-02T10:38:50Z</time>
      </trkpt>
      <trkpt lat="44.23077" lon="2.28427">
        <ele>378</ele>
        <time>2021-09-02T10:38:51Z</time>
      </trkpt>
      <trkpt lat="44.23074" lon="2.28433">
        <ele>379</ele>
        <time>2021-09-02T10:38:52Z</time>
      </trkpt>
      <trkpt lat="44.23068" lon="2.28436">
        <ele>381</ele>
        <time>2021-09-02T10:38:53Z</time>
      </trkpt>
      <trkpt lat="44.23036" lon="2.28432">
        <ele>380</ele>
        <time>2021-09-02T10:38:57Z</time>
      </trkpt>
      <trkpt lat="44.23022" lon="2.28435">
        <ele>379</ele>
        <time>2021-09-02T10:38:59Z</time>
      </trkpt>
      <trkpt lat="44.2301" lon="2.28445">
        <ele>379</ele>
        <time>2021-09-02T10:39:01Z</time>
      </trkpt>
      <trkpt lat="44.23001" lon="2.28458">
        <ele>379</ele>
        <time>2021-09-02T10:39:03Z</time>
      </trkpt>
      <trkpt lat="44.22995" lon="2.28472">
        <ele>380</ele>
        <time>2021-09-02T10:39:05Z</time>
      </trkpt>
      <trkpt lat="44.22984" lon="2.28535">
        <ele>380</ele>
        <time>2021-09-02T10:39:14Z</time>
      </trkpt>
      <trkpt lat="44.22983" lon="2.28545">
        <ele>380</ele>
        <time>2021-09-02T10:39:16Z</time>
      </trkpt>
      <trkpt lat="44.22974" lon="2.28578">
        <ele>375</ele>
        <time>2021-09-02T10:39:29Z</time>
      </trkpt>
      <trkpt lat="44.2297" lon="2.28595">
        <ele>374</ele>
        <time>2021-09-02T10:39:35Z</time>
      </trkpt>
      <trkpt lat="44.22965" lon="2.286">
        <ele>373</ele>
        <time>2021-09-02T10:39:44Z</time>
      </trkpt>
      <trkpt lat="44.22956" lon="2.2861">
        <ele>369</ele>
        <time>2021-09-02T10:39:53Z</time>
      </trkpt>
      <trkpt lat="44.22952" lon="2.28616">
        <ele>369</ele>
        <time>2021-09-02T10:39:56Z</time>
      </trkpt>
      <trkpt lat="44.22942" lon="2.28631">
        <ele>368</ele>
        <time>2021-09-02T10:40:02Z</time>
      </trkpt>
      <trkpt lat="44.22937" lon="2.2864">
        <ele>366</ele>
        <time>2021-09-02T10:40:06Z</time>
      </trkpt>
      <trkpt lat="44.22932" lon="2.28652">
        <ele>364</ele>
        <time>2021-09-02T10:40:09Z</time>
      </trkpt>
      <trkpt lat="44.22927" lon="2.28662">
        <ele>361</ele>
        <time>2021-09-02T10:40:12Z</time>
      </trkpt>
      <trkpt lat="44.22921" lon="2.28671">
        <ele>358</ele>
        <time>2021-09-02T10:40:15Z</time>
      </trkpt>
      <trkpt lat="44.2291" lon="2.28686">
        <ele>354</ele>
        <time>2021-09-02T10:40:19Z</time>
      </trkpt>
      <trkpt lat="44.22905" lon="2.28693">
        <ele>352</ele>
        <time>2021-09-02T10:40:21Z</time>
      </trkpt>
      <trkpt lat="44.229" lon="2.28698">
        <ele>352</ele>
        <time>2021-09-02T10:40:24Z</time>
      </trkpt>
      <trkpt lat="44.22894" lon="2.28703">
        <ele>351</ele>
        <time>2021-09-02T10:40:27Z</time>
      </trkpt>
      <trkpt lat="44.22886" lon="2.28709">
        <ele>352</ele>
        <time>2021-09-02T10:40:45Z</time>
      </trkpt>
      <trkpt lat="44.22874" lon="2.28714">
        <ele>358</ele>
        <time>2021-09-02T10:40:50Z</time>
      </trkpt>
      <trkpt lat="44.22867" lon="2.28715">
        <ele>361</ele>
        <time>2021-09-02T10:40:52Z</time>
      </trkpt>
      <trkpt lat="44.22854" lon="2.28716">
        <ele>365</ele>
        <time>2021-09-02T10:40:55Z</time>
      </trkpt>
      <trkpt lat="44.22842" lon="2.28716">
        <ele>370</ele>
        <time>2021-09-02T10:40:59Z</time>
      </trkpt>
      <trkpt lat="44.22836" lon="2.28712">
        <ele>373</ele>
        <time>2021-09-02T10:41:01Z</time>
      </trkpt>
      <trkpt lat="44.22832" lon="2.2871">
        <ele>375</ele>
        <time>2021-09-02T10:41:03Z</time>
      </trkpt>
      <trkpt lat="44.22826" lon="2.28709">
        <ele>378</ele>
        <time>2021-09-02T10:41:06Z</time>
      </trkpt>
      <trkpt lat="44.22821" lon="2.2871">
        <ele>380</ele>
        <time>2021-09-02T10:41:10Z</time>
      </trkpt>
      <trkpt lat="44.22819" lon="2.28716">
        <ele>382</ele>
        <time>2021-09-02T10:41:38Z</time>
      </trkpt>
      <trkpt lat="44.22816" lon="2.28726">
        <ele>382</ele>
        <time>2021-09-02T10:41:41Z</time>
      </trkpt>
      <trkpt lat="44.22804" lon="2.28752">
        <ele>381</ele>
        <time>2021-09-02T10:41:47Z</time>
      </trkpt>
      <trkpt lat="44.22764" lon="2.28816">
        <ele>372</ele>
        <time>2021-09-02T10:42:01Z</time>
      </trkpt>
      <trkpt lat="44.22758" lon="2.28827">
        <ele>373</ele>
        <time>2021-09-02T10:42:03Z</time>
      </trkpt>
      <trkpt lat="44.22753" lon="2.28835">
        <ele>374</ele>
        <time>2021-09-02T10:42:05Z</time>
      </trkpt>
      <trkpt lat="44.22747" lon="2.28848">
        <ele>376</ele>
        <time>2021-09-02T10:42:09Z</time>
      </trkpt>
      <trkpt lat="44.22743" lon="2.28853">
        <ele>381</ele>
        <time>2021-09-02T10:45:45Z</time>
      </trkpt>
      <trkpt lat="44.22739" lon="2.28857">
        <ele>381</ele>
        <time>2021-09-02T11:00:06Z</time>
      </trkpt>
      <trkpt lat="44.22744" lon="2.2886">
        <ele>381</ele>
        <time>2021-09-02T11:06:21Z</time>
      </trkpt>
      <trkpt lat="44.22748" lon="2.28857">
        <ele>381</ele>
        <time>2021-09-02T11:06:23Z</time>
      </trkpt>
      <trkpt lat="44.22751" lon="2.28849">
        <ele>381</ele>
        <time>2021-09-02T11:06:25Z</time>
      </trkpt>
      <trkpt lat="44.22753" lon="2.28841">
        <ele>382</ele>
        <time>2021-09-02T11:06:27Z</time>
      </trkpt>
      <trkpt lat="44.22751" lon="2.28834">
        <ele>384</ele>
        <time>2021-09-02T11:06:31Z</time>
      </trkpt>
      <trkpt lat="44.22741" lon="2.28836">
        <ele>386</ele>
        <time>2021-09-02T11:06:35Z</time>
      </trkpt>
      <trkpt lat="44.22738" lon="2.28842">
        <ele>386</ele>
        <time>2021-09-02T11:06:37Z</time>
      </trkpt>
      <trkpt lat="44.22736" lon="2.2885">
        <ele>387</ele>
        <time>2021-09-02T11:06:39Z</time>
      </trkpt>
      <trkpt lat="44.22735" lon="2.2886">
        <ele>387</ele>
        <time>2021-09-02T11:06:41Z</time>
      </trkpt>
      <trkpt lat="44.22741" lon="2.28877">
        <ele>387</ele>
        <time>2021-09-02T11:06:45Z</time>
      </trkpt>
      <trkpt lat="44.22754" lon="2.28889">
        <ele>387</ele>
        <time>2021-09-02T11:06:49Z</time>
      </trkpt>
      <trkpt lat="44.22771" lon="2.28896">
        <ele>387</ele>
        <time>2021-09-02T11:06:53Z</time>
      </trkpt>
      <trkpt lat="44.2279" lon="2.28896">
        <ele>386</ele>
        <time>2021-09-02T11:06:57Z</time>
      </trkpt>
      <trkpt lat="44.22818" lon="2.28893">
        <ele>385</ele>
        <time>2021-09-02T11:07:02Z</time>
      </trkpt>
      <trkpt lat="44.22824" lon="2.28894">
        <ele>385</ele>
        <time>2021-09-02T11:07:03Z</time>
      </trkpt>
      <trkpt lat="44.22845" lon="2.28908">
        <ele>388</ele>
        <time>2021-09-02T11:07:07Z</time>
      </trkpt>
      <trkpt lat="44.22852" lon="2.28915">
        <ele>388</ele>
        <time>2021-09-02T11:07:08Z</time>
      </trkpt>
      <trkpt lat="44.22879" lon="2.28932">
        <ele>387</ele>
        <time>2021-09-02T11:07:13Z</time>
      </trkpt>
      <trkpt lat="44.22899" lon="2.28954">
        <ele>386</ele>
        <time>2021-09-02T11:07:17Z</time>
      </trkpt>
      <trkpt lat="44.22925" lon="2.28972">
        <ele>387</ele>
        <time>2021-09-02T11:07:22Z</time>
      </trkpt>
      <trkpt lat="44.22928" lon="2.28979">
        <ele>387</ele>
        <time>2021-09-02T11:07:23Z</time>
      </trkpt>
      <trkpt lat="44.22942" lon="2.29033">
        <ele>388</ele>
        <time>2021-09-02T11:07:29Z</time>
      </trkpt>
      <trkpt lat="44.22946" lon="2.29059">
        <ele>389</ele>
        <time>2021-09-02T11:07:32Z</time>
      </trkpt>
      <trkpt lat="44.22942" lon="2.29079">
        <ele>389</ele>
        <time>2021-09-02T11:07:35Z</time>
      </trkpt>
      <trkpt lat="44.22929" lon="2.29128">
        <ele>384</ele>
        <time>2021-09-02T11:07:41Z</time>
      </trkpt>
      <trkpt lat="44.22929" lon="2.29137">
        <ele>382</ele>
        <time>2021-09-02T11:07:42Z</time>
      </trkpt>
      <trkpt lat="44.22928" lon="2.29145">
        <ele>380</ele>
        <time>2021-09-02T11:07:43Z</time>
      </trkpt>
      <trkpt lat="44.22929" lon="2.29151">
        <ele>379</ele>
        <time>2021-09-02T11:07:44Z</time>
      </trkpt>
      <trkpt lat="44.22932" lon="2.29163">
        <ele>376</ele>
        <time>2021-09-02T11:07:46Z</time>
      </trkpt>
      <trkpt lat="44.22949" lon="2.2918">
        <ele>373</ele>
        <time>2021-09-02T11:07:49Z</time>
      </trkpt>
      <trkpt lat="44.22976" lon="2.29203">
        <ele>367</ele>
        <time>2021-09-02T11:07:53Z</time>
      </trkpt>
      <trkpt lat="44.2301" lon="2.29237">
        <ele>365</ele>
        <time>2021-09-02T11:07:58Z</time>
      </trkpt>
      <trkpt lat="44.23031" lon="2.29287">
        <ele>367</ele>
        <time>2021-09-02T11:08:03Z</time>
      </trkpt>
      <trkpt lat="44.23035" lon="2.29305">
        <ele>368</ele>
        <time>2021-09-02T11:08:05Z</time>
      </trkpt>
      <trkpt lat="44.23036" lon="2.29312">
        <ele>369</ele>
        <time>2021-09-02T11:08:06Z</time>
      </trkpt>
      <trkpt lat="44.23043" lon="2.29313">
        <ele>370</ele>
        <time>2021-09-02T11:08:08Z</time>
      </trkpt>
      <trkpt lat="44.23077" lon="2.29305">
        <ele>374</ele>
        <time>2021-09-02T11:08:21Z</time>
      </trkpt>
      <trkpt lat="44.23083" lon="2.29301">
        <ele>376</ele>
        <time>2021-09-02T11:08:25Z</time>
      </trkpt>
      <trkpt lat="44.23105" lon="2.29294">
        <ele>375</ele>
        <time>2021-09-02T11:08:39Z</time>
      </trkpt>
      <trkpt lat="44.2311" lon="2.2929">
        <ele>375</ele>
        <time>2021-09-02T11:08:42Z</time>
      </trkpt>
      <trkpt lat="44.23121" lon="2.29284">
        <ele>374</ele>
        <time>2021-09-02T11:08:49Z</time>
      </trkpt>
      <trkpt lat="44.23136" lon="2.29277">
        <ele>373</ele>
        <time>2021-09-02T11:08:56Z</time>
      </trkpt>
      <trkpt lat="44.23158" lon="2.29267">
        <ele>371</ele>
        <time>2021-09-02T11:09:07Z</time>
      </trkpt>
      <trkpt lat="44.2318" lon="2.29247">
        <ele>374</ele>
        <time>2021-09-02T11:09:18Z</time>
      </trkpt>
      <trkpt lat="44.23183" lon="2.29242">
        <ele>376</ele>
        <time>2021-09-02T11:09:21Z</time>
      </trkpt>
      <trkpt lat="44.23187" lon="2.29236">
        <ele>377</ele>
        <time>2021-09-02T11:09:24Z</time>
      </trkpt>
      <trkpt lat="44.23194" lon="2.29224">
        <ele>379</ele>
        <time>2021-09-02T11:09:30Z</time>
      </trkpt>
      <trkpt lat="44.23205" lon="2.29204">
        <ele>383</ele>
        <time>2021-09-02T11:09:39Z</time>
      </trkpt>
      <trkpt lat="44.23221" lon="2.29173">
        <ele>386</ele>
        <time>2021-09-02T11:09:52Z</time>
      </trkpt>
      <trkpt lat="44.23232" lon="2.29155">
        <ele>388</ele>
        <time>2021-09-02T11:10:01Z</time>
      </trkpt>
      <trkpt lat="44.23243" lon="2.29147">
        <ele>390</ele>
        <time>2021-09-02T11:10:07Z</time>
      </trkpt>
      <trkpt lat="44.23292" lon="2.29092">
        <ele>392</ele>
        <time>2021-09-02T11:10:39Z</time>
      </trkpt>
      <trkpt lat="44.23297" lon="2.29088">
        <ele>392</ele>
        <time>2021-09-02T11:10:42Z</time>
      </trkpt>
      <trkpt lat="44.23302" lon="2.29084">
        <ele>393</ele>
        <time>2021-09-02T11:10:45Z</time>
      </trkpt>
      <trkpt lat="44.23308" lon="2.29084">
        <ele>393</ele>
        <time>2021-09-02T11:10:48Z</time>
      </trkpt>
      <trkpt lat="44.23322" lon="2.29096">
        <ele>395</ele>
        <time>2021-09-02T11:10:57Z</time>
      </trkpt>
      <trkpt lat="44.23325" lon="2.29101">
        <ele>396</ele>
        <time>2021-09-02T11:11:01Z</time>
      </trkpt>
      <trkpt lat="44.23333" lon="2.29112">
        <ele>396</ele>
        <time>2021-09-02T11:11:10Z</time>
      </trkpt>
      <trkpt lat="44.23336" lon="2.29116">
        <ele>396</ele>
        <time>2021-09-02T11:11:13Z</time>
      </trkpt>
      <trkpt lat="44.23341" lon="2.2912">
        <ele>396</ele>
        <time>2021-09-02T11:11:16Z</time>
      </trkpt>
      <trkpt lat="44.23351" lon="2.29128">
        <ele>396</ele>
        <time>2021-09-02T11:11:23Z</time>
      </trkpt>
      <trkpt lat="44.23358" lon="2.29128">
        <ele>396</ele>
        <time>2021-09-02T11:11:26Z</time>
      </trkpt>
      <trkpt lat="44.23365" lon="2.29128">
        <ele>396</ele>
        <time>2021-09-02T11:11:30Z</time>
      </trkpt>
      <trkpt lat="44.23372" lon="2.29131">
        <ele>396</ele>
        <time>2021-09-02T11:11:34Z</time>
      </trkpt>
      <trkpt lat="44.23378" lon="2.29132">
        <ele>397</ele>
        <time>2021-09-02T11:11:37Z</time>
      </trkpt>
      <trkpt lat="44.23399" lon="2.29134">
        <ele>397</ele>
        <time>2021-09-02T11:11:49Z</time>
      </trkpt>
      <trkpt lat="44.23406" lon="2.29132">
        <ele>397</ele>
        <time>2021-09-02T11:11:54Z</time>
      </trkpt>
      <trkpt lat="44.23412" lon="2.29128">
        <ele>396</ele>
        <time>2021-09-02T11:11:59Z</time>
      </trkpt>
      <trkpt lat="44.23417" lon="2.29123">
        <ele>394</ele>
        <time>2021-09-02T11:12:04Z</time>
      </trkpt>
      <trkpt lat="44.23423" lon="2.29118">
        <ele>394</ele>
        <time>2021-09-02T11:12:07Z</time>
      </trkpt>
      <trkpt lat="44.23434" lon="2.2911">
        <ele>398</ele>
        <time>2021-09-02T11:12:12Z</time>
      </trkpt>
      <trkpt lat="44.23459" lon="2.29098">
        <ele>400</ele>
        <time>2021-09-02T11:12:22Z</time>
      </trkpt>
      <trkpt lat="44.23493" lon="2.29079">
        <ele>405</ele>
        <time>2021-09-02T11:12:43Z</time>
      </trkpt>
      <trkpt lat="44.23505" lon="2.29074">
        <ele>405</ele>
        <time>2021-09-02T11:12:49Z</time>
      </trkpt>
      <trkpt lat="44.23528" lon="2.29065">
        <ele>405</ele>
        <time>2021-09-02T11:13:00Z</time>
      </trkpt>
      <trkpt lat="44.23538" lon="2.29066">
        <ele>402</ele>
        <time>2021-09-02T11:13:05Z</time>
      </trkpt>
      <trkpt lat="44.23549" lon="2.2906">
        <ele>408</ele>
        <time>2021-09-02T11:13:11Z</time>
      </trkpt>
      <trkpt lat="44.23555" lon="2.29063">
        <ele>413</ele>
        <time>2021-09-02T11:13:15Z</time>
      </trkpt>
      <trkpt lat="44.23559" lon="2.29068">
        <ele>414</ele>
        <time>2021-09-02T11:13:18Z</time>
      </trkpt>
      <trkpt lat="44.23562" lon="2.29073">
        <ele>417</ele>
        <time>2021-09-02T11:13:21Z</time>
      </trkpt>
      <trkpt lat="44.23564" lon="2.2908">
        <ele>417</ele>
        <time>2021-09-02T11:13:24Z</time>
      </trkpt>
      <trkpt lat="44.23563" lon="2.29087">
        <ele>419</ele>
        <time>2021-09-02T11:13:27Z</time>
      </trkpt>
      <trkpt lat="44.23558" lon="2.291">
        <ele>420</ele>
        <time>2021-09-02T11:13:33Z</time>
      </trkpt>
      <trkpt lat="44.23553" lon="2.29105">
        <ele>420</ele>
        <time>2021-09-02T11:13:36Z</time>
      </trkpt>
      <trkpt lat="44.2355" lon="2.2911">
        <ele>420</ele>
        <time>2021-09-02T11:13:39Z</time>
      </trkpt>
      <trkpt lat="44.23539" lon="2.29126">
        <ele>420</ele>
        <time>2021-09-02T11:13:48Z</time>
      </trkpt>
      <trkpt lat="44.23522" lon="2.29151">
        <ele>421</ele>
        <time>2021-09-02T11:14:03Z</time>
      </trkpt>
      <trkpt lat="44.23519" lon="2.29158">
        <ele>422</ele>
        <time>2021-09-02T11:14:08Z</time>
      </trkpt>
      <trkpt lat="44.23518" lon="2.29165">
        <ele>422</ele>
        <time>2021-09-02T11:14:11Z</time>
      </trkpt>
      <trkpt lat="44.23517" lon="2.29172">
        <ele>422</ele>
        <time>2021-09-02T11:14:14Z</time>
      </trkpt>
      <trkpt lat="44.23509" lon="2.29202">
        <ele>422</ele>
        <time>2021-09-02T11:14:26Z</time>
      </trkpt>
      <trkpt lat="44.23506" lon="2.29208">
        <ele>421</ele>
        <time>2021-09-02T11:14:28Z</time>
      </trkpt>
      <trkpt lat="44.23485" lon="2.29256">
        <ele>419</ele>
        <time>2021-09-02T11:14:46Z</time>
      </trkpt>
      <trkpt lat="44.23483" lon="2.29265">
        <ele>420</ele>
        <time>2021-09-02T11:14:49Z</time>
      </trkpt>
      <trkpt lat="44.2348" lon="2.29272">
        <ele>421</ele>
        <time>2021-09-02T11:14:52Z</time>
      </trkpt>
      <trkpt lat="44.23473" lon="2.293">
        <ele>420</ele>
        <time>2021-09-02T11:15:03Z</time>
      </trkpt>
      <trkpt lat="44.23473" lon="2.29315">
        <ele>419</ele>
        <time>2021-09-02T11:15:09Z</time>
      </trkpt>
      <trkpt lat="44.23472" lon="2.29324">
        <ele>418</ele>
        <time>2021-09-02T11:15:12Z</time>
      </trkpt>
      <trkpt lat="44.23472" lon="2.29332">
        <ele>417</ele>
        <time>2021-09-02T11:15:15Z</time>
      </trkpt>
      <trkpt lat="44.23478" lon="2.29364">
        <ele>416</ele>
        <time>2021-09-02T11:15:27Z</time>
      </trkpt>
      <trkpt lat="44.23491" lon="2.29397">
        <ele>421</ele>
        <time>2021-09-02T11:15:41Z</time>
      </trkpt>
      <trkpt lat="44.23494" lon="2.29412">
        <ele>421</ele>
        <time>2021-09-02T11:15:46Z</time>
      </trkpt>
      <trkpt lat="44.23529" lon="2.29475">
        <ele>425</ele>
        <time>2021-09-02T11:16:13Z</time>
      </trkpt>
      <trkpt lat="44.23531" lon="2.29484">
        <ele>426</ele>
        <time>2021-09-02T11:16:16Z</time>
      </trkpt>
      <trkpt lat="44.23532" lon="2.29507">
        <ele>430</ele>
        <time>2021-09-02T11:16:25Z</time>
      </trkpt>
      <trkpt lat="44.2353" lon="2.29513">
        <ele>432</ele>
        <time>2021-09-02T11:16:28Z</time>
      </trkpt>
      <trkpt lat="44.23526" lon="2.29539">
        <ele>433</ele>
        <time>2021-09-02T11:16:35Z</time>
      </trkpt>
      <trkpt lat="44.23526" lon="2.29553">
        <ele>434</ele>
        <time>2021-09-02T11:16:39Z</time>
      </trkpt>
      <trkpt lat="44.23533" lon="2.29572">
        <ele>435</ele>
        <time>2021-09-02T11:16:46Z</time>
      </trkpt>
      <trkpt lat="44.23537" lon="2.29618">
        <ele>437</ele>
        <time>2021-09-02T11:16:58Z</time>
      </trkpt>
      <trkpt lat="44.23561" lon="2.29707">
        <ele>438</ele>
        <time>2021-09-02T11:17:27Z</time>
      </trkpt>
      <trkpt lat="44.23568" lon="2.2975">
        <ele>439</ele>
        <time>2021-09-02T11:17:39Z</time>
      </trkpt>
      <trkpt lat="44.23573" lon="2.29765">
        <ele>439</ele>
        <time>2021-09-02T11:17:43Z</time>
      </trkpt>
      <trkpt lat="44.23581" lon="2.29778">
        <ele>440</ele>
        <time>2021-09-02T11:17:47Z</time>
      </trkpt>
      <trkpt lat="44.23604" lon="2.29792">
        <ele>441</ele>
        <time>2021-09-02T11:17:55Z</time>
      </trkpt>
      <trkpt lat="44.23615" lon="2.29803">
        <ele>442</ele>
        <time>2021-09-02T11:17:59Z</time>
      </trkpt>
      <trkpt lat="44.23657" lon="2.29907">
        <ele>443</ele>
        <time>2021-09-02T11:18:23Z</time>
      </trkpt>
      <trkpt lat="44.23666" lon="2.29974">
        <ele>443</ele>
        <time>2021-09-02T11:18:37Z</time>
      </trkpt>
      <trkpt lat="44.23668" lon="2.29983">
        <ele>444</ele>
        <time>2021-09-02T11:18:39Z</time>
      </trkpt>
      <trkpt lat="44.23697" lon="2.30006">
        <ele>448</ele>
        <time>2021-09-02T11:18:49Z</time>
      </trkpt>
      <trkpt lat="44.23703" lon="2.30011">
        <ele>449</ele>
        <time>2021-09-02T11:18:51Z</time>
      </trkpt>
      <trkpt lat="44.23707" lon="2.30018">
        <ele>450</ele>
        <time>2021-09-02T11:18:53Z</time>
      </trkpt>
      <trkpt lat="44.2371" lon="2.30025">
        <ele>452</ele>
        <time>2021-09-02T11:18:55Z</time>
      </trkpt>
      <trkpt lat="44.2371" lon="2.30046">
        <ele>455</ele>
        <time>2021-09-02T11:19:01Z</time>
      </trkpt>
      <trkpt lat="44.23699" lon="2.30138">
        <ele>458</ele>
        <time>2021-09-02T11:19:33Z</time>
      </trkpt>
      <trkpt lat="44.23697" lon="2.30156">
        <ele>458</ele>
        <time>2021-09-02T11:19:39Z</time>
      </trkpt>
      <trkpt lat="44.23695" lon="2.30162">
        <ele>458</ele>
        <time>2021-09-02T11:19:41Z</time>
      </trkpt>
      <trkpt lat="44.23694" lon="2.30169">
        <ele>459</ele>
        <time>2021-09-02T11:19:43Z</time>
      </trkpt>
      <trkpt lat="44.23694" lon="2.30176">
        <ele>459</ele>
        <time>2021-09-02T11:19:45Z</time>
      </trkpt>
      <trkpt lat="44.23693" lon="2.30183">
        <ele>460</ele>
        <time>2021-09-02T11:19:47Z</time>
      </trkpt>
      <trkpt lat="44.23691" lon="2.30207">
        <ele>463</ele>
        <time>2021-09-02T11:19:54Z</time>
      </trkpt>
      <trkpt lat="44.23691" lon="2.30235">
        <ele>465</ele>
        <time>2021-09-02T11:20:03Z</time>
      </trkpt>
      <trkpt lat="44.23706" lon="2.30305">
        <ele>471</ele>
        <time>2021-09-02T11:20:27Z</time>
      </trkpt>
      <trkpt lat="44.23738" lon="2.30386">
        <ele>473</ele>
        <time>2021-09-02T11:20:49Z</time>
      </trkpt>
      <trkpt lat="44.23747" lon="2.30426">
        <ele>475</ele>
        <time>2021-09-02T11:21:00Z</time>
      </trkpt>
      <trkpt lat="44.23749" lon="2.30432">
        <ele>475</ele>
        <time>2021-09-02T11:21:02Z</time>
      </trkpt>
      <trkpt lat="44.23754" lon="2.30447">
        <ele>476</ele>
        <time>2021-09-02T11:21:06Z</time>
      </trkpt>
      <trkpt lat="44.23796" lon="2.30602">
        <ele>477</ele>
        <time>2021-09-02T11:21:37Z</time>
      </trkpt>
      <trkpt lat="44.23797" lon="2.30619">
        <ele>476</ele>
        <time>2021-09-02T11:21:39Z</time>
      </trkpt>
      <trkpt lat="44.23796" lon="2.30628">
        <ele>476</ele>
        <time>2021-09-02T11:21:40Z</time>
      </trkpt>
      <trkpt lat="44.23789" lon="2.30644">
        <ele>476</ele>
        <time>2021-09-02T11:21:42Z</time>
      </trkpt>
      <trkpt lat="44.23773" lon="2.30664">
        <ele>474</ele>
        <time>2021-09-02T11:21:45Z</time>
      </trkpt>
      <trkpt lat="44.2376" lon="2.30673">
        <ele>473</ele>
        <time>2021-09-02T11:21:47Z</time>
      </trkpt>
      <trkpt lat="44.23746" lon="2.30676">
        <ele>471</ele>
        <time>2021-09-02T11:21:49Z</time>
      </trkpt>
      <trkpt lat="44.23739" lon="2.30675">
        <ele>470</ele>
        <time>2021-09-02T11:21:50Z</time>
      </trkpt>
      <trkpt lat="44.23732" lon="2.30672">
        <ele>469</ele>
        <time>2021-09-02T11:21:51Z</time>
      </trkpt>
      <trkpt lat="44.23727" lon="2.30666">
        <ele>469</ele>
        <time>2021-09-02T11:21:52Z</time>
      </trkpt>
      <trkpt lat="44.23713" lon="2.3064">
        <ele>466</ele>
        <time>2021-09-02T11:21:55Z</time>
      </trkpt>
      <trkpt lat="44.23708" lon="2.30633">
        <ele>466</ele>
        <time>2021-09-02T11:21:56Z</time>
      </trkpt>
      <trkpt lat="44.23701" lon="2.30629">
        <ele>465</ele>
        <time>2021-09-02T11:21:57Z</time>
      </trkpt>
      <trkpt lat="44.23695" lon="2.30629">
        <ele>464</ele>
        <time>2021-09-02T11:21:58Z</time>
      </trkpt>
      <trkpt lat="44.23681" lon="2.30635">
        <ele>462</ele>
        <time>2021-09-02T11:22:00Z</time>
      </trkpt>
      <trkpt lat="44.23669" lon="2.30643">
        <ele>460</ele>
        <time>2021-09-02T11:22:02Z</time>
      </trkpt>
      <trkpt lat="44.23648" lon="2.30653">
        <ele>455</ele>
        <time>2021-09-02T11:22:06Z</time>
      </trkpt>
      <trkpt lat="44.23641" lon="2.3066">
        <ele>453</ele>
        <time>2021-09-02T11:22:08Z</time>
      </trkpt>
      <trkpt lat="44.2364" lon="2.30666">
        <ele>453</ele>
        <time>2021-09-02T11:22:09Z</time>
      </trkpt>
      <trkpt lat="44.23641" lon="2.30731">
        <ele>442</ele>
        <time>2021-09-02T11:22:16Z</time>
      </trkpt>
      <trkpt lat="44.2364" lon="2.30741">
        <ele>442</ele>
        <time>2021-09-02T11:22:17Z</time>
      </trkpt>
      <trkpt lat="44.23637" lon="2.3075">
        <ele>440</ele>
        <time>2021-09-02T11:22:18Z</time>
      </trkpt>
      <trkpt lat="44.23627" lon="2.30768">
        <ele>438</ele>
        <time>2021-09-02T11:22:20Z</time>
      </trkpt>
      <trkpt lat="44.23607" lon="2.30793">
        <ele>436</ele>
        <time>2021-09-02T11:22:23Z</time>
      </trkpt>
      <trkpt lat="44.23595" lon="2.30823">
        <ele>433</ele>
        <time>2021-09-02T11:22:26Z</time>
      </trkpt>
      <trkpt lat="44.2359" lon="2.30843">
        <ele>432</ele>
        <time>2021-09-02T11:22:28Z</time>
      </trkpt>
      <trkpt lat="44.23589" lon="2.30866">
        <ele>430</ele>
        <time>2021-09-02T11:22:30Z</time>
      </trkpt>
      <trkpt lat="44.23591" lon="2.30878">
        <ele>429</ele>
        <time>2021-09-02T11:22:31Z</time>
      </trkpt>
      <trkpt lat="44.23592" lon="2.30889">
        <ele>427</ele>
        <time>2021-09-02T11:22:32Z</time>
      </trkpt>
      <trkpt lat="44.23585" lon="2.30945">
        <ele>421</ele>
        <time>2021-09-02T11:22:37Z</time>
      </trkpt>
      <trkpt lat="44.23562" lon="2.31031">
        <ele>412</ele>
        <time>2021-09-02T11:22:45Z</time>
      </trkpt>
      <trkpt lat="44.23559" lon="2.31039">
        <ele>411</ele>
        <time>2021-09-02T11:22:46Z</time>
      </trkpt>
      <trkpt lat="44.23551" lon="2.31047">
        <ele>412</ele>
        <time>2021-09-02T11:22:48Z</time>
      </trkpt>
      <trkpt lat="44.23545" lon="2.31049">
        <ele>412</ele>
        <time>2021-09-02T11:22:49Z</time>
      </trkpt>
      <trkpt lat="44.23514" lon="2.31048">
        <ele>412</ele>
        <time>2021-09-02T11:22:54Z</time>
      </trkpt>
      <trkpt lat="44.23494" lon="2.31036">
        <ele>409</ele>
        <time>2021-09-02T11:22:59Z</time>
      </trkpt>
      <trkpt lat="44.23476" lon="2.31033">
        <ele>408</ele>
        <time>2021-09-02T11:23:00Z</time>
      </trkpt>
      <trkpt lat="44.23443" lon="2.31072">
        <ele>407</ele>
        <time>2021-09-02T11:23:06Z</time>
      </trkpt>
      <trkpt lat="44.23437" lon="2.31076">
        <ele>406</ele>
        <time>2021-09-02T11:23:07Z</time>
      </trkpt>
      <trkpt lat="44.23431" lon="2.31076">
        <ele>405</ele>
        <time>2021-09-02T11:23:08Z</time>
      </trkpt>
      <trkpt lat="44.23425" lon="2.31074">
        <ele>403</ele>
        <time>2021-09-02T11:23:09Z</time>
      </trkpt>
      <trkpt lat="44.23419" lon="2.3107">
        <ele>402</ele>
        <time>2021-09-02T11:23:10Z</time>
      </trkpt>
      <trkpt lat="44.23401" lon="2.31047">
        <ele>400</ele>
        <time>2021-09-02T11:23:14Z</time>
      </trkpt>
      <trkpt lat="44.23374" lon="2.31032">
        <ele>397</ele>
        <time>2021-09-02T11:23:19Z</time>
      </trkpt>
      <trkpt lat="44.23354" lon="2.31029">
        <ele>394</ele>
        <time>2021-09-02T11:23:22Z</time>
      </trkpt>
      <trkpt lat="44.23302" lon="2.31028">
        <ele>383</ele>
        <time>2021-09-02T11:23:31Z</time>
      </trkpt>
      <trkpt lat="44.23294" lon="2.31026">
        <ele>385</ele>
        <time>2021-09-02T11:23:33Z</time>
      </trkpt>
      <trkpt lat="44.23288" lon="2.31023">
        <ele>388</ele>
        <time>2021-09-02T11:23:35Z</time>
      </trkpt>
      <trkpt lat="44.23283" lon="2.31023">
        <ele>390</ele>
        <time>2021-09-02T11:23:38Z</time>
      </trkpt>
      <trkpt lat="44.23274" lon="2.31014">
        <ele>387</ele>
        <time>2021-09-02T11:23:42Z</time>
      </trkpt>
      <trkpt lat="44.23267" lon="2.31">
        <ele>386</ele>
        <time>2021-09-02T11:23:44Z</time>
      </trkpt>
      <trkpt lat="44.23262" lon="2.30976">
        <ele>384</ele>
        <time>2021-09-02T11:23:47Z</time>
      </trkpt>
      <trkpt lat="44.23264" lon="2.30951">
        <ele>384</ele>
        <time>2021-09-02T11:23:50Z</time>
      </trkpt>
      <trkpt lat="44.23272" lon="2.30913">
        <ele>382</ele>
        <time>2021-09-02T11:23:54Z</time>
      </trkpt>
      <trkpt lat="44.23274" lon="2.30886">
        <ele>381</ele>
        <time>2021-09-02T11:23:57Z</time>
      </trkpt>
      <trkpt lat="44.23269" lon="2.30873">
        <ele>380</ele>
        <time>2021-09-02T11:23:59Z</time>
      </trkpt>
      <trkpt lat="44.23264" lon="2.30869">
        <ele>380</ele>
        <time>2021-09-02T11:24:00Z</time>
      </trkpt>
      <trkpt lat="44.23252" lon="2.30869">
        <ele>379</ele>
        <time>2021-09-02T11:24:02Z</time>
      </trkpt>
      <trkpt lat="44.23248" lon="2.30875">
        <ele>378</ele>
        <time>2021-09-02T11:24:03Z</time>
      </trkpt>
      <trkpt lat="44.23226" lon="2.309">
        <ele>375</ele>
        <time>2021-09-02T11:24:07Z</time>
      </trkpt>
      <trkpt lat="44.23219" lon="2.30902">
        <ele>374</ele>
        <time>2021-09-02T11:24:08Z</time>
      </trkpt>
      <trkpt lat="44.23187" lon="2.30903">
        <ele>371</ele>
        <time>2021-09-02T11:24:12Z</time>
      </trkpt>
      <trkpt lat="44.23162" lon="2.3091">
        <ele>372</ele>
        <time>2021-09-02T11:24:15Z</time>
      </trkpt>
      <trkpt lat="44.23149" lon="2.30922">
        <ele>372</ele>
        <time>2021-09-02T11:24:17Z</time>
      </trkpt>
      <trkpt lat="44.23136" lon="2.3093">
        <ele>373</ele>
        <time>2021-09-02T11:24:19Z</time>
      </trkpt>
      <trkpt lat="44.23129" lon="2.30933">
        <ele>373</ele>
        <time>2021-09-02T11:24:20Z</time>
      </trkpt>
      <trkpt lat="44.23114" lon="2.30932">
        <ele>373</ele>
        <time>2021-09-02T11:24:22Z</time>
      </trkpt>
      <trkpt lat="44.23107" lon="2.30932">
        <ele>373</ele>
        <time>2021-09-02T11:24:23Z</time>
      </trkpt>
      <trkpt lat="44.2308" lon="2.3095">
        <ele>371</ele>
        <time>2021-09-02T11:24:28Z</time>
      </trkpt>
      <trkpt lat="44.23053" lon="2.30962">
        <ele>370</ele>
        <time>2021-09-02T11:24:32Z</time>
      </trkpt>
      <trkpt lat="44.22981" lon="2.31015">
        <ele>360</ele>
        <time>2021-09-02T11:24:42Z</time>
      </trkpt>
      <trkpt lat="44.22958" lon="2.31025">
        <ele>356</ele>
        <time>2021-09-02T11:24:45Z</time>
      </trkpt>
      <trkpt lat="44.22942" lon="2.31026">
        <ele>354</ele>
        <time>2021-09-02T11:24:47Z</time>
      </trkpt>
      <trkpt lat="44.22927" lon="2.31023">
        <ele>351</ele>
        <time>2021-09-02T11:24:49Z</time>
      </trkpt>
      <trkpt lat="44.22916" lon="2.31031">
        <ele>347</ele>
        <time>2021-09-02T11:24:51Z</time>
      </trkpt>
      <trkpt lat="44.22908" lon="2.31048">
        <ele>346</ele>
        <time>2021-09-02T11:24:53Z</time>
      </trkpt>
      <trkpt lat="44.22903" lon="2.31057">
        <ele>346</ele>
        <time>2021-09-02T11:24:54Z</time>
      </trkpt>
      <trkpt lat="44.22897" lon="2.31063">
        <ele>347</ele>
        <time>2021-09-02T11:24:55Z</time>
      </trkpt>
      <trkpt lat="44.22884" lon="2.31071">
        <ele>348</ele>
        <time>2021-09-02T11:24:57Z</time>
      </trkpt>
      <trkpt lat="44.22877" lon="2.3107">
        <ele>347</ele>
        <time>2021-09-02T11:24:59Z</time>
      </trkpt>
      <trkpt lat="44.22859" lon="2.31061">
        <ele>345</ele>
        <time>2021-09-02T11:25:13Z</time>
      </trkpt>
      <trkpt lat="44.22852" lon="2.3106">
        <ele>346</ele>
        <time>2021-09-02T11:25:17Z</time>
      </trkpt>
      <trkpt lat="44.22846" lon="2.31057">
        <ele>350</ele>
        <time>2021-09-02T11:25:20Z</time>
      </trkpt>
      <trkpt lat="44.2284" lon="2.31051">
        <ele>352</ele>
        <time>2021-09-02T11:25:23Z</time>
      </trkpt>
      <trkpt lat="44.22831" lon="2.31042">
        <ele>357</ele>
        <time>2021-09-02T11:25:29Z</time>
      </trkpt>
      <trkpt lat="44.22821" lon="2.31031">
        <ele>362</ele>
        <time>2021-09-02T11:25:34Z</time>
      </trkpt>
      <trkpt lat="44.22817" lon="2.31028">
        <ele>364</ele>
        <time>2021-09-02T11:25:36Z</time>
      </trkpt>
      <trkpt lat="44.22812" lon="2.31027">
        <ele>365</ele>
        <time>2021-09-02T11:25:38Z</time>
      </trkpt>
      <trkpt lat="44.22806" lon="2.31027">
        <ele>367</ele>
        <time>2021-09-02T11:25:41Z</time>
      </trkpt>
      <trkpt lat="44.228" lon="2.31028">
        <ele>369</ele>
        <time>2021-09-02T11:25:44Z</time>
      </trkpt>
      <trkpt lat="44.22776" lon="2.31046">
        <ele>370</ele>
        <time>2021-09-02T11:25:57Z</time>
      </trkpt>
      <trkpt lat="44.2277" lon="2.31051">
        <ele>372</ele>
        <time>2021-09-02T11:26:00Z</time>
      </trkpt>
      <trkpt lat="44.22764" lon="2.31055">
        <ele>373</ele>
        <time>2021-09-02T11:26:04Z</time>
      </trkpt>
      <trkpt lat="44.2275" lon="2.31067">
        <ele>375</ele>
        <time>2021-09-02T11:26:12Z</time>
      </trkpt>
      <trkpt lat="44.22746" lon="2.31074">
        <ele>379</ele>
        <time>2021-09-02T11:26:15Z</time>
      </trkpt>
      <trkpt lat="44.22745" lon="2.31082">
        <ele>380</ele>
        <time>2021-09-02T11:26:18Z</time>
      </trkpt>
      <trkpt lat="44.22732" lon="2.31172">
        <ele>398</ele>
        <time>2021-09-02T11:26:51Z</time>
      </trkpt>
      <trkpt lat="44.22728" lon="2.31187">
        <ele>400</ele>
        <time>2021-09-02T11:26:57Z</time>
      </trkpt>
      <trkpt lat="44.22724" lon="2.31217">
        <ele>404</ele>
        <time>2021-09-02T11:27:08Z</time>
      </trkpt>
      <trkpt lat="44.22721" lon="2.3126">
        <ele>404</ele>
        <time>2021-09-02T11:27:24Z</time>
      </trkpt>
      <trkpt lat="44.22715" lon="2.31283">
        <ele>403</ele>
        <time>2021-09-02T11:27:33Z</time>
      </trkpt>
      <trkpt lat="44.22714" lon="2.31295">
        <ele>400</ele>
        <time>2021-09-02T11:27:38Z</time>
      </trkpt>
      <trkpt lat="44.22714" lon="2.31313">
        <ele>395</ele>
        <time>2021-09-02T11:27:45Z</time>
      </trkpt>
      <trkpt lat="44.22714" lon="2.31321">
        <ele>396</ele>
        <time>2021-09-02T11:27:48Z</time>
      </trkpt>
      <trkpt lat="44.22712" lon="2.31331">
        <ele>396</ele>
        <time>2021-09-02T11:27:51Z</time>
      </trkpt>
      <trkpt lat="44.22706" lon="2.31344">
        <ele>395</ele>
        <time>2021-09-02T11:27:57Z</time>
      </trkpt>
      <trkpt lat="44.22702" lon="2.31349">
        <ele>392</ele>
        <time>2021-09-02T11:28:00Z</time>
      </trkpt>
      <trkpt lat="44.22697" lon="2.31352">
        <ele>393</ele>
        <time>2021-09-02T11:28:03Z</time>
      </trkpt>
      <trkpt lat="44.22691" lon="2.3135">
        <ele>395</ele>
        <time>2021-09-02T11:28:06Z</time>
      </trkpt>
      <trkpt lat="44.22688" lon="2.31344">
        <ele>397</ele>
        <time>2021-09-02T11:28:09Z</time>
      </trkpt>
      <trkpt lat="44.22684" lon="2.31338">
        <ele>401</ele>
        <time>2021-09-02T11:28:12Z</time>
      </trkpt>
      <trkpt lat="44.22682" lon="2.31332">
        <ele>402</ele>
        <time>2021-09-02T11:28:15Z</time>
      </trkpt>
      <trkpt lat="44.2268" lon="2.31324">
        <ele>405</ele>
        <time>2021-09-02T11:28:19Z</time>
      </trkpt>
      <trkpt lat="44.22679" lon="2.3131">
        <ele>408</ele>
        <time>2021-09-02T11:28:24Z</time>
      </trkpt>
      <trkpt lat="44.22683" lon="2.31284">
        <ele>411</ele>
        <time>2021-09-02T11:28:32Z</time>
      </trkpt>
      <trkpt lat="44.22684" lon="2.31274">
        <ele>411</ele>
        <time>2021-09-02T11:28:35Z</time>
      </trkpt>
      <trkpt lat="44.22678" lon="2.31255">
        <ele>414</ele>
        <time>2021-09-02T11:28:41Z</time>
      </trkpt>
      <trkpt lat="44.22665" lon="2.3123">
        <ele>415</ele>
        <time>2021-09-02T11:28:49Z</time>
      </trkpt>
      <trkpt lat="44.22659" lon="2.31219">
        <ele>417</ele>
        <time>2021-09-02T11:28:53Z</time>
      </trkpt>
      <trkpt lat="44.22656" lon="2.31214">
        <ele>417</ele>
        <time>2021-09-02T11:28:55Z</time>
      </trkpt>
      <trkpt lat="44.22649" lon="2.31201">
        <ele>419</ele>
        <time>2021-09-02T11:29:01Z</time>
      </trkpt>
      <trkpt lat="44.22646" lon="2.31196">
        <ele>420</ele>
        <time>2021-09-02T11:29:04Z</time>
      </trkpt>
      <trkpt lat="44.22626" lon="2.31183">
        <ele>421</ele>
        <time>2021-09-02T11:29:16Z</time>
      </trkpt>
      <trkpt lat="44.22621" lon="2.31181">
        <ele>421</ele>
        <time>2021-09-02T11:29:19Z</time>
      </trkpt>
      <trkpt lat="44.22604" lon="2.31176">
        <ele>420</ele>
        <time>2021-09-02T11:29:28Z</time>
      </trkpt>
      <trkpt lat="44.22585" lon="2.31176">
        <ele>422</ele>
        <time>2021-09-02T11:29:37Z</time>
      </trkpt>
      <trkpt lat="44.22575" lon="2.31179">
        <ele>423</ele>
        <time>2021-09-02T11:29:42Z</time>
      </trkpt>
      <trkpt lat="44.22559" lon="2.31188">
        <ele>425</ele>
        <time>2021-09-02T11:29:51Z</time>
      </trkpt>
      <trkpt lat="44.22513" lon="2.31263">
        <ele>427</ele>
        <time>2021-09-02T11:30:24Z</time>
      </trkpt>
      <trkpt lat="44.22492" lon="2.31294">
        <ele>428</ele>
        <time>2021-09-02T11:30:39Z</time>
      </trkpt>
      <trkpt lat="44.22476" lon="2.3132">
        <ele>428</ele>
        <time>2021-09-02T11:30:51Z</time>
      </trkpt>
      <trkpt lat="44.22472" lon="2.31324">
        <ele>428</ele>
        <time>2021-09-02T11:30:54Z</time>
      </trkpt>
      <trkpt lat="44.22467" lon="2.31328">
        <ele>427</ele>
        <time>2021-09-02T11:30:57Z</time>
      </trkpt>
      <trkpt lat="44.22461" lon="2.31328">
        <ele>427</ele>
        <time>2021-09-02T11:31:00Z</time>
      </trkpt>
      <trkpt lat="44.22457" lon="2.31323">
        <ele>428</ele>
        <time>2021-09-02T11:31:03Z</time>
      </trkpt>
      <trkpt lat="44.22453" lon="2.31318">
        <ele>428</ele>
        <time>2021-09-02T11:31:05Z</time>
      </trkpt>
      <trkpt lat="44.22448" lon="2.31307">
        <ele>430</ele>
        <time>2021-09-02T11:31:09Z</time>
      </trkpt>
      <trkpt lat="44.22447" lon="2.31301">
        <ele>430</ele>
        <time>2021-09-02T11:31:11Z</time>
      </trkpt>
      <trkpt lat="44.22445" lon="2.31293">
        <ele>431</ele>
        <time>2021-09-02T11:31:14Z</time>
      </trkpt>
      <trkpt lat="44.22444" lon="2.31277">
        <ele>432</ele>
        <time>2021-09-02T11:31:20Z</time>
      </trkpt>
      <trkpt lat="44.22442" lon="2.3127">
        <ele>433</ele>
        <time>2021-09-02T11:31:23Z</time>
      </trkpt>
      <trkpt lat="44.22433" lon="2.31257">
        <ele>434</ele>
        <time>2021-09-02T11:31:29Z</time>
      </trkpt>
      <trkpt lat="44.22382" lon="2.31229">
        <ele>436</ele>
        <time>2021-09-02T11:31:56Z</time>
      </trkpt>
      <trkpt lat="44.22367" lon="2.31222">
        <ele>436</ele>
        <time>2021-09-02T11:32:03Z</time>
      </trkpt>
      <trkpt lat="44.22352" lon="2.31211">
        <ele>437</ele>
        <time>2021-09-02T11:32:11Z</time>
      </trkpt>
      <trkpt lat="44.22341" lon="2.31205">
        <ele>437</ele>
        <time>2021-09-02T11:32:17Z</time>
      </trkpt>
      <trkpt lat="44.22329" lon="2.31204">
        <ele>439</ele>
        <time>2021-09-02T11:32:22Z</time>
      </trkpt>
      <trkpt lat="44.2232" lon="2.31208">
        <ele>441</ele>
        <time>2021-09-02T11:32:26Z</time>
      </trkpt>
      <trkpt lat="44.2231" lon="2.31215">
        <ele>443</ele>
        <time>2021-09-02T11:32:31Z</time>
      </trkpt>
      <trkpt lat="44.22299" lon="2.31231">
        <ele>445</ele>
        <time>2021-09-02T11:32:38Z</time>
      </trkpt>
      <trkpt lat="44.22285" lon="2.31315">
        <ele>454</ele>
        <time>2021-09-02T11:33:10Z</time>
      </trkpt>
      <trkpt lat="44.22269" lon="2.31397">
        <ele>458</ele>
        <time>2021-09-02T11:33:41Z</time>
      </trkpt>
      <trkpt lat="44.22248" lon="2.31463">
        <ele>460</ele>
        <time>2021-09-02T11:34:03Z</time>
      </trkpt>
      <trkpt lat="44.22246" lon="2.31471">
        <ele>460</ele>
        <time>2021-09-02T11:34:06Z</time>
      </trkpt>
      <trkpt lat="44.22242" lon="2.31487">
        <ele>457</ele>
        <time>2021-09-02T11:34:12Z</time>
      </trkpt>
      <trkpt lat="44.22239" lon="2.31501">
        <ele>458</ele>
        <time>2021-09-02T11:34:16Z</time>
      </trkpt>
      <trkpt lat="44.22234" lon="2.31515">
        <ele>457</ele>
        <time>2021-09-02T11:34:21Z</time>
      </trkpt>
      <trkpt lat="44.2223" lon="2.31527">
        <ele>456</ele>
        <time>2021-09-02T11:34:25Z</time>
      </trkpt>
      <trkpt lat="44.22226" lon="2.31539">
        <ele>456</ele>
        <time>2021-09-02T11:34:29Z</time>
      </trkpt>
      <trkpt lat="44.22211" lon="2.3156">
        <ele>457</ele>
        <time>2021-09-02T11:34:37Z</time>
      </trkpt>
      <trkpt lat="44.22171" lon="2.31614">
        <ele>457</ele>
        <time>2021-09-02T11:34:57Z</time>
      </trkpt>
      <trkpt lat="44.22153" lon="2.31636">
        <ele>458</ele>
        <time>2021-09-02T11:35:05Z</time>
      </trkpt>
      <trkpt lat="44.22132" lon="2.31663">
        <ele>458</ele>
        <time>2021-09-02T11:35:15Z</time>
      </trkpt>
      <trkpt lat="44.22129" lon="2.3167">
        <ele>457</ele>
        <time>2021-09-02T11:35:17Z</time>
      </trkpt>
      <trkpt lat="44.22126" lon="2.31698">
        <ele>454</ele>
        <time>2021-09-02T11:35:23Z</time>
      </trkpt>
      <trkpt lat="44.22125" lon="2.31707">
        <ele>455</ele>
        <time>2021-09-02T11:35:25Z</time>
      </trkpt>
      <trkpt lat="44.22123" lon="2.31713">
        <ele>455</ele>
        <time>2021-09-02T11:35:28Z</time>
      </trkpt>
      <trkpt lat="44.22122" lon="2.31734">
        <ele>454</ele>
        <time>2021-09-02T11:35:34Z</time>
      </trkpt>
      <trkpt lat="44.22122" lon="2.31769">
        <ele>455</ele>
        <time>2021-09-02T11:35:44Z</time>
      </trkpt>
      <trkpt lat="44.22121" lon="2.31775">
        <ele>456</ele>
        <time>2021-09-02T11:35:46Z</time>
      </trkpt>
      <trkpt lat="44.2212" lon="2.31782">
        <ele>457</ele>
        <time>2021-09-02T11:35:49Z</time>
      </trkpt>
      <trkpt lat="44.22109" lon="2.31791">
        <ele>457</ele>
        <time>2021-09-02T11:35:55Z</time>
      </trkpt>
      <trkpt lat="44.22098" lon="2.31793">
        <ele>456</ele>
        <time>2021-09-02T11:36:02Z</time>
      </trkpt>
      <trkpt lat="44.22093" lon="2.31793">
        <ele>453</ele>
        <time>2021-09-02T11:36:05Z</time>
      </trkpt>
      <trkpt lat="44.22081" lon="2.31789">
        <ele>450</ele>
        <time>2021-09-02T11:36:11Z</time>
      </trkpt>
      <trkpt lat="44.22075" lon="2.31787">
        <ele>448</ele>
        <time>2021-09-02T11:36:14Z</time>
      </trkpt>
      <trkpt lat="44.22069" lon="2.31788">
        <ele>446</ele>
        <time>2021-09-02T11:36:17Z</time>
      </trkpt>
      <trkpt lat="44.22062" lon="2.31787">
        <ele>444</ele>
        <time>2021-09-02T11:36:20Z</time>
      </trkpt>
      <trkpt lat="44.22056" lon="2.31785">
        <ele>442</ele>
        <time>2021-09-02T11:36:24Z</time>
      </trkpt>
      <trkpt lat="44.2205" lon="2.31784">
        <ele>440</ele>
        <time>2021-09-02T11:36:27Z</time>
      </trkpt>
      <trkpt lat="44.22039" lon="2.31782">
        <ele>434</ele>
        <time>2021-09-02T11:36:42Z</time>
      </trkpt>
      <trkpt lat="44.22028" lon="2.31779">
        <ele>420</ele>
        <time>2021-09-02T11:36:52Z</time>
      </trkpt>
      <trkpt lat="44.22019" lon="2.31782">
        <ele>417</ele>
        <time>2021-09-02T11:36:57Z</time>
      </trkpt>
      <trkpt lat="44.22012" lon="2.31775">
        <ele>406</ele>
        <time>2021-09-02T11:37:05Z</time>
      </trkpt>
      <trkpt lat="44.22005" lon="2.31773">
        <ele>405</ele>
        <time>2021-09-02T11:37:11Z</time>
      </trkpt>
      <trkpt lat="44.22003" lon="2.31765">
        <ele>406</ele>
        <time>2021-09-02T11:37:15Z</time>
      </trkpt>
      <trkpt lat="44.22004" lon="2.31757">
        <ele>407</ele>
        <time>2021-09-02T11:37:18Z</time>
      </trkpt>
      <trkpt lat="44.22004" lon="2.31762">
        <ele>415</ele>
        <time>2021-09-02T11:37:55Z</time>
      </trkpt>
      <trkpt lat="44.22" lon="2.31772">
        <ele>415</ele>
        <time>2021-09-02T11:37:59Z</time>
      </trkpt>
      <trkpt lat="44.21989" lon="2.31803">
        <ele>432</ele>
        <time>2021-09-02T11:38:12Z</time>
      </trkpt>
      <trkpt lat="44.21985" lon="2.31815">
        <ele>432</ele>
        <time>2021-09-02T11:38:15Z</time>
      </trkpt>
      <trkpt lat="44.2199" lon="2.31827">
        <ele>436</ele>
        <time>2021-09-02T11:38:19Z</time>
      </trkpt>
      <trkpt lat="44.21996" lon="2.31838">
        <ele>445</ele>
        <time>2021-09-02T11:38:24Z</time>
      </trkpt>
      <trkpt lat="44.21995" lon="2.31847">
        <ele>446</ele>
        <time>2021-09-02T11:38:28Z</time>
      </trkpt>
      <trkpt lat="44.21992" lon="2.31871">
        <ele>446</ele>
        <time>2021-09-02T11:38:37Z</time>
      </trkpt>
      <trkpt lat="44.21997" lon="2.31871">
        <ele>446</ele>
        <time>2021-09-02T11:38:51Z</time>
      </trkpt>
      <trkpt lat="44.21994" lon="2.31873">
        <ele>447</ele>
        <time>2021-09-02T11:39:37Z</time>
      </trkpt>
      <trkpt lat="44.21988" lon="2.31867">
        <ele>448</ele>
        <time>2021-09-02T11:39:53Z</time>
      </trkpt>
      <trkpt lat="44.2198" lon="2.31867">
        <ele>448</ele>
        <time>2021-09-02T11:40:00Z</time>
      </trkpt>
      <trkpt lat="44.21977" lon="2.31861">
        <ele>453</ele>
        <time>2021-09-02T11:40:13Z</time>
      </trkpt>
      <trkpt lat="44.21979" lon="2.3185">
        <ele>455</ele>
        <time>2021-09-02T11:40:19Z</time>
      </trkpt>
      <trkpt lat="44.21978" lon="2.31843">
        <ele>458</ele>
        <time>2021-09-02T11:40:23Z</time>
      </trkpt>
      <trkpt lat="44.21981" lon="2.31836">
        <ele>461</ele>
        <time>2021-09-02T11:40:28Z</time>
      </trkpt>
      <trkpt lat="44.21988" lon="2.31831">
        <ele>468</ele>
        <time>2021-09-02T11:40:33Z</time>
      </trkpt>
      <trkpt lat="44.22008" lon="2.31829">
        <ele>481</ele>
        <time>2021-09-02T11:40:43Z</time>
      </trkpt>
      <trkpt lat="44.22018" lon="2.31826">
        <ele>484</ele>
        <time>2021-09-02T11:40:54Z</time>
      </trkpt>
      <trkpt lat="44.22022" lon="2.3183">
        <ele>483</ele>
        <time>2021-09-02T11:41:01Z</time>
      </trkpt>
      <trkpt lat="44.22025" lon="2.31826">
        <ele>481</ele>
        <time>2021-09-02T11:41:30Z</time>
      </trkpt>
      <trkpt lat="44.22023" lon="2.31819">
        <ele>481</ele>
        <time>2021-09-02T11:41:34Z</time>
      </trkpt>
      <trkpt lat="44.22024" lon="2.31821">
        <ele>476</ele>
        <time>2021-09-02T11:41:53Z</time>
      </trkpt>
      <trkpt lat="44.22026" lon="2.31828">
        <ele>476</ele>
        <time>2021-09-02T11:41:56Z</time>
      </trkpt>
      <trkpt lat="44.22028" lon="2.31835">
        <ele>473</ele>
        <time>2021-09-02T11:42:00Z</time>
      </trkpt>
      <trkpt lat="44.22039" lon="2.31829">
        <ele>471</ele>
        <time>2021-09-02T11:44:10Z</time>
      </trkpt>
      <trkpt lat="44.22031" lon="2.31807">
        <ele>471</ele>
        <time>2021-09-02T11:44:27Z</time>
      </trkpt>
      <trkpt lat="44.22014" lon="2.31791">
        <ele>470</ele>
        <time>2021-09-02T11:44:39Z</time>
      </trkpt>
      <trkpt lat="44.22014" lon="2.31863">
        <ele>503</ele>
        <time>2021-09-02T12:46:33Z</time>
      </trkpt>
      <trkpt lat="44.22016" lon="2.31864">
        <ele>500</ele>
        <time>2021-09-02T12:46:35Z</time>
      </trkpt>
      <trkpt lat="44.22016" lon="2.31849">
        <ele>492</ele>
        <time>2021-09-02T12:46:38Z</time>
      </trkpt>
      <trkpt lat="44.22049" lon="2.31777">
        <ele>486</ele>
        <time>2021-09-02T12:47:51Z</time>
      </trkpt>
      <trkpt lat="44.22036" lon="2.31914">
        <ele>489</ele>
        <time>2021-09-02T12:49:16Z</time>
      </trkpt>
      <trkpt lat="44.22003" lon="2.31867">
        <ele>503</ele>
        <time>2021-09-02T12:49:33Z</time>
      </trkpt>
      <trkpt lat="44.22004" lon="2.31854">
        <ele>505</ele>
        <time>2021-09-02T12:49:37Z</time>
      </trkpt>
      <trkpt lat="44.22005" lon="2.31839">
        <ele>502</ele>
        <time>2021-09-02T12:49:39Z</time>
      </trkpt>
      <trkpt lat="44.22005" lon="2.31829">
        <ele>500</ele>
        <time>2021-09-02T12:49:41Z</time>
      </trkpt>
      <trkpt lat="44.22001" lon="2.31824">
        <ele>499</ele>
        <time>2021-09-02T12:49:44Z</time>
      </trkpt>
      <trkpt lat="44.21995" lon="2.31823">
        <ele>497</ele>
        <time>2021-09-02T12:49:48Z</time>
      </trkpt>
      <trkpt lat="44.21989" lon="2.31811">
        <ele>495</ele>
        <time>2021-09-02T12:49:52Z</time>
      </trkpt>
      <trkpt lat="44.2199" lon="2.31804">
        <ele>494</ele>
        <time>2021-09-02T12:49:55Z</time>
      </trkpt>
      <trkpt lat="44.21985" lon="2.31801">
        <ele>493</ele>
        <time>2021-09-02T12:50:00Z</time>
      </trkpt>
      <trkpt lat="44.21981" lon="2.31794">
        <ele>489</ele>
        <time>2021-09-02T12:50:03Z</time>
      </trkpt>
      <trkpt lat="44.21978" lon="2.3179">
        <ele>486</ele>
        <time>2021-09-02T12:50:07Z</time>
      </trkpt>
      <trkpt lat="44.21951" lon="2.31783">
        <ele>486</ele>
        <time>2021-09-02T12:50:37Z</time>
      </trkpt>
      <trkpt lat="44.21924" lon="2.3174">
        <ele>495</ele>
        <time>2021-09-02T12:50:41Z</time>
      </trkpt>
      <trkpt lat="44.21904" lon="2.31746">
        <ele>498</ele>
        <time>2021-09-02T12:50:50Z</time>
      </trkpt>
      <trkpt lat="44.219" lon="2.3175">
        <ele>498</ele>
        <time>2021-09-02T12:50:55Z</time>
      </trkpt>
      <trkpt lat="44.21874" lon="2.31779">
        <ele>489</ele>
        <time>2021-09-02T12:50:58Z</time>
      </trkpt>
      <trkpt lat="44.21878" lon="2.3177">
        <ele>483</ele>
        <time>2021-09-02T12:51:02Z</time>
      </trkpt>
      <trkpt lat="44.21886" lon="2.31749">
        <ele>472</ele>
        <time>2021-09-02T12:51:06Z</time>
      </trkpt>
      <trkpt lat="44.21942" lon="2.31703">
        <ele>434</ele>
        <time>2021-09-02T12:51:09Z</time>
      </trkpt>
      <trkpt lat="44.21862" lon="2.31707">
        <ele>425</ele>
        <time>2021-09-02T12:51:13Z</time>
      </trkpt>
      <trkpt lat="44.21867" lon="2.317">
        <ele>423</ele>
        <time>2021-09-02T12:51:16Z</time>
      </trkpt>
      <trkpt lat="44.21872" lon="2.31696">
        <ele>427</ele>
        <time>2021-09-02T12:51:18Z</time>
      </trkpt>
      <trkpt lat="44.21881" lon="2.31699">
        <ele>433</ele>
        <time>2021-09-02T12:51:22Z</time>
      </trkpt>
      <trkpt lat="44.21877" lon="2.31692">
        <ele>434</ele>
        <time>2021-09-02T12:51:33Z</time>
      </trkpt>
      <trkpt lat="44.21807" lon="2.31679">
        <ele>447</ele>
        <time>2021-09-02T12:51:54Z</time>
      </trkpt>
      <trkpt lat="44.21748" lon="2.3168">
        <ele>427</ele>
        <time>2021-09-02T12:51:56Z</time>
      </trkpt>
      <trkpt lat="44.21752" lon="2.31699">
        <ele>413</ele>
        <time>2021-09-02T12:51:58Z</time>
      </trkpt>
      <trkpt lat="44.21728" lon="2.31711">
        <ele>379</ele>
        <time>2021-09-02T12:52:04Z</time>
      </trkpt>
      <trkpt lat="44.21656" lon="2.31668">
        <ele>372</ele>
        <time>2021-09-02T12:52:23Z</time>
      </trkpt>
      <trkpt lat="44.21646" lon="2.31669">
        <ele>374</ele>
        <time>2021-09-02T12:52:25Z</time>
      </trkpt>
      <trkpt lat="44.21658" lon="2.31687">
        <ele>379</ele>
        <time>2021-09-02T12:52:26Z</time>
      </trkpt>
      <trkpt lat="44.216" lon="2.3169">
        <ele>384</ele>
        <time>2021-09-02T12:52:36Z</time>
      </trkpt>
      <trkpt lat="44.21579" lon="2.31682">
        <ele>386</ele>
        <time>2021-09-02T12:52:40Z</time>
      </trkpt>
      <trkpt lat="44.21549" lon="2.31722">
        <ele>415</ele>
        <time>2021-09-02T12:52:42Z</time>
      </trkpt>
      <trkpt lat="44.21542" lon="2.31682">
        <ele>437</ele>
        <time>2021-09-02T12:52:46Z</time>
      </trkpt>
      <trkpt lat="44.21503" lon="2.31688">
        <ele>438</ele>
        <time>2021-09-02T12:52:50Z</time>
      </trkpt>
      <trkpt lat="44.21471" lon="2.31637">
        <ele>446</ele>
        <time>2021-09-02T12:52:54Z</time>
      </trkpt>
      <trkpt lat="44.21434" lon="2.31637">
        <ele>464</ele>
        <time>2021-09-02T12:52:58Z</time>
      </trkpt>
      <trkpt lat="44.21419" lon="2.31631">
        <ele>461</ele>
        <time>2021-09-02T12:53:00Z</time>
      </trkpt>
      <trkpt lat="44.2141" lon="2.31633">
        <ele>454</ele>
        <time>2021-09-02T12:53:01Z</time>
      </trkpt>
      <trkpt lat="44.21402" lon="2.31631">
        <ele>451</ele>
        <time>2021-09-02T12:53:02Z</time>
      </trkpt>
      <trkpt lat="44.21386" lon="2.31626">
        <ele>447</ele>
        <time>2021-09-02T12:53:04Z</time>
      </trkpt>
      <trkpt lat="44.21262" lon="2.31585">
        <ele>438</ele>
        <time>2021-09-02T12:53:20Z</time>
      </trkpt>
      <trkpt lat="44.21247" lon="2.31576">
        <ele>439</ele>
        <time>2021-09-02T12:53:22Z</time>
      </trkpt>
      <trkpt lat="44.21235" lon="2.3156">
        <ele>439</ele>
        <time>2021-09-02T12:53:24Z</time>
      </trkpt>
      <trkpt lat="44.21227" lon="2.31543">
        <ele>439</ele>
        <time>2021-09-02T12:53:26Z</time>
      </trkpt>
      <trkpt lat="44.21223" lon="2.31521">
        <ele>438</ele>
        <time>2021-09-02T12:53:28Z</time>
      </trkpt>
      <trkpt lat="44.21223" lon="2.31497">
        <ele>437</ele>
        <time>2021-09-02T12:53:30Z</time>
      </trkpt>
      <trkpt lat="44.21232" lon="2.31465">
        <ele>436</ele>
        <time>2021-09-02T12:53:33Z</time>
      </trkpt>
      <trkpt lat="44.21262" lon="2.31411">
        <ele>432</ele>
        <time>2021-09-02T12:53:39Z</time>
      </trkpt>
      <trkpt lat="44.21275" lon="2.31379">
        <ele>434</ele>
        <time>2021-09-02T12:53:42Z</time>
      </trkpt>
      <trkpt lat="44.21307" lon="2.31362">
        <ele>431</ele>
        <time>2021-09-02T12:53:46Z</time>
      </trkpt>
      <trkpt lat="44.21325" lon="2.31358">
        <ele>429</ele>
        <time>2021-09-02T12:53:48Z</time>
      </trkpt>
      <trkpt lat="44.21335" lon="2.31358">
        <ele>428</ele>
        <time>2021-09-02T12:53:49Z</time>
      </trkpt>
      <trkpt lat="44.21423" lon="2.31372">
        <ele>418</ele>
        <time>2021-09-02T12:53:59Z</time>
      </trkpt>
      <trkpt lat="44.21431" lon="2.3137">
        <ele>417</ele>
        <time>2021-09-02T12:54:00Z</time>
      </trkpt>
      <trkpt lat="44.21438" lon="2.31365">
        <ele>416</ele>
        <time>2021-09-02T12:54:01Z</time>
      </trkpt>
      <trkpt lat="44.21445" lon="2.31358">
        <ele>418</ele>
        <time>2021-09-02T12:54:02Z</time>
      </trkpt>
      <trkpt lat="44.2145" lon="2.31349">
        <ele>420</ele>
        <time>2021-09-02T12:54:03Z</time>
      </trkpt>
      <trkpt lat="44.21454" lon="2.31315">
        <ele>420</ele>
        <time>2021-09-02T12:54:06Z</time>
      </trkpt>
      <trkpt lat="44.21449" lon="2.31255">
        <ele>420</ele>
        <time>2021-09-02T12:54:11Z</time>
      </trkpt>
      <trkpt lat="44.2145" lon="2.31232">
        <ele>420</ele>
        <time>2021-09-02T12:54:13Z</time>
      </trkpt>
      <trkpt lat="44.21507" lon="2.31085">
        <ele>411</ele>
        <time>2021-09-02T12:54:27Z</time>
      </trkpt>
      <trkpt lat="44.21576" lon="2.30984">
        <ele>402</ele>
        <time>2021-09-02T12:54:39Z</time>
      </trkpt>
      <trkpt lat="44.2159" lon="2.30966">
        <ele>401</ele>
        <time>2021-09-02T12:54:42Z</time>
      </trkpt>
      <trkpt lat="44.21593" lon="2.30959">
        <ele>400</ele>
        <time>2021-09-02T12:54:43Z</time>
      </trkpt>
      <trkpt lat="44.21595" lon="2.3095">
        <ele>400</ele>
        <time>2021-09-02T12:54:44Z</time>
      </trkpt>
      <trkpt lat="44.21594" lon="2.30941">
        <ele>400</ele>
        <time>2021-09-02T12:54:45Z</time>
      </trkpt>
      <trkpt lat="44.21591" lon="2.30932">
        <ele>400</ele>
        <time>2021-09-02T12:54:46Z</time>
      </trkpt>
      <trkpt lat="44.21587" lon="2.30926">
        <ele>401</ele>
        <time>2021-09-02T12:54:47Z</time>
      </trkpt>
      <trkpt lat="44.21581" lon="2.30925">
        <ele>402</ele>
        <time>2021-09-02T12:54:48Z</time>
      </trkpt>
      <trkpt lat="44.21574" lon="2.30929">
        <ele>402</ele>
        <time>2021-09-02T12:54:49Z</time>
      </trkpt>
      <trkpt lat="44.21566" lon="2.30935">
        <ele>402</ele>
        <time>2021-09-02T12:54:50Z</time>
      </trkpt>
      <trkpt lat="44.21529" lon="2.3101">
        <ele>400</ele>
        <time>2021-09-02T12:54:58Z</time>
      </trkpt>
      <trkpt lat="44.21347" lon="2.31209">
        <ele>371</ele>
        <time>2021-09-02T12:55:25Z</time>
      </trkpt>
      <trkpt lat="44.21316" lon="2.31221">
        <ele>374</ele>
        <time>2021-09-02T12:55:28Z</time>
      </trkpt>
      <trkpt lat="44.21286" lon="2.31228">
        <ele>371</ele>
        <time>2021-09-02T12:55:31Z</time>
      </trkpt>
      <trkpt lat="44.21221" lon="2.31259">
        <ele>365</ele>
        <time>2021-09-02T12:55:38Z</time>
      </trkpt>
      <trkpt lat="44.21172" lon="2.31265">
        <ele>362</ele>
        <time>2021-09-02T12:55:43Z</time>
      </trkpt>
      <trkpt lat="44.21117" lon="2.3126">
        <ele>359</ele>
        <time>2021-09-02T12:55:49Z</time>
      </trkpt>
      <trkpt lat="44.21091" lon="2.31267">
        <ele>356</ele>
        <time>2021-09-02T12:55:52Z</time>
      </trkpt>
      <trkpt lat="44.21066" lon="2.31282">
        <ele>354</ele>
        <time>2021-09-02T12:55:55Z</time>
      </trkpt>
      <trkpt lat="44.21054" lon="2.31299">
        <ele>352</ele>
        <time>2021-09-02T12:55:57Z</time>
      </trkpt>
      <trkpt lat="44.21027" lon="2.31356">
        <ele>350</ele>
        <time>2021-09-02T12:56:02Z</time>
      </trkpt>
      <trkpt lat="44.20996" lon="2.31392">
        <ele>348</ele>
        <time>2021-09-02T12:56:06Z</time>
      </trkpt>
      <trkpt lat="44.20955" lon="2.31428">
        <ele>346</ele>
        <time>2021-09-02T12:56:11Z</time>
      </trkpt>
      <trkpt lat="44.20946" lon="2.31432">
        <ele>348</ele>
        <time>2021-09-02T12:56:12Z</time>
      </trkpt>
      <trkpt lat="44.20937" lon="2.31435">
        <ele>351</ele>
        <time>2021-09-02T12:56:13Z</time>
      </trkpt>
      <trkpt lat="44.20927" lon="2.31437">
        <ele>353</ele>
        <time>2021-09-02T12:56:14Z</time>
      </trkpt>
      <trkpt lat="44.20876" lon="2.31442">
        <ele>360</ele>
        <time>2021-09-02T12:56:21Z</time>
      </trkpt>
      <trkpt lat="44.20872" lon="2.31443">
        <ele>360</ele>
        <time>2021-09-02T12:56:22Z</time>
      </trkpt>
      <trkpt lat="44.20865" lon="2.31449">
        <ele>360</ele>
        <time>2021-09-02T12:56:24Z</time>
      </trkpt>
      <trkpt lat="44.20862" lon="2.31457">
        <ele>360</ele>
        <time>2021-09-02T12:56:26Z</time>
      </trkpt>
      <trkpt lat="44.20863" lon="2.31475">
        <ele>360</ele>
        <time>2021-09-02T12:56:30Z</time>
      </trkpt>
      <trkpt lat="44.20864" lon="2.31494">
        <ele>360</ele>
        <time>2021-09-02T12:56:34Z</time>
      </trkpt>
      <trkpt lat="44.20866" lon="2.31509">
        <ele>359</ele>
        <time>2021-09-02T12:56:38Z</time>
      </trkpt>
      <trkpt lat="44.20873" lon="2.31513">
        <ele>358</ele>
        <time>2021-09-02T12:56:41Z</time>
      </trkpt>
      <trkpt lat="44.20897" lon="2.31555">
        <ele>355</ele>
        <time>2021-09-02T12:56:57Z</time>
      </trkpt>
      <trkpt lat="44.209" lon="2.31561">
        <ele>354</ele>
        <time>2021-09-02T12:56:59Z</time>
      </trkpt>
      <trkpt lat="44.20902" lon="2.31567">
        <ele>354</ele>
        <time>2021-09-02T12:57:01Z</time>
      </trkpt>
      <trkpt lat="44.20907" lon="2.3158">
        <ele>353</ele>
        <time>2021-09-02T12:57:05Z</time>
      </trkpt>
      <trkpt lat="44.20914" lon="2.31591">
        <ele>352</ele>
        <time>2021-09-02T12:57:09Z</time>
      </trkpt>
      <trkpt lat="44.2092" lon="2.31603">
        <ele>351</ele>
        <time>2021-09-02T12:57:13Z</time>
      </trkpt>
      <trkpt lat="44.20923" lon="2.31609">
        <ele>350</ele>
        <time>2021-09-02T12:57:15Z</time>
      </trkpt>
      <trkpt lat="44.20962" lon="2.31671">
        <ele>343</ele>
        <time>2021-09-02T12:57:36Z</time>
      </trkpt>
      <trkpt lat="44.20969" lon="2.31699">
        <ele>342</ele>
        <time>2021-09-02T12:57:42Z</time>
      </trkpt>
      <trkpt lat="44.2097" lon="2.31709">
        <ele>342</ele>
        <time>2021-09-02T12:57:44Z</time>
      </trkpt>
      <trkpt lat="44.20968" lon="2.31719">
        <ele>342</ele>
        <time>2021-09-02T12:57:46Z</time>
      </trkpt>
      <trkpt lat="44.20963" lon="2.31729">
        <ele>343</ele>
        <time>2021-09-02T12:57:48Z</time>
      </trkpt>
      <trkpt lat="44.20956" lon="2.31753">
        <ele>343</ele>
        <time>2021-09-02T12:57:52Z</time>
      </trkpt>
      <trkpt lat="44.20955" lon="2.31776">
        <ele>343</ele>
        <time>2021-09-02T12:57:55Z</time>
      </trkpt>
      <trkpt lat="44.20956" lon="2.31792">
        <ele>343</ele>
        <time>2021-09-02T12:57:57Z</time>
      </trkpt>
      <trkpt lat="44.21006" lon="2.32002">
        <ele>335</ele>
        <time>2021-09-02T12:58:28Z</time>
      </trkpt>
      <trkpt lat="44.2101" lon="2.32019">
        <ele>335</ele>
        <time>2021-09-02T12:58:32Z</time>
      </trkpt>
      <trkpt lat="44.21011" lon="2.32027">
        <ele>337</ele>
        <time>2021-09-02T12:58:34Z</time>
      </trkpt>
      <trkpt lat="44.21017" lon="2.32052">
        <ele>339</ele>
        <time>2021-09-02T12:58:40Z</time>
      </trkpt>
      <trkpt lat="44.21016" lon="2.32093">
        <ele>343</ele>
        <time>2021-09-02T12:58:50Z</time>
      </trkpt>
      <trkpt lat="44.21005" lon="2.32156">
        <ele>347</ele>
        <time>2021-09-02T12:59:08Z</time>
      </trkpt>
      <trkpt lat="44.21005" lon="2.3217">
        <ele>348</ele>
        <time>2021-09-02T12:59:12Z</time>
      </trkpt>
      <trkpt lat="44.21003" lon="2.32184">
        <ele>348</ele>
        <time>2021-09-02T12:59:16Z</time>
      </trkpt>
      <trkpt lat="44.20999" lon="2.32256">
        <ele>345</ele>
        <time>2021-09-02T12:59:35Z</time>
      </trkpt>
      <trkpt lat="44.20997" lon="2.32279">
        <ele>345</ele>
        <time>2021-09-02T12:59:41Z</time>
      </trkpt>
      <trkpt lat="44.20997" lon="2.32285">
        <ele>345</ele>
        <time>2021-09-02T12:59:43Z</time>
      </trkpt>
      <trkpt lat="44.20999" lon="2.32298">
        <ele>345</ele>
        <time>2021-09-02T12:59:47Z</time>
      </trkpt>
      <trkpt lat="44.20995" lon="2.32348">
        <ele>346</ele>
        <time>2021-09-02T13:00:02Z</time>
      </trkpt>
      <trkpt lat="44.20994" lon="2.32356">
        <ele>347</ele>
        <time>2021-09-02T13:00:04Z</time>
      </trkpt>
      <trkpt lat="44.20991" lon="2.32362">
        <ele>347</ele>
        <time>2021-09-02T13:00:06Z</time>
      </trkpt>
      <trkpt lat="44.2099" lon="2.32377">
        <ele>346</ele>
        <time>2021-09-02T13:00:10Z</time>
      </trkpt>
      <trkpt lat="44.20991" lon="2.32385">
        <ele>346</ele>
        <time>2021-09-02T13:00:12Z</time>
      </trkpt>
      <trkpt lat="44.20996" lon="2.32492">
        <ele>348</ele>
        <time>2021-09-02T13:00:43Z</time>
      </trkpt>
      <trkpt lat="44.20997" lon="2.32515">
        <ele>347</ele>
        <time>2021-09-02T13:00:50Z</time>
      </trkpt>
      <trkpt lat="44.2098" lon="2.32615">
        <ele>354</ele>
        <time>2021-09-02T13:01:21Z</time>
      </trkpt>
      <trkpt lat="44.20979" lon="2.32621">
        <ele>354</ele>
        <time>2021-09-02T13:01:23Z</time>
      </trkpt>
      <trkpt lat="44.20968" lon="2.32691">
        <ele>358</ele>
        <time>2021-09-02T13:01:43Z</time>
      </trkpt>
      <trkpt lat="44.20969" lon="2.32706">
        <ele>359</ele>
        <time>2021-09-02T13:01:48Z</time>
      </trkpt>
      <trkpt lat="44.20976" lon="2.32731">
        <ele>359</ele>
        <time>2021-09-02T13:01:56Z</time>
      </trkpt>
      <trkpt lat="44.20985" lon="2.32747">
        <ele>361</ele>
        <time>2021-09-02T13:02:02Z</time>
      </trkpt>
      <trkpt lat="44.20989" lon="2.32759">
        <ele>362</ele>
        <time>2021-09-02T13:02:06Z</time>
      </trkpt>
      <trkpt lat="44.20993" lon="2.32781">
        <ele>362</ele>
        <time>2021-09-02T13:02:13Z</time>
      </trkpt>
      <trkpt lat="44.20997" lon="2.32811">
        <ele>364</ele>
        <time>2021-09-02T13:02:21Z</time>
      </trkpt>
      <trkpt lat="44.20995" lon="2.32825">
        <ele>365</ele>
        <time>2021-09-02T13:02:25Z</time>
      </trkpt>
      <trkpt lat="44.20991" lon="2.32837">
        <ele>367</ele>
        <time>2021-09-02T13:02:29Z</time>
      </trkpt>
      <trkpt lat="44.20961" lon="2.32877">
        <ele>372</ele>
        <time>2021-09-02T13:02:45Z</time>
      </trkpt>
      <trkpt lat="44.20901" lon="2.32936">
        <ele>382</ele>
        <time>2021-09-02T13:03:14Z</time>
      </trkpt>
      <trkpt lat="44.20873" lon="2.32965">
        <ele>385</ele>
        <time>2021-09-02T13:03:28Z</time>
      </trkpt>
      <trkpt lat="44.20808" lon="2.33016">
        <ele>392</ele>
        <time>2021-09-02T13:03:58Z</time>
      </trkpt>
      <trkpt lat="44.20757" lon="2.33056">
        <ele>394</ele>
        <time>2021-09-02T13:04:21Z</time>
      </trkpt>
      <trkpt lat="44.2074" lon="2.33068">
        <ele>395</ele>
        <time>2021-09-02T13:04:29Z</time>
      </trkpt>
      <trkpt lat="44.20719" lon="2.33107">
        <ele>397</ele>
        <time>2021-09-02T13:04:43Z</time>
      </trkpt>
      <trkpt lat="44.20716" lon="2.33113">
        <ele>397</ele>
        <time>2021-09-02T13:04:45Z</time>
      </trkpt>
      <trkpt lat="44.20703" lon="2.33139">
        <ele>398</ele>
        <time>2021-09-02T13:04:53Z</time>
      </trkpt>
      <trkpt lat="44.20701" lon="2.33145">
        <ele>398</ele>
        <time>2021-09-02T13:04:55Z</time>
      </trkpt>
      <trkpt lat="44.20696" lon="2.33157">
        <ele>398</ele>
        <time>2021-09-02T13:04:59Z</time>
      </trkpt>
      <trkpt lat="44.20644" lon="2.3324">
        <ele>408</ele>
        <time>2021-09-02T13:05:30Z</time>
      </trkpt>
      <trkpt lat="44.20613" lon="2.33281">
        <ele>411</ele>
        <time>2021-09-02T13:05:47Z</time>
      </trkpt>
      <trkpt lat="44.20593" lon="2.333">
        <ele>411</ele>
        <time>2021-09-02T13:05:57Z</time>
      </trkpt>
      <trkpt lat="44.20571" lon="2.33313">
        <ele>411</ele>
        <time>2021-09-02T13:06:07Z</time>
      </trkpt>
      <trkpt lat="44.20568" lon="2.33316">
        <ele>411</ele>
        <time>2021-09-02T13:06:09Z</time>
      </trkpt>
      <trkpt lat="44.2055" lon="2.33344">
        <ele>416</ele>
        <time>2021-09-02T13:06:20Z</time>
      </trkpt>
      <trkpt lat="44.20547" lon="2.3335">
        <ele>418</ele>
        <time>2021-09-02T13:06:22Z</time>
      </trkpt>
      <trkpt lat="44.20544" lon="2.33357">
        <ele>419</ele>
        <time>2021-09-02T13:06:25Z</time>
      </trkpt>
      <trkpt lat="44.2054" lon="2.3336">
        <ele>419</ele>
        <time>2021-09-02T13:06:28Z</time>
      </trkpt>
      <trkpt lat="44.20538" lon="2.33363">
        <ele>421</ele>
        <time>2021-09-02T13:08:29Z</time>
      </trkpt>
      <trkpt lat="44.20537" lon="2.3337">
        <ele>420</ele>
        <time>2021-09-02T13:08:31Z</time>
      </trkpt>
      <trkpt lat="44.20536" lon="2.33378">
        <ele>415</ele>
        <time>2021-09-02T13:08:34Z</time>
      </trkpt>
      <trkpt lat="44.20536" lon="2.33385">
        <ele>412</ele>
        <time>2021-09-02T13:08:37Z</time>
      </trkpt>
      <trkpt lat="44.2054" lon="2.33393">
        <ele>412</ele>
        <time>2021-09-02T13:08:40Z</time>
      </trkpt>
      <trkpt lat="44.20554" lon="2.33406">
        <ele>410</ele>
        <time>2021-09-02T13:08:48Z</time>
      </trkpt>
      <trkpt lat="44.20559" lon="2.33412">
        <ele>410</ele>
        <time>2021-09-02T13:08:51Z</time>
      </trkpt>
      <trkpt lat="44.20573" lon="2.33423">
        <ele>412</ele>
        <time>2021-09-02T13:08:59Z</time>
      </trkpt>
      <trkpt lat="44.20639" lon="2.33395">
        <ele>405</ele>
        <time>2021-09-02T13:09:29Z</time>
      </trkpt>
      <trkpt lat="44.20704" lon="2.33339">
        <ele>401</ele>
        <time>2021-09-02T13:10:00Z</time>
      </trkpt>
      <trkpt lat="44.20773" lon="2.33284">
        <ele>393</ele>
        <time>2021-09-02T13:10:31Z</time>
      </trkpt>
      <trkpt lat="44.20783" lon="2.33281">
        <ele>392</ele>
        <time>2021-09-02T13:10:35Z</time>
      </trkpt>
      <trkpt lat="44.20794" lon="2.33283">
        <ele>392</ele>
        <time>2021-09-02T13:10:39Z</time>
      </trkpt>
      <trkpt lat="44.20809" lon="2.33295">
        <ele>394</ele>
        <time>2021-09-02T13:10:45Z</time>
      </trkpt>
      <trkpt lat="44.20813" lon="2.33301">
        <ele>395</ele>
        <time>2021-09-02T13:10:47Z</time>
      </trkpt>
      <trkpt lat="44.20817" lon="2.33307">
        <ele>398</ele>
        <time>2021-09-02T13:10:49Z</time>
      </trkpt>
      <trkpt lat="44.20819" lon="2.33313">
        <ele>399</ele>
        <time>2021-09-02T13:10:51Z</time>
      </trkpt>
      <trkpt lat="44.20821" lon="2.33327">
        <ele>402</ele>
        <time>2021-09-02T13:10:55Z</time>
      </trkpt>
      <trkpt lat="44.20814" lon="2.33399">
        <ele>412</ele>
        <time>2021-09-02T13:11:11Z</time>
      </trkpt>
      <trkpt lat="44.20806" lon="2.3347">
        <ele>422</ele>
        <time>2021-09-02T13:11:29Z</time>
      </trkpt>
      <trkpt lat="44.20805" lon="2.33477">
        <ele>422</ele>
        <time>2021-09-02T13:11:31Z</time>
      </trkpt>
      <trkpt lat="44.20803" lon="2.33492">
        <ele>424</ele>
        <time>2021-09-02T13:11:35Z</time>
      </trkpt>
      <trkpt lat="44.20791" lon="2.33542">
        <ele>425</ele>
        <time>2021-09-02T13:11:52Z</time>
      </trkpt>
      <trkpt lat="44.20788" lon="2.33556">
        <ele>424</ele>
        <time>2021-09-02T13:11:56Z</time>
      </trkpt>
      <trkpt lat="44.20781" lon="2.33579">
        <ele>424</ele>
        <time>2021-09-02T13:12:02Z</time>
      </trkpt>
      <trkpt lat="44.20775" lon="2.33622">
        <ele>430</ele>
        <time>2021-09-02T13:12:14Z</time>
      </trkpt>
      <trkpt lat="44.20774" lon="2.3363">
        <ele>431</ele>
        <time>2021-09-02T13:12:16Z</time>
      </trkpt>
      <trkpt lat="44.20775" lon="2.33646">
        <ele>432</ele>
        <time>2021-09-02T13:12:20Z</time>
      </trkpt>
      <trkpt lat="44.20781" lon="2.3366">
        <ele>433</ele>
        <time>2021-09-02T13:12:24Z</time>
      </trkpt>
      <trkpt lat="44.20789" lon="2.3367">
        <ele>434</ele>
        <time>2021-09-02T13:12:28Z</time>
      </trkpt>
      <trkpt lat="44.20795" lon="2.33683">
        <ele>435</ele>
        <time>2021-09-02T13:12:32Z</time>
      </trkpt>
      <trkpt lat="44.20797" lon="2.33692">
        <ele>436</ele>
        <time>2021-09-02T13:12:34Z</time>
      </trkpt>
      <trkpt lat="44.20795" lon="2.33711">
        <ele>436</ele>
        <time>2021-09-02T13:12:38Z</time>
      </trkpt>
      <trkpt lat="44.20792" lon="2.3372">
        <ele>437</ele>
        <time>2021-09-02T13:12:40Z</time>
      </trkpt>
      <trkpt lat="44.20738" lon="2.33774">
        <ele>442</ele>
        <time>2021-09-02T13:13:02Z</time>
      </trkpt>
      <trkpt lat="44.20709" lon="2.33792">
        <ele>443</ele>
        <time>2021-09-02T13:13:12Z</time>
      </trkpt>
      <trkpt lat="44.20679" lon="2.33792">
        <ele>447</ele>
        <time>2021-09-02T13:13:22Z</time>
      </trkpt>
      <trkpt lat="44.20629" lon="2.33782">
        <ele>457</ele>
        <time>2021-09-02T13:13:40Z</time>
      </trkpt>
      <trkpt lat="44.20618" lon="2.33783">
        <ele>458</ele>
        <time>2021-09-02T13:13:44Z</time>
      </trkpt>
      <trkpt lat="44.20613" lon="2.33782">
        <ele>457</ele>
        <time>2021-09-02T13:13:46Z</time>
      </trkpt>
      <trkpt lat="44.20529" lon="2.33791">
        <ele>465</ele>
        <time>2021-09-02T13:14:16Z</time>
      </trkpt>
      <trkpt lat="44.20488" lon="2.3379">
        <ele>469</ele>
        <time>2021-09-02T13:14:28Z</time>
      </trkpt>
      <trkpt lat="44.20475" lon="2.33786">
        <ele>470</ele>
        <time>2021-09-02T13:14:32Z</time>
      </trkpt>
      <trkpt lat="44.20456" lon="2.33774">
        <ele>472</ele>
        <time>2021-09-02T13:14:38Z</time>
      </trkpt>
      <trkpt lat="44.20439" lon="2.33753">
        <ele>474</ele>
        <time>2021-09-02T13:14:44Z</time>
      </trkpt>
      <trkpt lat="44.20416" lon="2.33709">
        <ele>476</ele>
        <time>2021-09-02T13:14:54Z</time>
      </trkpt>
      <trkpt lat="44.20403" lon="2.33695">
        <ele>477</ele>
        <time>2021-09-02T13:14:58Z</time>
      </trkpt>
      <trkpt lat="44.20387" lon="2.33693">
        <ele>478</ele>
        <time>2021-09-02T13:15:02Z</time>
      </trkpt>
      <trkpt lat="44.20344" lon="2.33728">
        <ele>479</ele>
        <time>2021-09-02T13:15:14Z</time>
      </trkpt>
      <trkpt lat="44.2029" lon="2.33785">
        <ele>480</ele>
        <time>2021-09-02T13:15:30Z</time>
      </trkpt>
      <trkpt lat="44.20254" lon="2.33809">
        <ele>480</ele>
        <time>2021-09-02T13:15:40Z</time>
      </trkpt>
      <trkpt lat="44.20129" lon="2.3383">
        <ele>483</ele>
        <time>2021-09-02T13:16:10Z</time>
      </trkpt>
      <trkpt lat="44.20081" lon="2.33832">
        <ele>485</ele>
        <time>2021-09-02T13:16:22Z</time>
      </trkpt>
      <trkpt lat="44.20067" lon="2.33837">
        <ele>486</ele>
        <time>2021-09-02T13:16:26Z</time>
      </trkpt>
      <trkpt lat="44.20055" lon="2.33847">
        <ele>485</ele>
        <time>2021-09-02T13:16:30Z</time>
      </trkpt>
      <trkpt lat="44.20005" lon="2.33928">
        <ele>486</ele>
        <time>2021-09-02T13:16:48Z</time>
      </trkpt>
      <trkpt lat="44.19927" lon="2.3406">
        <ele>487</ele>
        <time>2021-09-02T13:17:20Z</time>
      </trkpt>
      <trkpt lat="44.19897" lon="2.34114">
        <ele>488</ele>
        <time>2021-09-02T13:17:36Z</time>
      </trkpt>
      <trkpt lat="44.19893" lon="2.34118">
        <ele>488</ele>
        <time>2021-09-02T13:17:38Z</time>
      </trkpt>
      <trkpt lat="44.19886" lon="2.34118">
        <ele>489</ele>
        <time>2021-09-02T13:17:41Z</time>
      </trkpt>
      <trkpt lat="44.19882" lon="2.34115">
        <ele>489</ele>
        <time>2021-09-02T13:17:43Z</time>
      </trkpt>
      <trkpt lat="44.19876" lon="2.34118">
        <ele>488</ele>
        <time>2021-09-02T13:17:46Z</time>
      </trkpt>
      <trkpt lat="44.19868" lon="2.34127">
        <ele>487</ele>
        <time>2021-09-02T13:17:53Z</time>
      </trkpt>
      <trkpt lat="44.19867" lon="2.34134">
        <ele>487</ele>
        <time>2021-09-02T13:18:19Z</time>
      </trkpt>
      <trkpt lat="44.19866" lon="2.34143">
        <ele>486</ele>
        <time>2021-09-02T13:18:22Z</time>
      </trkpt>
      <trkpt lat="44.19868" lon="2.34149">
        <ele>485</ele>
        <time>2021-09-02T13:18:25Z</time>
      </trkpt>
      <trkpt lat="44.19867" lon="2.34156">
        <ele>485</ele>
        <time>2021-09-02T13:18:28Z</time>
      </trkpt>
      <trkpt lat="44.19858" lon="2.34189">
        <ele>484</ele>
        <time>2021-09-02T13:18:40Z</time>
      </trkpt>
      <trkpt lat="44.19856" lon="2.34195">
        <ele>483</ele>
        <time>2021-09-02T13:18:43Z</time>
      </trkpt>
      <trkpt lat="44.19852" lon="2.34201">
        <ele>483</ele>
        <time>2021-09-02T13:18:45Z</time>
      </trkpt>
      <trkpt lat="44.1984" lon="2.34237">
        <ele>480</ele>
        <time>2021-09-02T13:18:57Z</time>
      </trkpt>
      <trkpt lat="44.19837" lon="2.34245">
        <ele>480</ele>
        <time>2021-09-02T13:18:59Z</time>
      </trkpt>
      <trkpt lat="44.19835" lon="2.34251">
        <ele>482</ele>
        <time>2021-09-02T13:19:01Z</time>
      </trkpt>
      <trkpt lat="44.19829" lon="2.34256">
        <ele>484</ele>
        <time>2021-09-02T13:19:04Z</time>
      </trkpt>
      <trkpt lat="44.19823" lon="2.34258">
        <ele>484</ele>
        <time>2021-09-02T13:19:07Z</time>
      </trkpt>
      <trkpt lat="44.19819" lon="2.34259">
        <ele>484</ele>
        <time>2021-09-02T13:19:11Z</time>
      </trkpt>
      <trkpt lat="44.19811" lon="2.34248">
        <ele>485</ele>
        <time>2021-09-02T13:19:18Z</time>
      </trkpt>
      <trkpt lat="44.19804" lon="2.34235">
        <ele>483</ele>
        <time>2021-09-02T13:19:24Z</time>
      </trkpt>
      <trkpt lat="44.19796" lon="2.34199">
        <ele>482</ele>
        <time>2021-09-02T13:19:36Z</time>
      </trkpt>
      <trkpt lat="44.19794" lon="2.34183">
        <ele>490</ele>
        <time>2021-09-02T13:19:41Z</time>
      </trkpt>
      <trkpt lat="44.19794" lon="2.34175">
        <ele>494</ele>
        <time>2021-09-02T13:19:44Z</time>
      </trkpt>
      <trkpt lat="44.19796" lon="2.34167">
        <ele>494</ele>
        <time>2021-09-02T13:19:47Z</time>
      </trkpt>
      <trkpt lat="44.19794" lon="2.34126">
        <ele>492</ele>
        <time>2021-09-02T13:20:00Z</time>
      </trkpt>
      <trkpt lat="44.19791" lon="2.34119">
        <ele>493</ele>
        <time>2021-09-02T13:20:15Z</time>
      </trkpt>
      <trkpt lat="44.19791" lon="2.34109">
        <ele>493</ele>
        <time>2021-09-02T13:20:19Z</time>
      </trkpt>
      <trkpt lat="44.19791" lon="2.34101">
        <ele>494</ele>
        <time>2021-09-02T13:20:22Z</time>
      </trkpt>
      <trkpt lat="44.19792" lon="2.34085">
        <ele>496</ele>
        <time>2021-09-02T13:20:28Z</time>
      </trkpt>
      <trkpt lat="44.19789" lon="2.34079">
        <ele>495</ele>
        <time>2021-09-02T13:20:32Z</time>
      </trkpt>
      <trkpt lat="44.19786" lon="2.34073">
        <ele>496</ele>
        <time>2021-09-02T13:20:35Z</time>
      </trkpt>
      <trkpt lat="44.19787" lon="2.34067">
        <ele>496</ele>
        <time>2021-09-02T13:20:38Z</time>
      </trkpt>
      <trkpt lat="44.1979" lon="2.34061">
        <ele>495</ele>
        <time>2021-09-02T13:20:46Z</time>
      </trkpt>
      <trkpt lat="44.19796" lon="2.34055">
        <ele>493</ele>
        <time>2021-09-02T13:20:48Z</time>
      </trkpt>
      <trkpt lat="44.19803" lon="2.34051">
        <ele>493</ele>
        <time>2021-09-02T13:20:50Z</time>
      </trkpt>
      <trkpt lat="44.19814" lon="2.34052">
        <ele>492</ele>
        <time>2021-09-02T13:20:54Z</time>
      </trkpt>
      <trkpt lat="44.19819" lon="2.34058">
        <ele>492</ele>
        <time>2021-09-02T13:20:56Z</time>
      </trkpt>
      <trkpt lat="44.19869" lon="2.34154">
        <ele>477</ele>
        <time>2021-09-02T13:21:29Z</time>
      </trkpt>
      <trkpt lat="44.19876" lon="2.34141">
        <ele>477</ele>
        <time>2021-09-02T13:21:52Z</time>
      </trkpt>
      <trkpt lat="44.19874" lon="2.34135">
        <ele>475</ele>
        <time>2021-09-02T13:22:06Z</time>
      </trkpt>
      <trkpt lat="44.19865" lon="2.34127">
        <ele>474</ele>
        <time>2021-09-02T13:22:20Z</time>
      </trkpt>
      <trkpt lat="44.19867" lon="2.34128">
        <ele>475</ele>
        <time>2021-09-02T13:23:25Z</time>
      </trkpt>
      <trkpt lat="44.19866" lon="2.34136">
        <ele>475</ele>
        <time>2021-09-02T13:23:29Z</time>
      </trkpt>
      <trkpt lat="44.19866" lon="2.34143">
        <ele>477</ele>
        <time>2021-09-02T13:23:34Z</time>
      </trkpt>
      <trkpt lat="44.19868" lon="2.34149">
        <ele>478</ele>
        <time>2021-09-02T13:23:40Z</time>
      </trkpt>
      <trkpt lat="44.19871" lon="2.34154">
        <ele>478</ele>
        <time>2021-09-02T13:23:47Z</time>
      </trkpt>
      <trkpt lat="44.19875" lon="2.34158">
        <ele>477</ele>
        <time>2021-09-02T13:24:42Z</time>
      </trkpt>
      <trkpt lat="44.1988" lon="2.34148">
        <ele>477</ele>
        <time>2021-09-02T13:25:05Z</time>
      </trkpt>
      <trkpt lat="44.19886" lon="2.34141">
        <ele>477</ele>
        <time>2021-09-02T13:25:08Z</time>
      </trkpt>
      <trkpt lat="44.19882" lon="2.34156">
        <ele>476</ele>
        <time>2021-09-02T13:25:19Z</time>
      </trkpt>
      <trkpt lat="44.19879" lon="2.34155">
        <ele>477</ele>
        <time>2021-09-02T13:25:56Z</time>
      </trkpt>
      <trkpt lat="44.19876" lon="2.34151">
        <ele>472</ele>
        <time>2021-09-02T13:27:02Z</time>
      </trkpt>
      <trkpt lat="44.19875" lon="2.34143">
        <ele>465</ele>
        <time>2021-09-02T13:27:06Z</time>
      </trkpt>
      <trkpt lat="44.19875" lon="2.34136">
        <ele>476</ele>
        <time>2021-09-02T13:27:13Z</time>
      </trkpt>
      <trkpt lat="44.19871" lon="2.34132">
        <ele>488</ele>
        <time>2021-09-02T13:27:17Z</time>
      </trkpt>
      <trkpt lat="44.19868" lon="2.34127">
        <ele>490</ele>
        <time>2021-09-02T13:27:22Z</time>
      </trkpt>
      <trkpt lat="44.19871" lon="2.34125">
        <ele>493</ele>
        <time>2021-09-02T13:28:16Z</time>
      </trkpt>
      <trkpt lat="44.19863" lon="2.34132">
        <ele>493</ele>
        <time>2021-09-02T13:28:22Z</time>
      </trkpt>
      <trkpt lat="44.19863" lon="2.34103">
        <ele>491</ele>
        <time>2021-09-02T13:29:03Z</time>
      </trkpt>
      <trkpt lat="44.19877" lon="2.34122">
        <ele>492</ele>
        <time>2021-09-02T13:29:04Z</time>
      </trkpt>
      <trkpt lat="44.19871" lon="2.34123">
        <ele>492</ele>
        <time>2021-09-02T13:29:17Z</time>
      </trkpt>
      <trkpt lat="44.19867" lon="2.34125">
        <ele>491</ele>
        <time>2021-09-02T13:30:01Z</time>
      </trkpt>
      <trkpt lat="44.19861" lon="2.34123">
        <ele>491</ele>
        <time>2021-09-02T13:30:04Z</time>
      </trkpt>
      <trkpt lat="44.1985" lon="2.34115">
        <ele>491</ele>
        <time>2021-09-02T13:30:08Z</time>
      </trkpt>
      <trkpt lat="44.19843" lon="2.34116">
        <ele>491</ele>
        <time>2021-09-02T13:30:11Z</time>
      </trkpt>
      <trkpt lat="44.19838" lon="2.34119">
        <ele>491</ele>
        <time>2021-09-02T13:30:14Z</time>
      </trkpt>
      <trkpt lat="44.19839" lon="2.34128">
        <ele>491</ele>
        <time>2021-09-02T13:30:18Z</time>
      </trkpt>
      <trkpt lat="44.19836" lon="2.34137">
        <ele>490</ele>
        <time>2021-09-02T13:30:22Z</time>
      </trkpt>
      <trkpt lat="44.19837" lon="2.34144">
        <ele>489</ele>
        <time>2021-09-02T13:30:26Z</time>
      </trkpt>
      <trkpt lat="44.19834" lon="2.3415">
        <ele>487</ele>
        <time>2021-09-02T13:30:34Z</time>
      </trkpt>
      <trkpt lat="44.19809" lon="2.34167">
        <ele>484</ele>
        <time>2021-09-02T13:30:43Z</time>
      </trkpt>
      <trkpt lat="44.19805" lon="2.34171">
        <ele>484</ele>
        <time>2021-09-02T13:30:46Z</time>
      </trkpt>
      <trkpt lat="44.19799" lon="2.34172">
        <ele>487</ele>
        <time>2021-09-02T13:30:53Z</time>
      </trkpt>
      <trkpt lat="44.19789" lon="2.34174">
        <ele>488</ele>
        <time>2021-09-02T13:30:58Z</time>
      </trkpt>
      <trkpt lat="44.19784" lon="2.34176">
        <ele>489</ele>
        <time>2021-09-02T13:31:03Z</time>
      </trkpt>
      <trkpt lat="44.19781" lon="2.3418">
        <ele>489</ele>
        <time>2021-09-02T13:31:05Z</time>
      </trkpt>
      <trkpt lat="44.19769" lon="2.34186">
        <ele>489</ele>
        <time>2021-09-02T13:31:13Z</time>
      </trkpt>
      <trkpt lat="44.19764" lon="2.3419">
        <ele>489</ele>
        <time>2021-09-02T13:31:15Z</time>
      </trkpt>
      <trkpt lat="44.19753" lon="2.34198">
        <ele>488</ele>
        <time>2021-09-02T13:31:19Z</time>
      </trkpt>
      <trkpt lat="44.19741" lon="2.34209">
        <ele>491</ele>
        <time>2021-09-02T13:31:31Z</time>
      </trkpt>
      <trkpt lat="44.19739" lon="2.34215">
        <ele>490</ele>
        <time>2021-09-02T13:31:36Z</time>
      </trkpt>
      <trkpt lat="44.19749" lon="2.3422">
        <ele>489</ele>
        <time>2021-09-02T13:31:43Z</time>
      </trkpt>
      <trkpt lat="44.19747" lon="2.34227">
        <ele>489</ele>
        <time>2021-09-02T13:32:22Z</time>
      </trkpt>
      <trkpt lat="44.19747" lon="2.34228">
        <ele>486</ele>
        <time>2021-09-02T13:51:37Z</time>
      </trkpt>
      <trkpt lat="44.19746" lon="2.34219">
        <ele>486</ele>
        <time>2021-09-02T13:52:00Z</time>
      </trkpt>
      <trkpt lat="44.19746" lon="2.34211">
        <ele>486</ele>
        <time>2021-09-02T13:52:03Z</time>
      </trkpt>
      <trkpt lat="44.19745" lon="2.34202">
        <ele>483</ele>
        <time>2021-09-02T13:52:07Z</time>
      </trkpt>
      <trkpt lat="44.19726" lon="2.34174">
        <ele>482</ele>
        <time>2021-09-02T13:52:15Z</time>
      </trkpt>
      <trkpt lat="44.19724" lon="2.34147">
        <ele>482</ele>
        <time>2021-09-02T13:52:20Z</time>
      </trkpt>
      <trkpt lat="44.19728" lon="2.34133">
        <ele>483</ele>
        <time>2021-09-02T13:52:25Z</time>
      </trkpt>
      <trkpt lat="44.19724" lon="2.34128">
        <ele>485</ele>
        <time>2021-09-02T13:52:39Z</time>
      </trkpt>
      <trkpt lat="44.1972" lon="2.34126">
        <ele>485</ele>
        <time>2021-09-02T13:52:41Z</time>
      </trkpt>
      <trkpt lat="44.19697" lon="2.34122">
        <ele>483</ele>
        <time>2021-09-02T13:52:46Z</time>
      </trkpt>
      <trkpt lat="44.19688" lon="2.34117">
        <ele>483</ele>
        <time>2021-09-02T13:52:48Z</time>
      </trkpt>
      <trkpt lat="44.19679" lon="2.3411">
        <ele>483</ele>
        <time>2021-09-02T13:52:50Z</time>
      </trkpt>
      <trkpt lat="44.19626" lon="2.34076">
        <ele>478</ele>
        <time>2021-09-02T13:53:01Z</time>
      </trkpt>
      <trkpt lat="44.19621" lon="2.34071">
        <ele>478</ele>
        <time>2021-09-02T13:53:02Z</time>
      </trkpt>
      <trkpt lat="44.19616" lon="2.34065">
        <ele>477</ele>
        <time>2021-09-02T13:53:03Z</time>
      </trkpt>
      <trkpt lat="44.19608" lon="2.34044">
        <ele>474</ele>
        <time>2021-09-02T13:53:06Z</time>
      </trkpt>
      <trkpt lat="44.19596" lon="2.34026">
        <ele>473</ele>
        <time>2021-09-02T13:53:09Z</time>
      </trkpt>
      <trkpt lat="44.19587" lon="2.34022">
        <ele>474</ele>
        <time>2021-09-02T13:53:11Z</time>
      </trkpt>
      <trkpt lat="44.19574" lon="2.34023">
        <ele>474</ele>
        <time>2021-09-02T13:53:13Z</time>
      </trkpt>
      <trkpt lat="44.19529" lon="2.34046">
        <ele>472</ele>
        <time>2021-09-02T13:53:22Z</time>
      </trkpt>
      <trkpt lat="44.19516" lon="2.3405">
        <ele>471</ele>
        <time>2021-09-02T13:53:26Z</time>
      </trkpt>
      <trkpt lat="44.19511" lon="2.34051">
        <ele>472</ele>
        <time>2021-09-02T13:54:06Z</time>
      </trkpt>
      <trkpt lat="44.19505" lon="2.34054">
        <ele>471</ele>
        <time>2021-09-02T13:54:09Z</time>
      </trkpt>
      <trkpt lat="44.19477" lon="2.3405">
        <ele>470</ele>
        <time>2021-09-02T13:54:17Z</time>
      </trkpt>
      <trkpt lat="44.19408" lon="2.34025">
        <ele>472</ele>
        <time>2021-09-02T13:54:42Z</time>
      </trkpt>
      <trkpt lat="44.19344" lon="2.34017">
        <ele>479</ele>
        <time>2021-09-02T13:55:13Z</time>
      </trkpt>
      <trkpt lat="44.1927" lon="2.34014">
        <ele>482</ele>
        <time>2021-09-02T13:55:43Z</time>
      </trkpt>
      <trkpt lat="44.19175" lon="2.34007">
        <ele>481</ele>
        <time>2021-09-02T13:56:11Z</time>
      </trkpt>
      <trkpt lat="44.19075" lon="2.33971">
        <ele>484</ele>
        <time>2021-09-02T13:56:43Z</time>
      </trkpt>
      <trkpt lat="44.19012" lon="2.33959">
        <ele>482</ele>
        <time>2021-09-02T13:57:01Z</time>
      </trkpt>
      <trkpt lat="44.18993" lon="2.33947">
        <ele>482</ele>
        <time>2021-09-02T13:57:07Z</time>
      </trkpt>
      <trkpt lat="44.18968" lon="2.33911">
        <ele>481</ele>
        <time>2021-09-02T13:57:17Z</time>
      </trkpt>
      <trkpt lat="44.1889" lon="2.33771">
        <ele>477</ele>
        <time>2021-09-02T13:57:47Z</time>
      </trkpt>
      <trkpt lat="44.18787" lon="2.33591">
        <ele>472</ele>
        <time>2021-09-02T13:58:17Z</time>
      </trkpt>
      <trkpt lat="44.18692" lon="2.33429">
        <ele>470</ele>
        <time>2021-09-02T13:58:47Z</time>
      </trkpt>
      <trkpt lat="44.18577" lon="2.33275">
        <ele>470</ele>
        <time>2021-09-02T13:59:18Z</time>
      </trkpt>
      <trkpt lat="44.18455" lon="2.33118">
        <ele>468</ele>
        <time>2021-09-02T13:59:49Z</time>
      </trkpt>
      <trkpt lat="44.1833" lon="2.32976">
        <ele>466</ele>
        <time>2021-09-02T14:00:20Z</time>
      </trkpt>
      <trkpt lat="44.18289" lon="2.32922">
        <ele>466</ele>
        <time>2021-09-02T14:00:31Z</time>
      </trkpt>
      <trkpt lat="44.18216" lon="2.3277">
        <ele>470</ele>
        <time>2021-09-02T14:01:02Z</time>
      </trkpt>
      <trkpt lat="44.18154" lon="2.32616">
        <ele>475</ele>
        <time>2021-09-02T14:01:34Z</time>
      </trkpt>
      <trkpt lat="44.18111" lon="2.32448">
        <ele>478</ele>
        <time>2021-09-02T14:02:06Z</time>
      </trkpt>
      <trkpt lat="44.18074" lon="2.32288">
        <ele>483</ele>
        <time>2021-09-02T14:02:36Z</time>
      </trkpt>
      <trkpt lat="44.18023" lon="2.32118">
        <ele>485</ele>
        <time>2021-09-02T14:03:05Z</time>
      </trkpt>
      <trkpt lat="44.1796" lon="2.31968">
        <ele>485</ele>
        <time>2021-09-02T14:03:31Z</time>
      </trkpt>
      <trkpt lat="44.17871" lon="2.31841">
        <ele>485</ele>
        <time>2021-09-02T14:04:03Z</time>
      </trkpt>
      <trkpt lat="44.17786" lon="2.31743">
        <ele>489</ele>
        <time>2021-09-02T14:04:33Z</time>
      </trkpt>
      <trkpt lat="44.17725" lon="2.31668">
        <ele>493</ele>
        <time>2021-09-02T14:04:57Z</time>
      </trkpt>
      <trkpt lat="44.17644" lon="2.31535">
        <ele>495</ele>
        <time>2021-09-02T14:05:28Z</time>
      </trkpt>
      <trkpt lat="44.1756" lon="2.31404">
        <ele>494</ele>
        <time>2021-09-02T14:05:58Z</time>
      </trkpt>
      <trkpt lat="44.17528" lon="2.31317">
        <ele>496</ele>
        <time>2021-09-02T14:06:14Z</time>
      </trkpt>
      <trkpt lat="44.17507" lon="2.31279">
        <ele>497</ele>
        <time>2021-09-02T14:06:22Z</time>
      </trkpt>
      <trkpt lat="44.1741" lon="2.31165">
        <ele>499</ele>
        <time>2021-09-02T14:06:54Z</time>
      </trkpt>
      <trkpt lat="44.17358" lon="2.31098">
        <ele>501</ele>
        <time>2021-09-02T14:07:12Z</time>
      </trkpt>
      <trkpt lat="44.17268" lon="2.30871">
        <ele>496</ele>
        <time>2021-09-02T14:07:42Z</time>
      </trkpt>
      <trkpt lat="44.17185" lon="2.30566">
        <ele>489</ele>
        <time>2021-09-02T14:08:10Z</time>
      </trkpt>
      <trkpt lat="44.17154" lon="2.30513">
        <ele>487</ele>
        <time>2021-09-02T14:08:17Z</time>
      </trkpt>
      <trkpt lat="44.17088" lon="2.30411">
        <ele>486</ele>
        <time>2021-09-02T14:08:33Z</time>
      </trkpt>
      <trkpt lat="44.16993" lon="2.30207">
        <ele>486</ele>
        <time>2021-09-02T14:09:02Z</time>
      </trkpt>
      <trkpt lat="44.16983" lon="2.30169">
        <ele>487</ele>
        <time>2021-09-02T14:09:07Z</time>
      </trkpt>
      <trkpt lat="44.1698" lon="2.30096">
        <ele>490</ele>
        <time>2021-09-02T14:09:18Z</time>
      </trkpt>
      <trkpt lat="44.16974" lon="2.30062">
        <ele>491</ele>
        <time>2021-09-02T14:09:24Z</time>
      </trkpt>
      <trkpt lat="44.16901" lon="2.29848">
        <ele>493</ele>
        <time>2021-09-02T14:09:55Z</time>
      </trkpt>
      <trkpt lat="44.16854" lon="2.29677">
        <ele>494</ele>
        <time>2021-09-02T14:10:18Z</time>
      </trkpt>
      <trkpt lat="44.16839" lon="2.29648">
        <ele>494</ele>
        <time>2021-09-02T14:10:23Z</time>
      </trkpt>
      <trkpt lat="44.16817" lon="2.2962">
        <ele>494</ele>
        <time>2021-09-02T14:10:29Z</time>
      </trkpt>
      <trkpt lat="44.16785" lon="2.29601">
        <ele>495</ele>
        <time>2021-09-02T14:10:36Z</time>
      </trkpt>
      <trkpt lat="44.16728" lon="2.29571">
        <ele>496</ele>
        <time>2021-09-02T14:10:50Z</time>
      </trkpt>
      <trkpt lat="44.16686" lon="2.29529">
        <ele>498</ele>
        <time>2021-09-02T14:11:02Z</time>
      </trkpt>
      <trkpt lat="44.16624" lon="2.2946">
        <ele>498</ele>
        <time>2021-09-02T14:11:18Z</time>
      </trkpt>
      <trkpt lat="44.16546" lon="2.2938">
        <ele>496</ele>
        <time>2021-09-02T14:11:35Z</time>
      </trkpt>
      <trkpt lat="44.16417" lon="2.29231">
        <ele>493</ele>
        <time>2021-09-02T14:12:05Z</time>
      </trkpt>
      <trkpt lat="44.16327" lon="2.29142">
        <ele>489</ele>
        <time>2021-09-02T14:12:21Z</time>
      </trkpt>
      <trkpt lat="44.16314" lon="2.29119">
        <ele>488</ele>
        <time>2021-09-02T14:12:24Z</time>
      </trkpt>
      <trkpt lat="44.16305" lon="2.29093">
        <ele>488</ele>
        <time>2021-09-02T14:12:27Z</time>
      </trkpt>
      <trkpt lat="44.16274" lon="2.28861">
        <ele>491</ele>
        <time>2021-09-02T14:12:57Z</time>
      </trkpt>
      <trkpt lat="44.16236" lon="2.28653">
        <ele>486</ele>
        <time>2021-09-02T14:13:20Z</time>
      </trkpt>
      <trkpt lat="44.16198" lon="2.28546">
        <ele>483</ele>
        <time>2021-09-02T14:13:30Z</time>
      </trkpt>
      <trkpt lat="44.16108" lon="2.28372">
        <ele>476</ele>
        <time>2021-09-02T14:13:56Z</time>
      </trkpt>
      <trkpt lat="44.16104" lon="2.28377">
        <ele>473</ele>
        <time>2021-09-02T14:15:11Z</time>
      </trkpt>
      <trkpt lat="44.161" lon="2.28376">
        <ele>473</ele>
        <time>2021-09-02T14:15:27Z</time>
      </trkpt>
      <trkpt lat="44.16092" lon="2.28397">
        <ele>474</ele>
        <time>2021-09-02T14:15:36Z</time>
      </trkpt>
      <trkpt lat="44.16113" lon="2.28471">
        <ele>474</ele>
        <time>2021-09-02T14:15:56Z</time>
      </trkpt>
      <trkpt lat="44.1613" lon="2.28543">
        <ele>472</ele>
        <time>2021-09-02T14:16:08Z</time>
      </trkpt>
      <trkpt lat="44.16133" lon="2.28595">
        <ele>475</ele>
        <time>2021-09-02T14:16:17Z</time>
      </trkpt>
      <trkpt lat="44.16129" lon="2.28613">
        <ele>475</ele>
        <time>2021-09-02T14:16:21Z</time>
      </trkpt>
      <trkpt lat="44.16073" lon="2.28725">
        <ele>477</ele>
        <time>2021-09-02T14:16:51Z</time>
      </trkpt>
      <trkpt lat="44.16006" lon="2.28869">
        <ele>480</ele>
        <time>2021-09-02T14:17:23Z</time>
      </trkpt>
      <trkpt lat="44.15974" lon="2.28906">
        <ele>480</ele>
        <time>2021-09-02T14:17:32Z</time>
      </trkpt>
      <trkpt lat="44.15825" lon="2.29039">
        <ele>479</ele>
        <time>2021-09-02T14:18:02Z</time>
      </trkpt>
      <trkpt lat="44.15709" lon="2.29162">
        <ele>475</ele>
        <time>2021-09-02T14:18:25Z</time>
      </trkpt>
      <trkpt lat="44.157" lon="2.29179">
        <ele>473</ele>
        <time>2021-09-02T14:18:27Z</time>
      </trkpt>
      <trkpt lat="44.15667" lon="2.29296">
        <ele>466</ele>
        <time>2021-09-02T14:18:39Z</time>
      </trkpt>
      <trkpt lat="44.15666" lon="2.29306">
        <ele>466</ele>
        <time>2021-09-02T14:18:41Z</time>
      </trkpt>
      <trkpt lat="44.15673" lon="2.29314">
        <ele>465</ele>
        <time>2021-09-02T14:18:43Z</time>
      </trkpt>
      <trkpt lat="44.15678" lon="2.29316">
        <ele>465</ele>
        <time>2021-09-02T14:18:44Z</time>
      </trkpt>
      <trkpt lat="44.1586" lon="2.29262">
        <ele>439</ele>
        <time>2021-09-02T14:19:13Z</time>
      </trkpt>
      <trkpt lat="44.15858" lon="2.29272">
        <ele>438</ele>
        <time>2021-09-02T14:19:15Z</time>
      </trkpt>
      <trkpt lat="44.15836" lon="2.29287">
        <ele>435</ele>
        <time>2021-09-02T14:19:21Z</time>
      </trkpt>
      <trkpt lat="44.15819" lon="2.29307">
        <ele>431</ele>
        <time>2021-09-02T14:19:28Z</time>
      </trkpt>
      <trkpt lat="44.15815" lon="2.29313">
        <ele>430</ele>
        <time>2021-09-02T14:19:30Z</time>
      </trkpt>
      <trkpt lat="44.15811" lon="2.29321">
        <ele>430</ele>
        <time>2021-09-02T14:19:34Z</time>
      </trkpt>
      <trkpt lat="44.15802" lon="2.29336">
        <ele>427</ele>
        <time>2021-09-02T14:19:38Z</time>
      </trkpt>
      <trkpt lat="44.15797" lon="2.29345">
        <ele>425</ele>
        <time>2021-09-02T14:19:40Z</time>
      </trkpt>
      <trkpt lat="44.15791" lon="2.29353">
        <ele>423</ele>
        <time>2021-09-02T14:19:42Z</time>
      </trkpt>
      <trkpt lat="44.15708" lon="2.29437">
        <ele>415</ele>
        <time>2021-09-02T14:19:55Z</time>
      </trkpt>
      <trkpt lat="44.15647" lon="2.29508">
        <ele>418</ele>
        <time>2021-09-02T14:20:04Z</time>
      </trkpt>
      <trkpt lat="44.15636" lon="2.29518">
        <ele>419</ele>
        <time>2021-09-02T14:20:06Z</time>
      </trkpt>
      <trkpt lat="44.1563" lon="2.2952">
        <ele>419</ele>
        <time>2021-09-02T14:20:07Z</time>
      </trkpt>
      <trkpt lat="44.15624" lon="2.29521">
        <ele>419</ele>
        <time>2021-09-02T14:20:08Z</time>
      </trkpt>
      <trkpt lat="44.15618" lon="2.29517">
        <ele>418</ele>
        <time>2021-09-02T14:20:09Z</time>
      </trkpt>
      <trkpt lat="44.15613" lon="2.29513">
        <ele>417</ele>
        <time>2021-09-02T14:20:10Z</time>
      </trkpt>
      <trkpt lat="44.15611" lon="2.29506">
        <ele>417</ele>
        <time>2021-09-02T14:20:11Z</time>
      </trkpt>
      <trkpt lat="44.15608" lon="2.29498">
        <ele>416</ele>
        <time>2021-09-02T14:20:12Z</time>
      </trkpt>
      <trkpt lat="44.15606" lon="2.29437">
        <ele>415</ele>
        <time>2021-09-02T14:20:19Z</time>
      </trkpt>
      <trkpt lat="44.15605" lon="2.29431">
        <ele>414</ele>
        <time>2021-09-02T14:20:20Z</time>
      </trkpt>
      <trkpt lat="44.15601" lon="2.29426">
        <ele>414</ele>
        <time>2021-09-02T14:20:21Z</time>
      </trkpt>
      <trkpt lat="44.15594" lon="2.29428">
        <ele>415</ele>
        <time>2021-09-02T14:20:23Z</time>
      </trkpt>
      <trkpt lat="44.1559" lon="2.29433">
        <ele>415</ele>
        <time>2021-09-02T14:20:24Z</time>
      </trkpt>
      <trkpt lat="44.15589" lon="2.29478">
        <ele>415</ele>
        <time>2021-09-02T14:20:30Z</time>
      </trkpt>
      <trkpt lat="44.15588" lon="2.29496">
        <ele>414</ele>
        <time>2021-09-02T14:20:32Z</time>
      </trkpt>
      <trkpt lat="44.15576" lon="2.29545">
        <ele>412</ele>
        <time>2021-09-02T14:20:37Z</time>
      </trkpt>
      <trkpt lat="44.15576" lon="2.29553">
        <ele>411</ele>
        <time>2021-09-02T14:20:38Z</time>
      </trkpt>
      <trkpt lat="44.15578" lon="2.2956">
        <ele>411</ele>
        <time>2021-09-02T14:20:39Z</time>
      </trkpt>
      <trkpt lat="44.15592" lon="2.29581">
        <ele>409</ele>
        <time>2021-09-02T14:20:42Z</time>
      </trkpt>
      <trkpt lat="44.15595" lon="2.29588">
        <ele>408</ele>
        <time>2021-09-02T14:20:43Z</time>
      </trkpt>
      <trkpt lat="44.15595" lon="2.296">
        <ele>408</ele>
        <time>2021-09-02T14:20:45Z</time>
      </trkpt>
      <trkpt lat="44.15589" lon="2.2961">
        <ele>408</ele>
        <time>2021-09-02T14:20:47Z</time>
      </trkpt>
      <trkpt lat="44.15582" lon="2.29612">
        <ele>408</ele>
        <time>2021-09-02T14:20:48Z</time>
      </trkpt>
      <trkpt lat="44.1557" lon="2.29615">
        <ele>407</ele>
        <time>2021-09-02T14:20:50Z</time>
      </trkpt>
      <trkpt lat="44.15565" lon="2.29617">
        <ele>407</ele>
        <time>2021-09-02T14:20:51Z</time>
      </trkpt>
      <trkpt lat="44.15561" lon="2.2962">
        <ele>407</ele>
        <time>2021-09-02T14:20:52Z</time>
      </trkpt>
      <trkpt lat="44.15555" lon="2.29631">
        <ele>407</ele>
        <time>2021-09-02T14:20:54Z</time>
      </trkpt>
      <trkpt lat="44.15552" lon="2.29642">
        <ele>407</ele>
        <time>2021-09-02T14:20:56Z</time>
      </trkpt>
      <trkpt lat="44.15552" lon="2.29648">
        <ele>406</ele>
        <time>2021-09-02T14:20:57Z</time>
      </trkpt>
      <trkpt lat="44.15555" lon="2.29654">
        <ele>405</ele>
        <time>2021-09-02T14:20:58Z</time>
      </trkpt>
      <trkpt lat="44.15574" lon="2.29672">
        <ele>403</ele>
        <time>2021-09-02T14:21:02Z</time>
      </trkpt>
      <trkpt lat="44.1558" lon="2.29686">
        <ele>402</ele>
        <time>2021-09-02T14:21:04Z</time>
      </trkpt>
      <trkpt lat="44.15581" lon="2.29854">
        <ele>392</ele>
        <time>2021-09-02T14:21:21Z</time>
      </trkpt>
      <trkpt lat="44.15594" lon="2.29867">
        <ele>389</ele>
        <time>2021-09-02T14:21:24Z</time>
      </trkpt>
      <trkpt lat="44.15606" lon="2.29872">
        <ele>388</ele>
        <time>2021-09-02T14:21:26Z</time>
      </trkpt>
      <trkpt lat="44.15612" lon="2.29874">
        <ele>389</ele>
        <time>2021-09-02T14:21:27Z</time>
      </trkpt>
      <trkpt lat="44.15618" lon="2.29874">
        <ele>390</ele>
        <time>2021-09-02T14:21:28Z</time>
      </trkpt>
      <trkpt lat="44.15622" lon="2.2987">
        <ele>392</ele>
        <time>2021-09-02T14:21:29Z</time>
      </trkpt>
      <trkpt lat="44.15634" lon="2.29843">
        <ele>393</ele>
        <time>2021-09-02T14:21:35Z</time>
      </trkpt>
      <trkpt lat="44.15641" lon="2.29835">
        <ele>392</ele>
        <time>2021-09-02T14:21:37Z</time>
      </trkpt>
      <trkpt lat="44.15659" lon="2.29835">
        <ele>391</ele>
        <time>2021-09-02T14:21:41Z</time>
      </trkpt>
      <trkpt lat="44.15669" lon="2.2985">
        <ele>387</ele>
        <time>2021-09-02T14:21:45Z</time>
      </trkpt>
      <trkpt lat="44.15672" lon="2.29857">
        <ele>386</ele>
        <time>2021-09-02T14:21:47Z</time>
      </trkpt>
      <trkpt lat="44.15673" lon="2.29865">
        <ele>386</ele>
        <time>2021-09-02T14:21:49Z</time>
      </trkpt>
      <trkpt lat="44.15675" lon="2.29873">
        <ele>387</ele>
        <time>2021-09-02T14:21:52Z</time>
      </trkpt>
      <trkpt lat="44.15674" lon="2.2988">
        <ele>388</ele>
        <time>2021-09-02T14:21:55Z</time>
      </trkpt>
      <trkpt lat="44.15656" lon="2.29918">
        <ele>395</ele>
        <time>2021-09-02T14:22:17Z</time>
      </trkpt>
      <trkpt lat="44.15651" lon="2.29922">
        <ele>397</ele>
        <time>2021-09-02T14:22:20Z</time>
      </trkpt>
      <trkpt lat="44.15631" lon="2.2994">
        <ele>398</ele>
        <time>2021-09-02T14:22:32Z</time>
      </trkpt>
      <trkpt lat="44.15621" lon="2.29943">
        <ele>399</ele>
        <time>2021-09-02T14:22:38Z</time>
      </trkpt>
      <trkpt lat="44.15609" lon="2.29946">
        <ele>400</ele>
        <time>2021-09-02T14:22:44Z</time>
      </trkpt>
      <trkpt lat="44.15589" lon="2.29956">
        <ele>397</ele>
        <time>2021-09-02T14:22:55Z</time>
      </trkpt>
      <trkpt lat="44.15584" lon="2.29957">
        <ele>396</ele>
        <time>2021-09-02T14:22:58Z</time>
      </trkpt>
      <trkpt lat="44.15579" lon="2.29955">
        <ele>394</ele>
        <time>2021-09-02T14:23:00Z</time>
      </trkpt>
      <trkpt lat="44.15574" lon="2.29952">
        <ele>394</ele>
        <time>2021-09-02T14:23:02Z</time>
      </trkpt>
      <trkpt lat="44.15571" lon="2.29948">
        <ele>393</ele>
        <time>2021-09-02T14:23:05Z</time>
      </trkpt>
      <trkpt lat="44.15565" lon="2.29944">
        <ele>393</ele>
        <time>2021-09-02T14:23:08Z</time>
      </trkpt>
      <trkpt lat="44.1555" lon="2.29921">
        <ele>396</ele>
        <time>2021-09-02T14:23:20Z</time>
      </trkpt>
      <trkpt lat="44.15549" lon="2.29913">
        <ele>397</ele>
        <time>2021-09-02T14:23:23Z</time>
      </trkpt>
      <trkpt lat="44.15546" lon="2.29908">
        <ele>398</ele>
        <time>2021-09-02T14:23:25Z</time>
      </trkpt>
      <trkpt lat="44.15538" lon="2.29892">
        <ele>399</ele>
        <time>2021-09-02T14:23:31Z</time>
      </trkpt>
      <trkpt lat="44.15534" lon="2.29886">
        <ele>399</ele>
        <time>2021-09-02T14:23:33Z</time>
      </trkpt>
      <trkpt lat="44.15531" lon="2.2988">
        <ele>399</ele>
        <time>2021-09-02T14:23:35Z</time>
      </trkpt>
      <trkpt lat="44.15526" lon="2.29845">
        <ele>401</ele>
        <time>2021-09-02T14:23:47Z</time>
      </trkpt>
      <trkpt lat="44.15523" lon="2.29832">
        <ele>402</ele>
        <time>2021-09-02T14:23:52Z</time>
      </trkpt>
      <trkpt lat="44.15519" lon="2.29829">
        <ele>403</ele>
        <time>2021-09-02T14:23:54Z</time>
      </trkpt>
      <trkpt lat="44.1551" lon="2.29817">
        <ele>407</ele>
        <time>2021-09-02T14:24:00Z</time>
      </trkpt>
      <trkpt lat="44.15507" lon="2.29809">
        <ele>408</ele>
        <time>2021-09-02T14:24:03Z</time>
      </trkpt>
      <trkpt lat="44.15504" lon="2.29802">
        <ele>410</ele>
        <time>2021-09-02T14:24:06Z</time>
      </trkpt>
      <trkpt lat="44.15503" lon="2.29795">
        <ele>411</ele>
        <time>2021-09-02T14:24:09Z</time>
      </trkpt>
      <trkpt lat="44.15503" lon="2.29789">
        <ele>411</ele>
        <time>2021-09-02T14:24:12Z</time>
      </trkpt>
      <trkpt lat="44.155" lon="2.2978">
        <ele>411</ele>
        <time>2021-09-02T14:24:15Z</time>
      </trkpt>
      <trkpt lat="44.15495" lon="2.29775">
        <ele>411</ele>
        <time>2021-09-02T14:24:18Z</time>
      </trkpt>
      <trkpt lat="44.15492" lon="2.2977">
        <ele>412</ele>
        <time>2021-09-02T14:24:21Z</time>
      </trkpt>
      <trkpt lat="44.1549" lon="2.29761">
        <ele>416</ele>
        <time>2021-09-02T14:24:24Z</time>
      </trkpt>
      <trkpt lat="44.15445" lon="2.29691">
        <ele>422</ele>
        <time>2021-09-02T14:24:55Z</time>
      </trkpt>
      <trkpt lat="44.15424" lon="2.29669">
        <ele>421</ele>
        <time>2021-09-02T14:25:05Z</time>
      </trkpt>
      <trkpt lat="44.15419" lon="2.29665">
        <ele>422</ele>
        <time>2021-09-02T14:25:08Z</time>
      </trkpt>
      <trkpt lat="44.15413" lon="2.29663">
        <ele>423</ele>
        <time>2021-09-02T14:25:11Z</time>
      </trkpt>
      <trkpt lat="44.15408" lon="2.29665">
        <ele>425</ele>
        <time>2021-09-02T14:25:14Z</time>
      </trkpt>
      <trkpt lat="44.15361" lon="2.29714">
        <ele>432</ele>
        <time>2021-09-02T14:25:44Z</time>
      </trkpt>
      <trkpt lat="44.15349" lon="2.29733">
        <ele>433</ele>
        <time>2021-09-02T14:25:50Z</time>
      </trkpt>
      <trkpt lat="44.15333" lon="2.29759">
        <ele>431</ele>
        <time>2021-09-02T14:26:01Z</time>
      </trkpt>
      <trkpt lat="44.1533" lon="2.29766">
        <ele>429</ele>
        <time>2021-09-02T14:26:04Z</time>
      </trkpt>
      <trkpt lat="44.1532" lon="2.29785">
        <ele>428</ele>
        <time>2021-09-02T14:26:12Z</time>
      </trkpt>
      <trkpt lat="44.15316" lon="2.29792">
        <ele>426</ele>
        <time>2021-09-02T14:26:15Z</time>
      </trkpt>
      <trkpt lat="44.15312" lon="2.29797">
        <ele>426</ele>
        <time>2021-09-02T14:26:17Z</time>
      </trkpt>
      <trkpt lat="44.15308" lon="2.29799">
        <ele>426</ele>
        <time>2021-09-02T14:26:19Z</time>
      </trkpt>
      <trkpt lat="44.15302" lon="2.29801">
        <ele>426</ele>
        <time>2021-09-02T14:26:22Z</time>
      </trkpt>
      <trkpt lat="44.15298" lon="2.29802">
        <ele>428</ele>
        <time>2021-09-02T14:26:54Z</time>
      </trkpt>
      <trkpt lat="44.15293" lon="2.29802">
        <ele>428</ele>
        <time>2021-09-02T14:26:56Z</time>
      </trkpt>
      <trkpt lat="44.15288" lon="2.298">
        <ele>429</ele>
        <time>2021-09-02T14:26:58Z</time>
      </trkpt>
      <trkpt lat="44.15285" lon="2.29797">
        <ele>429</ele>
        <time>2021-09-02T14:27:00Z</time>
      </trkpt>
      <trkpt lat="44.15282" lon="2.29783">
        <ele>429</ele>
        <time>2021-09-02T14:27:04Z</time>
      </trkpt>
      <trkpt lat="44.15281" lon="2.29767">
        <ele>429</ele>
        <time>2021-09-02T14:27:08Z</time>
      </trkpt>
      <trkpt lat="44.15283" lon="2.29701">
        <ele>431</ele>
        <time>2021-09-02T14:27:23Z</time>
      </trkpt>
      <trkpt lat="44.15286" lon="2.29681">
        <ele>433</ele>
        <time>2021-09-02T14:27:27Z</time>
      </trkpt>
      <trkpt lat="44.15287" lon="2.29671">
        <ele>434</ele>
        <time>2021-09-02T14:27:29Z</time>
      </trkpt>
      <trkpt lat="44.15284" lon="2.29652">
        <ele>435</ele>
        <time>2021-09-02T14:27:33Z</time>
      </trkpt>
      <trkpt lat="44.15278" lon="2.29638">
        <ele>436</ele>
        <time>2021-09-02T14:27:37Z</time>
      </trkpt>
      <trkpt lat="44.15268" lon="2.29626">
        <ele>438</ele>
        <time>2021-09-02T14:27:41Z</time>
      </trkpt>
      <trkpt lat="44.15257" lon="2.2962">
        <ele>438</ele>
        <time>2021-09-02T14:27:45Z</time>
      </trkpt>
      <trkpt lat="44.1524" lon="2.29618">
        <ele>440</ele>
        <time>2021-09-02T14:27:51Z</time>
      </trkpt>
      <trkpt lat="44.15166" lon="2.29645">
        <ele>449</ele>
        <time>2021-09-02T14:28:23Z</time>
      </trkpt>
      <trkpt lat="44.15124" lon="2.29654">
        <ele>454</ele>
        <time>2021-09-02T14:28:39Z</time>
      </trkpt>
      <trkpt lat="44.15119" lon="2.29657">
        <ele>454</ele>
        <time>2021-09-02T14:28:41Z</time>
      </trkpt>
      <trkpt lat="44.15111" lon="2.29666">
        <ele>455</ele>
        <time>2021-09-02T14:28:45Z</time>
      </trkpt>
      <trkpt lat="44.15105" lon="2.29677">
        <ele>457</ele>
        <time>2021-09-02T14:28:49Z</time>
      </trkpt>
      <trkpt lat="44.15102" lon="2.29689">
        <ele>457</ele>
        <time>2021-09-02T14:28:53Z</time>
      </trkpt>
      <trkpt lat="44.15102" lon="2.29721">
        <ele>457</ele>
        <time>2021-09-02T14:29:02Z</time>
      </trkpt>
      <trkpt lat="44.15103" lon="2.29728">
        <ele>457</ele>
        <time>2021-09-02T14:29:04Z</time>
      </trkpt>
      <trkpt lat="44.15098" lon="2.29822">
        <ele>458</ele>
        <time>2021-09-02T14:29:34Z</time>
      </trkpt>
      <trkpt lat="44.15093" lon="2.29913">
        <ele>462</ele>
        <time>2021-09-02T14:30:01Z</time>
      </trkpt>
      <trkpt lat="44.15087" lon="2.29942">
        <ele>464</ele>
        <time>2021-09-02T14:30:10Z</time>
      </trkpt>
      <trkpt lat="44.15067" lon="2.30057">
        <ele>468</ele>
        <time>2021-09-02T14:30:41Z</time>
      </trkpt>
      <trkpt lat="44.15064" lon="2.3012">
        <ele>470</ele>
        <time>2021-09-02T14:30:58Z</time>
      </trkpt>
      <trkpt lat="44.15066" lon="2.30137">
        <ele>470</ele>
        <time>2021-09-02T14:31:02Z</time>
      </trkpt>
      <trkpt lat="44.15071" lon="2.30155">
        <ele>471</ele>
        <time>2021-09-02T14:31:06Z</time>
      </trkpt>
      <trkpt lat="44.15137" lon="2.30284">
        <ele>473</ele>
        <time>2021-09-02T14:31:38Z</time>
      </trkpt>
      <trkpt lat="44.15168" lon="2.3034">
        <ele>475</ele>
        <time>2021-09-02T14:31:50Z</time>
      </trkpt>
      <trkpt lat="44.15222" lon="2.30422">
        <ele>476</ele>
        <time>2021-09-02T14:32:12Z</time>
      </trkpt>
      <trkpt lat="44.15237" lon="2.30453">
        <ele>477</ele>
        <time>2021-09-02T14:32:20Z</time>
      </trkpt>
      <trkpt lat="44.1524" lon="2.30469">
        <ele>477</ele>
        <time>2021-09-02T14:32:24Z</time>
      </trkpt>
      <trkpt lat="44.1524" lon="2.30495">
        <ele>478</ele>
        <time>2021-09-02T14:32:30Z</time>
      </trkpt>
      <trkpt lat="44.15238" lon="2.30505">
        <ele>477</ele>
        <time>2021-09-02T14:32:32Z</time>
      </trkpt>
      <trkpt lat="44.15242" lon="2.30531">
        <ele>476</ele>
        <time>2021-09-02T14:32:38Z</time>
      </trkpt>
      <trkpt lat="44.15243" lon="2.30538">
        <ele>475</ele>
        <time>2021-09-02T14:32:40Z</time>
      </trkpt>
      <trkpt lat="44.15245" lon="2.30543">
        <ele>475</ele>
        <time>2021-09-02T14:32:42Z</time>
      </trkpt>
      <trkpt lat="44.15249" lon="2.30549">
        <ele>475</ele>
        <time>2021-09-02T14:32:44Z</time>
      </trkpt>
      <trkpt lat="44.15253" lon="2.30554">
        <ele>475</ele>
        <time>2021-09-02T14:32:46Z</time>
      </trkpt>
      <trkpt lat="44.15257" lon="2.30559">
        <ele>476</ele>
        <time>2021-09-02T14:32:48Z</time>
      </trkpt>
      <trkpt lat="44.15262" lon="2.30563">
        <ele>476</ele>
        <time>2021-09-02T14:32:50Z</time>
      </trkpt>
      <trkpt lat="44.15275" lon="2.30569">
        <ele>476</ele>
        <time>2021-09-02T14:32:54Z</time>
      </trkpt>
      <trkpt lat="44.15287" lon="2.30566">
        <ele>477</ele>
        <time>2021-09-02T14:32:59Z</time>
      </trkpt>
      <trkpt lat="44.15293" lon="2.30568">
        <ele>476</ele>
        <time>2021-09-02T14:33:03Z</time>
      </trkpt>
      <trkpt lat="44.15292" lon="2.30577">
        <ele>476</ele>
        <time>2021-09-02T14:33:49Z</time>
      </trkpt>
      <trkpt lat="44.15287" lon="2.30584">
        <ele>476</ele>
        <time>2021-09-02T14:33:52Z</time>
      </trkpt>
      <trkpt lat="44.15284" lon="2.30593">
        <ele>476</ele>
        <time>2021-09-02T14:33:55Z</time>
      </trkpt>
      <trkpt lat="44.15284" lon="2.30609">
        <ele>476</ele>
        <time>2021-09-02T14:33:59Z</time>
      </trkpt>
      <trkpt lat="44.15262" lon="2.30719">
        <ele>470</ele>
        <time>2021-09-02T14:34:19Z</time>
      </trkpt>
      <trkpt lat="44.15198" lon="2.30842">
        <ele>468</ele>
        <time>2021-09-02T14:34:35Z</time>
      </trkpt>
      <trkpt lat="44.15196" lon="2.3085">
        <ele>468</ele>
        <time>2021-09-02T14:34:36Z</time>
      </trkpt>
      <trkpt lat="44.1522" lon="2.31081">
        <ele>452</ele>
        <time>2021-09-02T14:35:01Z</time>
      </trkpt>
      <trkpt lat="44.15211" lon="2.3113">
        <ele>449</ele>
        <time>2021-09-02T14:35:05Z</time>
      </trkpt>
      <trkpt lat="44.15204" lon="2.3115">
        <ele>448</ele>
        <time>2021-09-02T14:35:07Z</time>
      </trkpt>
      <trkpt lat="44.15148" lon="2.31247">
        <ele>436</ele>
        <time>2021-09-02T14:35:19Z</time>
      </trkpt>
      <trkpt lat="44.15102" lon="2.31282">
        <ele>432</ele>
        <time>2021-09-02T14:35:26Z</time>
      </trkpt>
      <trkpt lat="44.15095" lon="2.31283">
        <ele>432</ele>
        <time>2021-09-02T14:35:27Z</time>
      </trkpt>
      <trkpt lat="44.15079" lon="2.31281">
        <ele>432</ele>
        <time>2021-09-02T14:35:29Z</time>
      </trkpt>
      <trkpt lat="44.15057" lon="2.31251">
        <ele>429</ele>
        <time>2021-09-02T14:35:33Z</time>
      </trkpt>
      <trkpt lat="44.15042" lon="2.31235">
        <ele>429</ele>
        <time>2021-09-02T14:35:35Z</time>
      </trkpt>
      <trkpt lat="44.15034" lon="2.31228">
        <ele>429</ele>
        <time>2021-09-02T14:35:36Z</time>
      </trkpt>
      <trkpt lat="44.15027" lon="2.31226">
        <ele>429</ele>
        <time>2021-09-02T14:35:37Z</time>
      </trkpt>
      <trkpt lat="44.15021" lon="2.31229">
        <ele>430</ele>
        <time>2021-09-02T14:35:38Z</time>
      </trkpt>
      <trkpt lat="44.15008" lon="2.31259">
        <ele>432</ele>
        <time>2021-09-02T14:35:44Z</time>
      </trkpt>
      <trkpt lat="44.14991" lon="2.3129">
        <ele>434</ele>
        <time>2021-09-02T14:35:57Z</time>
      </trkpt>
      <trkpt lat="44.14987" lon="2.31295">
        <ele>435</ele>
        <time>2021-09-02T14:36:00Z</time>
      </trkpt>
      <trkpt lat="44.14976" lon="2.31305">
        <ele>436</ele>
        <time>2021-09-02T14:36:06Z</time>
      </trkpt>
      <trkpt lat="44.1496" lon="2.31332">
        <ele>440</ele>
        <time>2021-09-02T14:36:21Z</time>
      </trkpt>
      <trkpt lat="44.14947" lon="2.31349">
        <ele>442</ele>
        <time>2021-09-02T14:36:30Z</time>
      </trkpt>
      <trkpt lat="44.14939" lon="2.31362">
        <ele>445</ele>
        <time>2021-09-02T14:36:36Z</time>
      </trkpt>
      <trkpt lat="44.14935" lon="2.31369">
        <ele>446</ele>
        <time>2021-09-02T14:36:39Z</time>
      </trkpt>
      <trkpt lat="44.14916" lon="2.31394">
        <ele>447</ele>
        <time>2021-09-02T14:36:53Z</time>
      </trkpt>
      <trkpt lat="44.14912" lon="2.314">
        <ele>447</ele>
        <time>2021-09-02T14:36:56Z</time>
      </trkpt>
      <trkpt lat="44.14908" lon="2.31406">
        <ele>447</ele>
        <time>2021-09-02T14:36:59Z</time>
      </trkpt>
      <trkpt lat="44.14871" lon="2.31442">
        <ele>451</ele>
        <time>2021-09-02T14:37:20Z</time>
      </trkpt>
      <trkpt lat="44.14856" lon="2.31449">
        <ele>452</ele>
        <time>2021-09-02T14:37:30Z</time>
      </trkpt>
      <trkpt lat="44.14853" lon="2.31454">
        <ele>452</ele>
        <time>2021-09-02T14:37:33Z</time>
      </trkpt>
      <trkpt lat="44.1479" lon="2.31488">
        <ele>450</ele>
        <time>2021-09-02T14:38:05Z</time>
      </trkpt>
      <trkpt lat="44.14775" lon="2.31493">
        <ele>451</ele>
        <time>2021-09-02T14:38:12Z</time>
      </trkpt>
      <trkpt lat="44.14747" lon="2.31493">
        <ele>454</ele>
        <time>2021-09-02T14:38:22Z</time>
      </trkpt>
      <trkpt lat="44.14732" lon="2.31485">
        <ele>455</ele>
        <time>2021-09-02T14:38:29Z</time>
      </trkpt>
      <trkpt lat="44.14728" lon="2.31482">
        <ele>456</ele>
        <time>2021-09-02T14:38:31Z</time>
      </trkpt>
      <trkpt lat="44.14719" lon="2.31469">
        <ele>457</ele>
        <time>2021-09-02T14:38:37Z</time>
      </trkpt>
      <trkpt lat="44.14714" lon="2.31456">
        <ele>458</ele>
        <time>2021-09-02T14:38:43Z</time>
      </trkpt>
      <trkpt lat="44.14711" lon="2.3144">
        <ele>460</ele>
        <time>2021-09-02T14:38:49Z</time>
      </trkpt>
      <trkpt lat="44.1471" lon="2.31432">
        <ele>461</ele>
        <time>2021-09-02T14:38:52Z</time>
      </trkpt>
      <trkpt lat="44.14698" lon="2.31376">
        <ele>466</ele>
        <time>2021-09-02T14:39:12Z</time>
      </trkpt>
      <trkpt lat="44.14697" lon="2.31367">
        <ele>466</ele>
        <time>2021-09-02T14:39:15Z</time>
      </trkpt>
      <trkpt lat="44.14692" lon="2.31362">
        <ele>469</ele>
        <time>2021-09-02T14:39:58Z</time>
      </trkpt>
      <trkpt lat="44.14689" lon="2.31368">
        <ele>469</ele>
        <time>2021-09-02T14:40:00Z</time>
      </trkpt>
      <trkpt lat="44.1466" lon="2.3139">
        <ele>471</ele>
        <time>2021-09-02T14:40:14Z</time>
      </trkpt>
      <trkpt lat="44.14655" lon="2.31392">
        <ele>471</ele>
        <time>2021-09-02T14:40:16Z</time>
      </trkpt>
      <trkpt lat="44.14635" lon="2.31402">
        <ele>472</ele>
        <time>2021-09-02T14:40:24Z</time>
      </trkpt>
      <trkpt lat="44.14629" lon="2.31405">
        <ele>472</ele>
        <time>2021-09-02T14:40:26Z</time>
      </trkpt>
      <trkpt lat="44.14622" lon="2.31408">
        <ele>474</ele>
        <time>2021-09-02T14:40:28Z</time>
      </trkpt>
      <trkpt lat="44.14617" lon="2.31411">
        <ele>475</ele>
        <time>2021-09-02T14:40:30Z</time>
      </trkpt>
      <trkpt lat="44.14525" lon="2.31464">
        <ele>476</ele>
        <time>2021-09-02T14:41:02Z</time>
      </trkpt>
      <trkpt lat="44.14455" lon="2.31504">
        <ele>479</ele>
        <time>2021-09-02T14:41:26Z</time>
      </trkpt>
      <trkpt lat="44.14451" lon="2.31501">
        <ele>479</ele>
        <time>2021-09-02T14:41:30Z</time>
      </trkpt>
      <trkpt lat="44.14449" lon="2.31495">
        <ele>478</ele>
        <time>2021-09-02T14:42:18Z</time>
      </trkpt>
      <trkpt lat="44.1444" lon="2.31474">
        <ele>478</ele>
        <time>2021-09-02T14:42:24Z</time>
      </trkpt>
      <trkpt lat="44.14356" lon="2.31304">
        <ele>469</ele>
        <time>2021-09-02T14:42:48Z</time>
      </trkpt>
      <trkpt lat="44.14337" lon="2.31264">
        <ele>468</ele>
        <time>2021-09-02T14:42:54Z</time>
      </trkpt>
      <trkpt lat="44.14334" lon="2.3126">
        <ele>468</ele>
        <time>2021-09-02T14:42:55Z</time>
      </trkpt>
      <trkpt lat="44.14324" lon="2.31254">
        <ele>468</ele>
        <time>2021-09-02T14:42:57Z</time>
      </trkpt>
      <trkpt lat="44.1424" lon="2.31241">
        <ele>467</ele>
        <time>2021-09-02T14:43:19Z</time>
      </trkpt>
      <trkpt lat="44.14108" lon="2.31251">
        <ele>465</ele>
        <time>2021-09-02T14:43:50Z</time>
      </trkpt>
      <trkpt lat="44.14038" lon="2.31242">
        <ele>463</ele>
        <time>2021-09-02T14:44:04Z</time>
      </trkpt>
      <trkpt lat="44.13836" lon="2.31157">
        <ele>455</ele>
        <time>2021-09-02T14:44:35Z</time>
      </trkpt>
      <trkpt lat="44.13681" lon="2.3106">
        <ele>447</ele>
        <time>2021-09-02T14:44:57Z</time>
      </trkpt>
      <trkpt lat="44.13673" lon="2.31062">
        <ele>447</ele>
        <time>2021-09-02T14:44:59Z</time>
      </trkpt>
      <trkpt lat="44.13669" lon="2.31074">
        <ele>447</ele>
        <time>2021-09-02T14:45:01Z</time>
      </trkpt>
      <trkpt lat="44.1365" lon="2.31134">
        <ele>445</ele>
        <time>2021-09-02T14:45:09Z</time>
      </trkpt>
      <trkpt lat="44.13643" lon="2.31147">
        <ele>445</ele>
        <time>2021-09-02T14:45:13Z</time>
      </trkpt>
      <trkpt lat="44.1358" lon="2.31102">
        <ele>449</ele>
        <time>2021-09-02T14:45:45Z</time>
      </trkpt>
      <trkpt lat="44.13558" lon="2.31089">
        <ele>451</ele>
        <time>2021-09-02T14:45:55Z</time>
      </trkpt>
      <trkpt lat="44.13537" lon="2.31081">
        <ele>453</ele>
        <time>2021-09-02T14:46:04Z</time>
      </trkpt>
      <trkpt lat="44.13515" lon="2.31081">
        <ele>454</ele>
        <time>2021-09-02T14:46:12Z</time>
      </trkpt>
      <trkpt lat="44.13497" lon="2.31093">
        <ele>454</ele>
        <time>2021-09-02T14:46:18Z</time>
      </trkpt>
      <trkpt lat="44.13434" lon="2.31163">
        <ele>455</ele>
        <time>2021-09-02T14:46:39Z</time>
      </trkpt>
      <trkpt lat="44.13395" lon="2.31185">
        <ele>455</ele>
        <time>2021-09-02T14:46:51Z</time>
      </trkpt>
      <trkpt lat="44.13391" lon="2.3119">
        <ele>455</ele>
        <time>2021-09-02T14:46:53Z</time>
      </trkpt>
      <trkpt lat="44.13386" lon="2.31194">
        <ele>454</ele>
        <time>2021-09-02T14:46:55Z</time>
      </trkpt>
      <trkpt lat="44.13364" lon="2.31195">
        <ele>450</ele>
        <time>2021-09-02T14:47:05Z</time>
      </trkpt>
      <trkpt lat="44.13349" lon="2.31188">
        <ele>449</ele>
        <time>2021-09-02T14:47:13Z</time>
      </trkpt>
      <trkpt lat="44.13359" lon="2.31198">
        <ele>450</ele>
        <time>2021-09-02T14:47:29Z</time>
      </trkpt>
      <trkpt lat="44.13356" lon="2.31203">
        <ele>450</ele>
        <time>2021-09-02T14:47:31Z</time>
      </trkpt>
      <trkpt lat="44.13342" lon="2.31213">
        <ele>451</ele>
        <time>2021-09-02T14:47:39Z</time>
      </trkpt>
      <trkpt lat="44.1334" lon="2.31219">
        <ele>451</ele>
        <time>2021-09-02T14:47:44Z</time>
      </trkpt>
      <trkpt lat="44.13338" lon="2.31248">
        <ele>451</ele>
        <time>2021-09-02T14:48:16Z</time>
      </trkpt>
    </trkseg>
  </trk>
</gpx>